<?xml version="1.0" encoding="UTF-8" standalone="no" ?>
<gpx xmlns="http://www.topografix.com/GPX/1/1" xmlns:xsi="http://www.w3.org/2001/XMLSchema-instance" xsi:schemaLocation="http://www.topografix.com/GPX/1/1 http://www.topografix.com/GPX/1/1/gpx.xsd" version="1.1" creator="VisuGPX - https://www.visugpx.com">
  <metadata>
    <name>14437826-cancerilles 48 </name>
    <desc><![CDATA[Rando vtt cancerilles ]]></desc>
  </metadata>
  <trk>
    <name><![CDATA[14437826-cancerilles 48 ]]></name>
    <trkseg>
      <trkpt lat="43.27355" lon="5.92349">
        <ele>319</ele>
        <time>2022-03-21T07:22:22Z</time>
      </trkpt>
      <trkpt lat="43.27346" lon="5.9235">
        <ele>319</ele>
        <time>2022-03-21T07:22:24Z</time>
      </trkpt>
      <trkpt lat="43.27345" lon="5.92359">
        <ele>320</ele>
        <time>2022-03-21T07:22:26Z</time>
      </trkpt>
      <trkpt lat="43.27345" lon="5.92356">
        <ele>319</ele>
        <time>2022-03-21T07:22:26Z</time>
      </trkpt>
      <trkpt lat="43.27342" lon="5.92354">
        <ele>319</ele>
        <time>2022-03-21T07:22:27Z</time>
      </trkpt>
      <trkpt lat="43.27326" lon="5.92354">
        <ele>318</ele>
        <time>2022-03-21T07:22:31Z</time>
      </trkpt>
      <trkpt lat="43.27307" lon="5.92346">
        <ele>316</ele>
        <time>2022-03-21T07:22:35Z</time>
      </trkpt>
      <trkpt lat="43.27297" lon="5.92345">
        <ele>315</ele>
        <time>2022-03-21T07:22:38Z</time>
      </trkpt>
      <trkpt lat="43.27285" lon="5.9235">
        <ele>314</ele>
        <time>2022-03-21T07:22:41Z</time>
      </trkpt>
      <trkpt lat="43.27274" lon="5.92359">
        <ele>314</ele>
        <time>2022-03-21T07:22:44Z</time>
      </trkpt>
      <trkpt lat="43.27265" lon="5.92351">
        <ele>312</ele>
        <time>2022-03-21T07:22:46Z</time>
      </trkpt>
      <trkpt lat="43.27271" lon="5.92317">
        <ele>311</ele>
        <time>2022-03-21T07:22:52Z</time>
      </trkpt>
      <trkpt lat="43.27283" lon="5.92285">
        <ele>310</ele>
        <time>2022-03-21T07:22:58Z</time>
      </trkpt>
      <trkpt lat="43.2729" lon="5.92274">
        <ele>310</ele>
        <time>2022-03-21T07:23:01Z</time>
      </trkpt>
      <trkpt lat="43.27293" lon="5.9226">
        <ele>309</ele>
        <time>2022-03-21T07:23:03Z</time>
      </trkpt>
      <trkpt lat="43.27282" lon="5.92234">
        <ele>311</ele>
        <time>2022-03-21T07:23:08Z</time>
      </trkpt>
      <trkpt lat="43.27248" lon="5.92178">
        <ele>317</ele>
        <time>2022-03-21T07:23:21Z</time>
      </trkpt>
      <trkpt lat="43.27231" lon="5.92141">
        <ele>322</ele>
        <time>2022-03-21T07:23:28Z</time>
      </trkpt>
      <trkpt lat="43.27215" lon="5.9212">
        <ele>325</ele>
        <time>2022-03-21T07:23:33Z</time>
      </trkpt>
      <trkpt lat="43.27205" lon="5.92112">
        <ele>325</ele>
        <time>2022-03-21T07:23:36Z</time>
      </trkpt>
      <trkpt lat="43.27194" lon="5.92107">
        <ele>326</ele>
        <time>2022-03-21T07:23:39Z</time>
      </trkpt>
      <trkpt lat="43.2712" lon="5.92089">
        <ele>325</ele>
        <time>2022-03-21T07:23:56Z</time>
      </trkpt>
      <trkpt lat="43.2711" lon="5.92083">
        <ele>325</ele>
        <time>2022-03-21T07:23:59Z</time>
      </trkpt>
      <trkpt lat="43.27086" lon="5.92052">
        <ele>328</ele>
        <time>2022-03-21T07:24:06Z</time>
      </trkpt>
      <trkpt lat="43.27076" lon="5.92043">
        <ele>330</ele>
        <time>2022-03-21T07:24:09Z</time>
      </trkpt>
      <trkpt lat="43.27065" lon="5.92039">
        <ele>332</ele>
        <time>2022-03-21T07:24:12Z</time>
      </trkpt>
      <trkpt lat="43.27054" lon="5.92037">
        <ele>333</ele>
        <time>2022-03-21T07:24:14Z</time>
      </trkpt>
      <trkpt lat="43.27035" lon="5.92048">
        <ele>334</ele>
        <time>2022-03-21T07:24:19Z</time>
      </trkpt>
      <trkpt lat="43.27015" lon="5.92051">
        <ele>336</ele>
        <time>2022-03-21T07:24:24Z</time>
      </trkpt>
      <trkpt lat="43.27005" lon="5.92055">
        <ele>336</ele>
        <time>2022-03-21T07:24:26Z</time>
      </trkpt>
      <trkpt lat="43.26988" lon="5.9207">
        <ele>339</ele>
        <time>2022-03-21T07:24:31Z</time>
      </trkpt>
      <trkpt lat="43.2698" lon="5.92082">
        <ele>340</ele>
        <time>2022-03-21T07:24:34Z</time>
      </trkpt>
      <trkpt lat="43.26972" lon="5.92104">
        <ele>341</ele>
        <time>2022-03-21T07:24:38Z</time>
      </trkpt>
      <trkpt lat="43.26948" lon="5.92153">
        <ele>344</ele>
        <time>2022-03-21T07:24:48Z</time>
      </trkpt>
      <trkpt lat="43.26928" lon="5.92224">
        <ele>348</ele>
        <time>2022-03-21T07:25:01Z</time>
      </trkpt>
      <trkpt lat="43.26908" lon="5.92261">
        <ele>352</ele>
        <time>2022-03-21T07:25:09Z</time>
      </trkpt>
      <trkpt lat="43.26884" lon="5.92288">
        <ele>357</ele>
        <time>2022-03-21T07:25:16Z</time>
      </trkpt>
      <trkpt lat="43.2687" lon="5.9234">
        <ele>356</ele>
        <time>2022-03-21T07:25:26Z</time>
      </trkpt>
      <trkpt lat="43.26862" lon="5.92398">
        <ele>352</ele>
        <time>2022-03-21T07:25:36Z</time>
      </trkpt>
      <trkpt lat="43.2683" lon="5.92561">
        <ele>337</ele>
        <time>2022-03-21T07:26:04Z</time>
      </trkpt>
      <trkpt lat="43.26807" lon="5.92637">
        <ele>340</ele>
        <time>2022-03-21T07:26:18Z</time>
      </trkpt>
      <trkpt lat="43.26806" lon="5.92667">
        <ele>339</ele>
        <time>2022-03-21T07:26:23Z</time>
      </trkpt>
      <trkpt lat="43.26803" lon="5.92682">
        <ele>338</ele>
        <time>2022-03-21T07:26:26Z</time>
      </trkpt>
      <trkpt lat="43.26771" lon="5.92737">
        <ele>338</ele>
        <time>2022-03-21T07:26:38Z</time>
      </trkpt>
      <trkpt lat="43.26751" lon="5.92792">
        <ele>335</ele>
        <time>2022-03-21T07:26:49Z</time>
      </trkpt>
      <trkpt lat="43.26749" lon="5.92805">
        <ele>334</ele>
        <time>2022-03-21T07:26:51Z</time>
      </trkpt>
      <trkpt lat="43.26754" lon="5.92863">
        <ele>334</ele>
        <time>2022-03-21T07:27:01Z</time>
      </trkpt>
      <trkpt lat="43.26758" lon="5.92877">
        <ele>334</ele>
        <time>2022-03-21T07:27:03Z</time>
      </trkpt>
      <trkpt lat="43.26764" lon="5.92888">
        <ele>335</ele>
        <time>2022-03-21T07:27:06Z</time>
      </trkpt>
      <trkpt lat="43.26774" lon="5.92895">
        <ele>336</ele>
        <time>2022-03-21T07:27:08Z</time>
      </trkpt>
      <trkpt lat="43.26785" lon="5.92901">
        <ele>338</ele>
        <time>2022-03-21T07:27:11Z</time>
      </trkpt>
      <trkpt lat="43.26794" lon="5.929">
        <ele>338</ele>
        <time>2022-03-21T07:27:13Z</time>
      </trkpt>
      <trkpt lat="43.26784" lon="5.92932">
        <ele>339</ele>
        <time>2022-03-21T07:27:19Z</time>
      </trkpt>
      <trkpt lat="43.2679" lon="5.92973">
        <ele>342</ele>
        <time>2022-03-21T07:27:26Z</time>
      </trkpt>
      <trkpt lat="43.26785" lon="5.92989">
        <ele>342</ele>
        <time>2022-03-21T07:27:29Z</time>
      </trkpt>
      <trkpt lat="43.2677" lon="5.9301">
        <ele>340</ele>
        <time>2022-03-21T07:27:34Z</time>
      </trkpt>
      <trkpt lat="43.26745" lon="5.93036">
        <ele>339</ele>
        <time>2022-03-21T07:27:41Z</time>
      </trkpt>
      <trkpt lat="43.26703" lon="5.93062">
        <ele>348</ele>
        <time>2022-03-21T07:27:52Z</time>
      </trkpt>
      <trkpt lat="43.26695" lon="5.93074">
        <ele>348</ele>
        <time>2022-03-21T07:27:55Z</time>
      </trkpt>
      <trkpt lat="43.26684" lon="5.93102">
        <ele>347</ele>
        <time>2022-03-21T07:28:00Z</time>
      </trkpt>
      <trkpt lat="43.26678" lon="5.9314">
        <ele>341</ele>
        <time>2022-03-21T07:28:07Z</time>
      </trkpt>
      <trkpt lat="43.2667" lon="5.93167">
        <ele>336</ele>
        <time>2022-03-21T07:28:12Z</time>
      </trkpt>
      <trkpt lat="43.26637" lon="5.93211">
        <ele>342</ele>
        <time>2022-03-21T07:28:23Z</time>
      </trkpt>
      <trkpt lat="43.26634" lon="5.93225">
        <ele>341</ele>
        <time>2022-03-21T07:28:25Z</time>
      </trkpt>
      <trkpt lat="43.26636" lon="5.93238">
        <ele>338</ele>
        <time>2022-03-21T07:28:27Z</time>
      </trkpt>
      <trkpt lat="43.26647" lon="5.93267">
        <ele>329</ele>
        <time>2022-03-21T07:28:33Z</time>
      </trkpt>
      <trkpt lat="43.26649" lon="5.93294">
        <ele>323</ele>
        <time>2022-03-21T07:28:38Z</time>
      </trkpt>
      <trkpt lat="43.26644" lon="5.93311">
        <ele>322</ele>
        <time>2022-03-21T07:28:41Z</time>
      </trkpt>
      <trkpt lat="43.26628" lon="5.93345">
        <ele>323</ele>
        <time>2022-03-21T07:28:48Z</time>
      </trkpt>
      <trkpt lat="43.26622" lon="5.93383">
        <ele>321</ele>
        <time>2022-03-21T07:28:54Z</time>
      </trkpt>
      <trkpt lat="43.26642" lon="5.93368">
        <ele>314</ele>
        <time>2022-03-21T07:29:00Z</time>
      </trkpt>
      <trkpt lat="43.26651" lon="5.93369">
        <ele>310</ele>
        <time>2022-03-21T07:29:02Z</time>
      </trkpt>
      <trkpt lat="43.26668" lon="5.93385">
        <ele>301</ele>
        <time>2022-03-21T07:29:06Z</time>
      </trkpt>
      <trkpt lat="43.26678" lon="5.9339">
        <ele>301</ele>
        <time>2022-03-21T07:29:09Z</time>
      </trkpt>
      <trkpt lat="43.2672" lon="5.93431">
        <ele>297</ele>
        <time>2022-03-21T07:29:21Z</time>
      </trkpt>
      <trkpt lat="43.26757" lon="5.93459">
        <ele>296</ele>
        <time>2022-03-21T07:29:31Z</time>
      </trkpt>
      <trkpt lat="43.26774" lon="5.9348">
        <ele>298</ele>
        <time>2022-03-21T07:29:36Z</time>
      </trkpt>
      <trkpt lat="43.26794" lon="5.93497">
        <ele>300</ele>
        <time>2022-03-21T07:29:42Z</time>
      </trkpt>
      <trkpt lat="43.26803" lon="5.93507">
        <ele>301</ele>
        <time>2022-03-21T07:29:44Z</time>
      </trkpt>
      <trkpt lat="43.26831" lon="5.93557">
        <ele>299</ele>
        <time>2022-03-21T07:29:55Z</time>
      </trkpt>
      <trkpt lat="43.2685" lon="5.93623">
        <ele>300</ele>
        <time>2022-03-21T07:30:07Z</time>
      </trkpt>
      <trkpt lat="43.26885" lon="5.937">
        <ele>302</ele>
        <time>2022-03-21T07:30:23Z</time>
      </trkpt>
      <trkpt lat="43.26889" lon="5.93714">
        <ele>302</ele>
        <time>2022-03-21T07:30:25Z</time>
      </trkpt>
      <trkpt lat="43.26892" lon="5.93745">
        <ele>301</ele>
        <time>2022-03-21T07:30:30Z</time>
      </trkpt>
      <trkpt lat="43.26903" lon="5.93776">
        <ele>297</ele>
        <time>2022-03-21T07:30:36Z</time>
      </trkpt>
      <trkpt lat="43.26906" lon="5.93794">
        <ele>295</ele>
        <time>2022-03-21T07:30:39Z</time>
      </trkpt>
      <trkpt lat="43.26908" lon="5.9381">
        <ele>293</ele>
        <time>2022-03-21T07:30:42Z</time>
      </trkpt>
      <trkpt lat="43.26906" lon="5.93865">
        <ele>287</ele>
        <time>2022-03-21T07:30:52Z</time>
      </trkpt>
      <trkpt lat="43.2689" lon="5.93918">
        <ele>284</ele>
        <time>2022-03-21T07:31:01Z</time>
      </trkpt>
      <trkpt lat="43.26888" lon="5.93949">
        <ele>282</ele>
        <time>2022-03-21T07:31:07Z</time>
      </trkpt>
      <trkpt lat="43.26908" lon="5.94032">
        <ele>270</ele>
        <time>2022-03-21T07:31:21Z</time>
      </trkpt>
      <trkpt lat="43.26908" lon="5.94049">
        <ele>269</ele>
        <time>2022-03-21T07:31:24Z</time>
      </trkpt>
      <trkpt lat="43.26902" lon="5.94063">
        <ele>270</ele>
        <time>2022-03-21T07:31:27Z</time>
      </trkpt>
      <trkpt lat="43.26899" lon="5.94078">
        <ele>270</ele>
        <time>2022-03-21T07:31:30Z</time>
      </trkpt>
      <trkpt lat="43.26916" lon="5.94114">
        <ele>265</ele>
        <time>2022-03-21T07:31:37Z</time>
      </trkpt>
      <trkpt lat="43.26903" lon="5.9411">
        <ele>268</ele>
        <time>2022-03-21T07:31:40Z</time>
      </trkpt>
      <trkpt lat="43.26903" lon="5.94126">
        <ele>268</ele>
        <time>2022-03-21T07:31:43Z</time>
      </trkpt>
      <trkpt lat="43.269" lon="5.94139">
        <ele>268</ele>
        <time>2022-03-21T07:31:45Z</time>
      </trkpt>
      <trkpt lat="43.26892" lon="5.94145">
        <ele>270</ele>
        <time>2022-03-21T07:31:47Z</time>
      </trkpt>
      <trkpt lat="43.26882" lon="5.94144">
        <ele>272</ele>
        <time>2022-03-21T07:31:50Z</time>
      </trkpt>
      <trkpt lat="43.26873" lon="5.94146">
        <ele>274</ele>
        <time>2022-03-21T07:31:52Z</time>
      </trkpt>
      <trkpt lat="43.26857" lon="5.94162">
        <ele>276</ele>
        <time>2022-03-21T07:31:56Z</time>
      </trkpt>
      <trkpt lat="43.26834" lon="5.94222">
        <ele>273</ele>
        <time>2022-03-21T07:32:08Z</time>
      </trkpt>
      <trkpt lat="43.26821" lon="5.94241">
        <ele>274</ele>
        <time>2022-03-21T07:32:12Z</time>
      </trkpt>
      <trkpt lat="43.2679" lon="5.94273">
        <ele>279</ele>
        <time>2022-03-21T07:32:21Z</time>
      </trkpt>
      <trkpt lat="43.26716" lon="5.94327">
        <ele>276</ele>
        <time>2022-03-21T07:32:41Z</time>
      </trkpt>
      <trkpt lat="43.26705" lon="5.94331">
        <ele>276</ele>
        <time>2022-03-21T07:32:44Z</time>
      </trkpt>
      <trkpt lat="43.26693" lon="5.9433">
        <ele>278</ele>
        <time>2022-03-21T07:32:47Z</time>
      </trkpt>
      <trkpt lat="43.26671" lon="5.94322">
        <ele>283</ele>
        <time>2022-03-21T07:32:52Z</time>
      </trkpt>
      <trkpt lat="43.2666" lon="5.94323">
        <ele>284</ele>
        <time>2022-03-21T07:32:54Z</time>
      </trkpt>
      <trkpt lat="43.26629" lon="5.94334">
        <ele>281</ele>
        <time>2022-03-21T07:33:02Z</time>
      </trkpt>
      <trkpt lat="43.2662" lon="5.94332">
        <ele>281</ele>
        <time>2022-03-21T07:33:04Z</time>
      </trkpt>
      <trkpt lat="43.26612" lon="5.94326">
        <ele>283</ele>
        <time>2022-03-21T07:33:06Z</time>
      </trkpt>
      <trkpt lat="43.26565" lon="5.9421">
        <ele>294</ele>
        <time>2022-03-21T07:33:29Z</time>
      </trkpt>
      <trkpt lat="43.26559" lon="5.94178">
        <ele>298</ele>
        <time>2022-03-21T07:33:34Z</time>
      </trkpt>
      <trkpt lat="43.26566" lon="5.94109">
        <ele>304</ele>
        <time>2022-03-21T07:33:46Z</time>
      </trkpt>
      <trkpt lat="43.26567" lon="5.94052">
        <ele>306</ele>
        <time>2022-03-21T07:33:56Z</time>
      </trkpt>
      <trkpt lat="43.26576" lon="5.94">
        <ele>306</ele>
        <time>2022-03-21T07:34:05Z</time>
      </trkpt>
      <trkpt lat="43.26581" lon="5.93954">
        <ele>304</ele>
        <time>2022-03-21T07:34:13Z</time>
      </trkpt>
      <trkpt lat="43.26576" lon="5.93886">
        <ele>306</ele>
        <time>2022-03-21T07:34:24Z</time>
      </trkpt>
      <trkpt lat="43.26579" lon="5.93874">
        <ele>306</ele>
        <time>2022-03-21T07:34:27Z</time>
      </trkpt>
      <trkpt lat="43.26592" lon="5.93857">
        <ele>307</ele>
        <time>2022-03-21T07:34:31Z</time>
      </trkpt>
      <trkpt lat="43.2663" lon="5.93831">
        <ele>308</ele>
        <time>2022-03-21T07:34:41Z</time>
      </trkpt>
      <trkpt lat="43.26648" lon="5.93815">
        <ele>310</ele>
        <time>2022-03-21T07:34:46Z</time>
      </trkpt>
      <trkpt lat="43.26664" lon="5.93796">
        <ele>311</ele>
        <time>2022-03-21T07:34:51Z</time>
      </trkpt>
      <trkpt lat="43.26669" lon="5.93782">
        <ele>312</ele>
        <time>2022-03-21T07:34:53Z</time>
      </trkpt>
      <trkpt lat="43.26674" lon="5.93724">
        <ele>317</ele>
        <time>2022-03-21T07:35:03Z</time>
      </trkpt>
      <trkpt lat="43.26673" lon="5.93695">
        <ele>318</ele>
        <time>2022-03-21T07:35:08Z</time>
      </trkpt>
      <trkpt lat="43.26666" lon="5.9365">
        <ele>320</ele>
        <time>2022-03-21T07:35:16Z</time>
      </trkpt>
      <trkpt lat="43.26661" lon="5.93639">
        <ele>322</ele>
        <time>2022-03-21T07:35:18Z</time>
      </trkpt>
      <trkpt lat="43.26651" lon="5.9364">
        <ele>324</ele>
        <time>2022-03-21T07:35:21Z</time>
      </trkpt>
      <trkpt lat="43.26646" lon="5.93652">
        <ele>325</ele>
        <time>2022-03-21T07:35:23Z</time>
      </trkpt>
      <trkpt lat="43.26641" lon="5.93696">
        <ele>323</ele>
        <time>2022-03-21T07:35:31Z</time>
      </trkpt>
      <trkpt lat="43.2663" lon="5.93739">
        <ele>322</ele>
        <time>2022-03-21T07:35:38Z</time>
      </trkpt>
      <trkpt lat="43.26623" lon="5.93751">
        <ele>322</ele>
        <time>2022-03-21T07:35:41Z</time>
      </trkpt>
      <trkpt lat="43.26615" lon="5.93759">
        <ele>321</ele>
        <time>2022-03-21T07:35:43Z</time>
      </trkpt>
      <trkpt lat="43.26606" lon="5.93766">
        <ele>321</ele>
        <time>2022-03-21T07:35:46Z</time>
      </trkpt>
      <trkpt lat="43.26596" lon="5.93767">
        <ele>322</ele>
        <time>2022-03-21T07:35:48Z</time>
      </trkpt>
      <trkpt lat="43.26587" lon="5.93764">
        <ele>324</ele>
        <time>2022-03-21T07:35:50Z</time>
      </trkpt>
      <trkpt lat="43.26579" lon="5.93757">
        <ele>327</ele>
        <time>2022-03-21T07:35:52Z</time>
      </trkpt>
      <trkpt lat="43.26573" lon="5.93745">
        <ele>331</ele>
        <time>2022-03-21T07:35:55Z</time>
      </trkpt>
      <trkpt lat="43.26563" lon="5.9369">
        <ele>342</ele>
        <time>2022-03-21T07:36:04Z</time>
      </trkpt>
      <trkpt lat="43.26542" lon="5.93661">
        <ele>352</ele>
        <time>2022-03-21T07:36:11Z</time>
      </trkpt>
      <trkpt lat="43.2653" lon="5.93625">
        <ele>357</ele>
        <time>2022-03-21T07:36:18Z</time>
      </trkpt>
      <trkpt lat="43.26514" lon="5.93519">
        <ele>366</ele>
        <time>2022-03-21T07:36:37Z</time>
      </trkpt>
      <trkpt lat="43.26517" lon="5.93493">
        <ele>366</ele>
        <time>2022-03-21T07:36:41Z</time>
      </trkpt>
      <trkpt lat="43.26508" lon="5.93496">
        <ele>370</ele>
        <time>2022-03-21T07:36:43Z</time>
      </trkpt>
      <trkpt lat="43.26495" lon="5.93515">
        <ele>374</ele>
        <time>2022-03-21T07:36:48Z</time>
      </trkpt>
      <trkpt lat="43.26492" lon="5.93529">
        <ele>374</ele>
        <time>2022-03-21T07:36:50Z</time>
      </trkpt>
      <trkpt lat="43.26494" lon="5.93542">
        <ele>372</ele>
        <time>2022-03-21T07:36:52Z</time>
      </trkpt>
      <trkpt lat="43.26486" lon="5.93548">
        <ele>375</ele>
        <time>2022-03-21T07:36:54Z</time>
      </trkpt>
      <trkpt lat="43.26479" lon="5.93537">
        <ele>377</ele>
        <time>2022-03-21T07:36:57Z</time>
      </trkpt>
      <trkpt lat="43.26476" lon="5.93525">
        <ele>379</ele>
        <time>2022-03-21T07:36:59Z</time>
      </trkpt>
      <trkpt lat="43.26469" lon="5.93534">
        <ele>381</ele>
        <time>2022-03-21T07:37:01Z</time>
      </trkpt>
      <trkpt lat="43.26466" lon="5.93546">
        <ele>381</ele>
        <time>2022-03-21T07:37:04Z</time>
      </trkpt>
      <trkpt lat="43.26457" lon="5.93541">
        <ele>384</ele>
        <time>2022-03-21T07:37:06Z</time>
      </trkpt>
      <trkpt lat="43.26454" lon="5.93529">
        <ele>385</ele>
        <time>2022-03-21T07:37:08Z</time>
      </trkpt>
      <trkpt lat="43.26445" lon="5.93534">
        <ele>388</ele>
        <time>2022-03-21T07:37:10Z</time>
      </trkpt>
      <trkpt lat="43.26439" lon="5.93543">
        <ele>390</ele>
        <time>2022-03-21T07:37:12Z</time>
      </trkpt>
      <trkpt lat="43.26433" lon="5.93532">
        <ele>392</ele>
        <time>2022-03-21T07:37:15Z</time>
      </trkpt>
      <trkpt lat="43.2643" lon="5.9352">
        <ele>393</ele>
        <time>2022-03-21T07:37:17Z</time>
      </trkpt>
      <trkpt lat="43.26422" lon="5.93528">
        <ele>395</ele>
        <time>2022-03-21T07:37:19Z</time>
      </trkpt>
      <trkpt lat="43.26417" lon="5.93539">
        <ele>397</ele>
        <time>2022-03-21T07:37:21Z</time>
      </trkpt>
      <trkpt lat="43.26401" lon="5.93525">
        <ele>397</ele>
        <time>2022-03-21T07:37:26Z</time>
      </trkpt>
      <trkpt lat="43.26386" lon="5.93543">
        <ele>397</ele>
        <time>2022-03-21T07:37:30Z</time>
      </trkpt>
      <trkpt lat="43.26358" lon="5.93548">
        <ele>398</ele>
        <time>2022-03-21T07:37:37Z</time>
      </trkpt>
      <trkpt lat="43.26359" lon="5.9355">
        <ele>398</ele>
        <time>2022-03-21T07:37:37Z</time>
      </trkpt>
      <trkpt lat="43.2635" lon="5.93559">
        <ele>399</ele>
        <time>2022-03-21T07:37:40Z</time>
      </trkpt>
      <trkpt lat="43.26336" lon="5.93656">
        <ele>405</ele>
        <time>2022-03-21T07:37:57Z</time>
      </trkpt>
      <trkpt lat="43.26328" lon="5.93682">
        <ele>406</ele>
        <time>2022-03-21T07:38:02Z</time>
      </trkpt>
      <trkpt lat="43.26333" lon="5.93735">
        <ele>408</ele>
        <time>2022-03-21T07:38:11Z</time>
      </trkpt>
      <trkpt lat="43.2634" lon="5.93762">
        <ele>407</ele>
        <time>2022-03-21T07:38:16Z</time>
      </trkpt>
      <trkpt lat="43.2635" lon="5.93788">
        <ele>404</ele>
        <time>2022-03-21T07:38:21Z</time>
      </trkpt>
      <trkpt lat="43.26342" lon="5.93797">
        <ele>406</ele>
        <time>2022-03-21T07:38:23Z</time>
      </trkpt>
      <trkpt lat="43.2632" lon="5.93839">
        <ele>409</ele>
        <time>2022-03-21T07:38:32Z</time>
      </trkpt>
      <trkpt lat="43.26312" lon="5.93849">
        <ele>410</ele>
        <time>2022-03-21T07:38:34Z</time>
      </trkpt>
      <trkpt lat="43.2629" lon="5.93875">
        <ele>413</ele>
        <time>2022-03-21T07:38:41Z</time>
      </trkpt>
      <trkpt lat="43.2626" lon="5.93892">
        <ele>420</ele>
        <time>2022-03-21T07:38:49Z</time>
      </trkpt>
      <trkpt lat="43.26238" lon="5.93921">
        <ele>424</ele>
        <time>2022-03-21T07:38:56Z</time>
      </trkpt>
      <trkpt lat="43.26239" lon="5.93949">
        <ele>424</ele>
        <time>2022-03-21T07:39:01Z</time>
      </trkpt>
      <trkpt lat="43.26223" lon="5.93984">
        <ele>426</ele>
        <time>2022-03-21T07:39:08Z</time>
      </trkpt>
      <trkpt lat="43.26211" lon="5.94022">
        <ele>427</ele>
        <time>2022-03-21T07:39:15Z</time>
      </trkpt>
      <trkpt lat="43.26206" lon="5.9408">
        <ele>426</ele>
        <time>2022-03-21T07:39:25Z</time>
      </trkpt>
      <trkpt lat="43.26198" lon="5.94105">
        <ele>428</ele>
        <time>2022-03-21T07:39:29Z</time>
      </trkpt>
      <trkpt lat="43.26184" lon="5.94123">
        <ele>431</ele>
        <time>2022-03-21T07:39:34Z</time>
      </trkpt>
      <trkpt lat="43.2618" lon="5.94134">
        <ele>432</ele>
        <time>2022-03-21T07:39:36Z</time>
      </trkpt>
      <trkpt lat="43.26175" lon="5.94175">
        <ele>434</ele>
        <time>2022-03-21T07:39:43Z</time>
      </trkpt>
      <trkpt lat="43.26169" lon="5.94201">
        <ele>435</ele>
        <time>2022-03-21T07:39:47Z</time>
      </trkpt>
      <trkpt lat="43.26155" lon="5.94221">
        <ele>437</ele>
        <time>2022-03-21T07:39:52Z</time>
      </trkpt>
      <trkpt lat="43.26144" lon="5.94246">
        <ele>437</ele>
        <time>2022-03-21T07:39:57Z</time>
      </trkpt>
      <trkpt lat="43.26141" lon="5.9426">
        <ele>437</ele>
        <time>2022-03-21T07:40:00Z</time>
      </trkpt>
      <trkpt lat="43.26138" lon="5.94301">
        <ele>437</ele>
        <time>2022-03-21T07:40:07Z</time>
      </trkpt>
      <trkpt lat="43.26133" lon="5.94312">
        <ele>437</ele>
        <time>2022-03-21T07:40:09Z</time>
      </trkpt>
      <trkpt lat="43.26142" lon="5.94358">
        <ele>435</ele>
        <time>2022-03-21T07:40:17Z</time>
      </trkpt>
      <trkpt lat="43.26141" lon="5.94404">
        <ele>434</ele>
        <time>2022-03-21T07:40:25Z</time>
      </trkpt>
      <trkpt lat="43.26115" lon="5.9443">
        <ele>434</ele>
        <time>2022-03-21T07:40:32Z</time>
      </trkpt>
      <trkpt lat="43.26093" lon="5.94441">
        <ele>435</ele>
        <time>2022-03-21T07:40:38Z</time>
      </trkpt>
      <trkpt lat="43.26084" lon="5.94449">
        <ele>434</ele>
        <time>2022-03-21T07:40:40Z</time>
      </trkpt>
      <trkpt lat="43.26076" lon="5.94461">
        <ele>434</ele>
        <time>2022-03-21T07:40:43Z</time>
      </trkpt>
      <trkpt lat="43.2607" lon="5.94476">
        <ele>433</ele>
        <time>2022-03-21T07:40:46Z</time>
      </trkpt>
      <trkpt lat="43.26084" lon="5.94527">
        <ele>428</ele>
        <time>2022-03-21T07:40:55Z</time>
      </trkpt>
      <trkpt lat="43.2608" lon="5.94557">
        <ele>427</ele>
        <time>2022-03-21T07:41:00Z</time>
      </trkpt>
      <trkpt lat="43.26065" lon="5.94588">
        <ele>427</ele>
        <time>2022-03-21T07:41:07Z</time>
      </trkpt>
      <trkpt lat="43.26063" lon="5.94617">
        <ele>426</ele>
        <time>2022-03-21T07:41:12Z</time>
      </trkpt>
      <trkpt lat="43.26059" lon="5.94632">
        <ele>426</ele>
        <time>2022-03-21T07:41:14Z</time>
      </trkpt>
      <trkpt lat="43.26053" lon="5.9468">
        <ele>423</ele>
        <time>2022-03-21T07:41:23Z</time>
      </trkpt>
      <trkpt lat="43.26042" lon="5.94718">
        <ele>419</ele>
        <time>2022-03-21T07:41:30Z</time>
      </trkpt>
      <trkpt lat="43.26029" lon="5.9474">
        <ele>418</ele>
        <time>2022-03-21T07:41:34Z</time>
      </trkpt>
      <trkpt lat="43.26002" lon="5.94772">
        <ele>416</ele>
        <time>2022-03-21T07:41:43Z</time>
      </trkpt>
      <trkpt lat="43.25981" lon="5.94789">
        <ele>417</ele>
        <time>2022-03-21T07:41:48Z</time>
      </trkpt>
      <trkpt lat="43.25964" lon="5.94797">
        <ele>419</ele>
        <time>2022-03-21T07:41:53Z</time>
      </trkpt>
      <trkpt lat="43.25957" lon="5.94808">
        <ele>418</ele>
        <time>2022-03-21T07:41:55Z</time>
      </trkpt>
      <trkpt lat="43.25939" lon="5.94862">
        <ele>411</ele>
        <time>2022-03-21T07:42:05Z</time>
      </trkpt>
      <trkpt lat="43.25923" lon="5.94885">
        <ele>411</ele>
        <time>2022-03-21T07:42:11Z</time>
      </trkpt>
      <trkpt lat="43.25921" lon="5.94898">
        <ele>409</ele>
        <time>2022-03-21T07:42:13Z</time>
      </trkpt>
      <trkpt lat="43.25915" lon="5.9491">
        <ele>408</ele>
        <time>2022-03-21T07:42:15Z</time>
      </trkpt>
      <trkpt lat="43.25908" lon="5.94918">
        <ele>409</ele>
        <time>2022-03-21T07:42:18Z</time>
      </trkpt>
      <trkpt lat="43.25898" lon="5.94941">
        <ele>409</ele>
        <time>2022-03-21T07:42:22Z</time>
      </trkpt>
      <trkpt lat="43.25894" lon="5.94953">
        <ele>408</ele>
        <time>2022-03-21T07:42:24Z</time>
      </trkpt>
      <trkpt lat="43.2589" lon="5.95002">
        <ele>404</ele>
        <time>2022-03-21T07:42:33Z</time>
      </trkpt>
      <trkpt lat="43.25878" lon="5.95024">
        <ele>403</ele>
        <time>2022-03-21T07:42:37Z</time>
      </trkpt>
      <trkpt lat="43.25867" lon="5.95028">
        <ele>403</ele>
        <time>2022-03-21T07:42:40Z</time>
      </trkpt>
      <trkpt lat="43.25849" lon="5.95043">
        <ele>404</ele>
        <time>2022-03-21T07:42:45Z</time>
      </trkpt>
      <trkpt lat="43.25839" lon="5.95066">
        <ele>402</ele>
        <time>2022-03-21T07:42:50Z</time>
      </trkpt>
      <trkpt lat="43.25845" lon="5.95081">
        <ele>400</ele>
        <time>2022-03-21T07:42:52Z</time>
      </trkpt>
      <trkpt lat="43.25865" lon="5.95098">
        <ele>396</ele>
        <time>2022-03-21T07:42:58Z</time>
      </trkpt>
      <trkpt lat="43.25873" lon="5.95111">
        <ele>395</ele>
        <time>2022-03-21T07:43:01Z</time>
      </trkpt>
      <trkpt lat="43.25875" lon="5.95124">
        <ele>394</ele>
        <time>2022-03-21T07:43:03Z</time>
      </trkpt>
      <trkpt lat="43.25871" lon="5.95137">
        <ele>394</ele>
        <time>2022-03-21T07:43:05Z</time>
      </trkpt>
      <trkpt lat="43.2588" lon="5.95145">
        <ele>392</ele>
        <time>2022-03-21T07:43:08Z</time>
      </trkpt>
      <trkpt lat="43.2589" lon="5.95148">
        <ele>390</ele>
        <time>2022-03-21T07:43:10Z</time>
      </trkpt>
      <trkpt lat="43.25904" lon="5.95166">
        <ele>387</ele>
        <time>2022-03-21T07:43:15Z</time>
      </trkpt>
      <trkpt lat="43.25914" lon="5.95223">
        <ele>391</ele>
        <time>2022-03-21T07:43:25Z</time>
      </trkpt>
      <trkpt lat="43.25914" lon="5.95253">
        <ele>394</ele>
        <time>2022-03-21T07:43:30Z</time>
      </trkpt>
      <trkpt lat="43.25907" lon="5.95281">
        <ele>394</ele>
        <time>2022-03-21T07:43:35Z</time>
      </trkpt>
      <trkpt lat="43.25907" lon="5.95312">
        <ele>394</ele>
        <time>2022-03-21T07:43:40Z</time>
      </trkpt>
      <trkpt lat="43.25918" lon="5.95364">
        <ele>390</ele>
        <time>2022-03-21T07:43:49Z</time>
      </trkpt>
      <trkpt lat="43.25918" lon="5.95403">
        <ele>388</ele>
        <time>2022-03-21T07:43:56Z</time>
      </trkpt>
      <trkpt lat="43.25913" lon="5.9543">
        <ele>386</ele>
        <time>2022-03-21T07:44:01Z</time>
      </trkpt>
      <trkpt lat="43.25892" lon="5.95463">
        <ele>384</ele>
        <time>2022-03-21T07:44:08Z</time>
      </trkpt>
      <trkpt lat="43.25895" lon="5.9548">
        <ele>382</ele>
        <time>2022-03-21T07:44:11Z</time>
      </trkpt>
      <trkpt lat="43.25894" lon="5.95514">
        <ele>378</ele>
        <time>2022-03-21T07:44:17Z</time>
      </trkpt>
      <trkpt lat="43.25897" lon="5.9553">
        <ele>376</ele>
        <time>2022-03-21T07:44:20Z</time>
      </trkpt>
      <trkpt lat="43.25895" lon="5.95544">
        <ele>375</ele>
        <time>2022-03-21T07:44:22Z</time>
      </trkpt>
      <trkpt lat="43.25881" lon="5.95566">
        <ele>374</ele>
        <time>2022-03-21T07:44:27Z</time>
      </trkpt>
      <trkpt lat="43.25873" lon="5.95574">
        <ele>374</ele>
        <time>2022-03-21T07:44:30Z</time>
      </trkpt>
      <trkpt lat="43.25839" lon="5.95585">
        <ele>375</ele>
        <time>2022-03-21T07:44:38Z</time>
      </trkpt>
      <trkpt lat="43.25831" lon="5.95593">
        <ele>375</ele>
        <time>2022-03-21T07:44:40Z</time>
      </trkpt>
      <trkpt lat="43.25826" lon="5.95605">
        <ele>375</ele>
        <time>2022-03-21T07:44:42Z</time>
      </trkpt>
      <trkpt lat="43.25816" lon="5.95614">
        <ele>375</ele>
        <time>2022-03-21T07:44:45Z</time>
      </trkpt>
      <trkpt lat="43.25777" lon="5.95631">
        <ele>381</ele>
        <time>2022-03-21T07:44:55Z</time>
      </trkpt>
      <trkpt lat="43.25763" lon="5.95649">
        <ele>382</ele>
        <time>2022-03-21T07:44:59Z</time>
      </trkpt>
      <trkpt lat="43.25751" lon="5.95689">
        <ele>381</ele>
        <time>2022-03-21T07:45:07Z</time>
      </trkpt>
      <trkpt lat="43.25744" lon="5.957">
        <ele>382</ele>
        <time>2022-03-21T07:45:09Z</time>
      </trkpt>
      <trkpt lat="43.25743" lon="5.95726">
        <ele>381</ele>
        <time>2022-03-21T07:45:13Z</time>
      </trkpt>
      <trkpt lat="43.25733" lon="5.95753">
        <ele>382</ele>
        <time>2022-03-21T07:45:19Z</time>
      </trkpt>
      <trkpt lat="43.25711" lon="5.95783">
        <ele>384</ele>
        <time>2022-03-21T07:45:26Z</time>
      </trkpt>
      <trkpt lat="43.25684" lon="5.95804">
        <ele>388</ele>
        <time>2022-03-21T07:45:33Z</time>
      </trkpt>
      <trkpt lat="43.2568" lon="5.95817">
        <ele>387</ele>
        <time>2022-03-21T07:45:36Z</time>
      </trkpt>
      <trkpt lat="43.25678" lon="5.95846">
        <ele>385</ele>
        <time>2022-03-21T07:45:40Z</time>
      </trkpt>
      <trkpt lat="43.25673" lon="5.95862">
        <ele>385</ele>
        <time>2022-03-21T07:45:43Z</time>
      </trkpt>
      <trkpt lat="43.25667" lon="5.95873">
        <ele>386</ele>
        <time>2022-03-21T07:45:46Z</time>
      </trkpt>
      <trkpt lat="43.25652" lon="5.95889">
        <ele>386</ele>
        <time>2022-03-21T07:45:50Z</time>
      </trkpt>
      <trkpt lat="43.25649" lon="5.95901">
        <ele>385</ele>
        <time>2022-03-21T07:45:52Z</time>
      </trkpt>
      <trkpt lat="43.25657" lon="5.95929">
        <ele>383</ele>
        <time>2022-03-21T07:45:57Z</time>
      </trkpt>
      <trkpt lat="43.2565" lon="5.95944">
        <ele>383</ele>
        <time>2022-03-21T07:46:01Z</time>
      </trkpt>
      <trkpt lat="43.25627" lon="5.95957">
        <ele>383</ele>
        <time>2022-03-21T07:46:06Z</time>
      </trkpt>
      <trkpt lat="43.256" lon="5.95959">
        <ele>384</ele>
        <time>2022-03-21T07:46:13Z</time>
      </trkpt>
      <trkpt lat="43.25591" lon="5.95962">
        <ele>384</ele>
        <time>2022-03-21T07:46:15Z</time>
      </trkpt>
      <trkpt lat="43.25566" lon="5.95995">
        <ele>382</ele>
        <time>2022-03-21T07:46:23Z</time>
      </trkpt>
      <trkpt lat="43.25561" lon="5.96015">
        <ele>381</ele>
        <time>2022-03-21T07:46:26Z</time>
      </trkpt>
      <trkpt lat="43.25563" lon="5.96013">
        <ele>381</ele>
        <time>2022-03-21T07:46:27Z</time>
      </trkpt>
      <trkpt lat="43.25562" lon="5.96016">
        <ele>381</ele>
        <time>2022-03-21T07:46:28Z</time>
      </trkpt>
      <trkpt lat="43.25573" lon="5.96056">
        <ele>376</ele>
        <time>2022-03-21T07:46:35Z</time>
      </trkpt>
      <trkpt lat="43.25571" lon="5.96069">
        <ele>375</ele>
        <time>2022-03-21T07:46:37Z</time>
      </trkpt>
      <trkpt lat="43.25565" lon="5.96078">
        <ele>374</ele>
        <time>2022-03-21T07:46:39Z</time>
      </trkpt>
      <trkpt lat="43.25553" lon="5.96085">
        <ele>374</ele>
        <time>2022-03-21T07:46:42Z</time>
      </trkpt>
      <trkpt lat="43.25545" lon="5.96094">
        <ele>373</ele>
        <time>2022-03-21T07:46:45Z</time>
      </trkpt>
      <trkpt lat="43.25515" lon="5.96137">
        <ele>365</ele>
        <time>2022-03-21T07:46:55Z</time>
      </trkpt>
      <trkpt lat="43.25495" lon="5.96155">
        <ele>363</ele>
        <time>2022-03-21T07:47:00Z</time>
      </trkpt>
      <trkpt lat="43.25484" lon="5.96211">
        <ele>360</ele>
        <time>2022-03-21T07:47:10Z</time>
      </trkpt>
      <trkpt lat="43.25483" lon="5.96223">
        <ele>359</ele>
        <time>2022-03-21T07:47:12Z</time>
      </trkpt>
      <trkpt lat="43.25498" lon="5.96264">
        <ele>349</ele>
        <time>2022-03-21T07:47:20Z</time>
      </trkpt>
      <trkpt lat="43.25501" lon="5.96278">
        <ele>347</ele>
        <time>2022-03-21T07:47:23Z</time>
      </trkpt>
      <trkpt lat="43.25506" lon="5.96347">
        <ele>342</ele>
        <time>2022-03-21T07:47:34Z</time>
      </trkpt>
      <trkpt lat="43.25517" lon="5.96413">
        <ele>336</ele>
        <time>2022-03-21T07:47:46Z</time>
      </trkpt>
      <trkpt lat="43.25523" lon="5.96425">
        <ele>334</ele>
        <time>2022-03-21T07:47:48Z</time>
      </trkpt>
      <trkpt lat="43.25525" lon="5.96453">
        <ele>332</ele>
        <time>2022-03-21T07:47:53Z</time>
      </trkpt>
      <trkpt lat="43.25531" lon="5.96482">
        <ele>329</ele>
        <time>2022-03-21T07:47:58Z</time>
      </trkpt>
      <trkpt lat="43.25543" lon="5.96522">
        <ele>327</ele>
        <time>2022-03-21T07:48:06Z</time>
      </trkpt>
      <trkpt lat="43.25555" lon="5.96524">
        <ele>326</ele>
        <time>2022-03-21T07:48:08Z</time>
      </trkpt>
      <trkpt lat="43.25584" lon="5.96503">
        <ele>321</ele>
        <time>2022-03-21T07:48:16Z</time>
      </trkpt>
      <trkpt lat="43.25613" lon="5.96476">
        <ele>316</ele>
        <time>2022-03-21T07:48:24Z</time>
      </trkpt>
      <trkpt lat="43.25635" lon="5.96447">
        <ele>313</ele>
        <time>2022-03-21T07:48:31Z</time>
      </trkpt>
      <trkpt lat="43.2566" lon="5.96427">
        <ele>310</ele>
        <time>2022-03-21T07:48:38Z</time>
      </trkpt>
      <trkpt lat="43.25671" lon="5.96428">
        <ele>308</ele>
        <time>2022-03-21T07:48:41Z</time>
      </trkpt>
      <trkpt lat="43.25724" lon="5.96479">
        <ele>304</ele>
        <time>2022-03-21T07:48:56Z</time>
      </trkpt>
      <trkpt lat="43.25745" lon="5.96492">
        <ele>303</ele>
        <time>2022-03-21T07:49:01Z</time>
      </trkpt>
      <trkpt lat="43.25753" lon="5.96502">
        <ele>302</ele>
        <time>2022-03-21T07:49:04Z</time>
      </trkpt>
      <trkpt lat="43.25773" lon="5.96562">
        <ele>303</ele>
        <time>2022-03-21T07:49:15Z</time>
      </trkpt>
      <trkpt lat="43.25788" lon="5.96593">
        <ele>302</ele>
        <time>2022-03-21T07:49:21Z</time>
      </trkpt>
      <trkpt lat="43.25821" lon="5.96644">
        <ele>302</ele>
        <time>2022-03-21T07:49:33Z</time>
      </trkpt>
      <trkpt lat="43.25874" lon="5.96709">
        <ele>304</ele>
        <time>2022-03-21T07:49:50Z</time>
      </trkpt>
      <trkpt lat="43.25891" lon="5.96737">
        <ele>304</ele>
        <time>2022-03-21T07:49:56Z</time>
      </trkpt>
      <trkpt lat="43.25919" lon="5.96794">
        <ele>305</ele>
        <time>2022-03-21T07:50:07Z</time>
      </trkpt>
      <trkpt lat="43.2595" lon="5.96833">
        <ele>300</ele>
        <time>2022-03-21T07:50:17Z</time>
      </trkpt>
      <trkpt lat="43.25999" lon="5.96933">
        <ele>296</ele>
        <time>2022-03-21T07:50:38Z</time>
      </trkpt>
      <trkpt lat="43.26002" lon="5.96944">
        <ele>297</ele>
        <time>2022-03-21T07:50:40Z</time>
      </trkpt>
      <trkpt lat="43.2601" lon="5.96951">
        <ele>298</ele>
        <time>2022-03-21T07:50:42Z</time>
      </trkpt>
      <trkpt lat="43.26094" lon="5.9712">
        <ele>313</ele>
        <time>2022-03-21T07:51:17Z</time>
      </trkpt>
      <trkpt lat="43.26115" lon="5.97152">
        <ele>315</ele>
        <time>2022-03-21T07:51:24Z</time>
      </trkpt>
      <trkpt lat="43.26134" lon="5.97168">
        <ele>313</ele>
        <time>2022-03-21T07:51:29Z</time>
      </trkpt>
      <trkpt lat="43.26144" lon="5.97171">
        <ele>311</ele>
        <time>2022-03-21T07:51:32Z</time>
      </trkpt>
      <trkpt lat="43.26156" lon="5.97154">
        <ele>307</ele>
        <time>2022-03-21T07:51:36Z</time>
      </trkpt>
      <trkpt lat="43.26177" lon="5.97141">
        <ele>302</ele>
        <time>2022-03-21T07:51:41Z</time>
      </trkpt>
      <trkpt lat="43.26185" lon="5.97132">
        <ele>300</ele>
        <time>2022-03-21T07:51:44Z</time>
      </trkpt>
      <trkpt lat="43.26192" lon="5.97119">
        <ele>298</ele>
        <time>2022-03-21T07:51:46Z</time>
      </trkpt>
      <trkpt lat="43.26196" lon="5.97103">
        <ele>298</ele>
        <time>2022-03-21T07:51:49Z</time>
      </trkpt>
      <trkpt lat="43.26187" lon="5.97039">
        <ele>303</ele>
        <time>2022-03-21T07:52:00Z</time>
      </trkpt>
      <trkpt lat="43.2619" lon="5.97024">
        <ele>303</ele>
        <time>2022-03-21T07:52:03Z</time>
      </trkpt>
      <trkpt lat="43.26206" lon="5.96968">
        <ele>303</ele>
        <time>2022-03-21T07:52:13Z</time>
      </trkpt>
      <trkpt lat="43.26229" lon="5.969">
        <ele>302</ele>
        <time>2022-03-21T07:52:26Z</time>
      </trkpt>
      <trkpt lat="43.26244" lon="5.96868">
        <ele>302</ele>
        <time>2022-03-21T07:52:32Z</time>
      </trkpt>
      <trkpt lat="43.26253" lon="5.96869">
        <ele>301</ele>
        <time>2022-03-21T07:52:34Z</time>
      </trkpt>
      <trkpt lat="43.26249" lon="5.96885">
        <ele>300</ele>
        <time>2022-03-21T07:52:37Z</time>
      </trkpt>
      <trkpt lat="43.26261" lon="5.96911">
        <ele>300</ele>
        <time>2022-03-21T07:52:43Z</time>
      </trkpt>
      <trkpt lat="43.2626" lon="5.96925">
        <ele>299</ele>
        <time>2022-03-21T07:52:45Z</time>
      </trkpt>
      <trkpt lat="43.26254" lon="5.96939">
        <ele>298</ele>
        <time>2022-03-21T07:52:48Z</time>
      </trkpt>
      <trkpt lat="43.26246" lon="5.9695">
        <ele>297</ele>
        <time>2022-03-21T07:52:50Z</time>
      </trkpt>
      <trkpt lat="43.26242" lon="5.96964">
        <ele>298</ele>
        <time>2022-03-21T07:52:53Z</time>
      </trkpt>
      <trkpt lat="43.26242" lon="5.96997">
        <ele>296</ele>
        <time>2022-03-21T07:52:59Z</time>
      </trkpt>
      <trkpt lat="43.26239" lon="5.97015">
        <ele>295</ele>
        <time>2022-03-21T07:53:02Z</time>
      </trkpt>
      <trkpt lat="43.26238" lon="5.97046">
        <ele>293</ele>
        <time>2022-03-21T07:53:07Z</time>
      </trkpt>
      <trkpt lat="43.26266" lon="5.97099">
        <ele>284</ele>
        <time>2022-03-21T07:53:18Z</time>
      </trkpt>
      <trkpt lat="43.26278" lon="5.97109">
        <ele>281</ele>
        <time>2022-03-21T07:53:21Z</time>
      </trkpt>
      <trkpt lat="43.26288" lon="5.97112">
        <ele>279</ele>
        <time>2022-03-21T07:53:24Z</time>
      </trkpt>
      <trkpt lat="43.26308" lon="5.97114">
        <ele>276</ele>
        <time>2022-03-21T07:53:28Z</time>
      </trkpt>
      <trkpt lat="43.26342" lon="5.97112">
        <ele>274</ele>
        <time>2022-03-21T07:53:36Z</time>
      </trkpt>
      <trkpt lat="43.26353" lon="5.97114">
        <ele>273</ele>
        <time>2022-03-21T07:53:39Z</time>
      </trkpt>
      <trkpt lat="43.26365" lon="5.97111">
        <ele>273</ele>
        <time>2022-03-21T07:53:42Z</time>
      </trkpt>
      <trkpt lat="43.26381" lon="5.971">
        <ele>276</ele>
        <time>2022-03-21T07:53:46Z</time>
      </trkpt>
      <trkpt lat="43.26394" lon="5.97095">
        <ele>277</ele>
        <time>2022-03-21T07:53:49Z</time>
      </trkpt>
      <trkpt lat="43.26427" lon="5.97093">
        <ele>275</ele>
        <time>2022-03-21T07:53:57Z</time>
      </trkpt>
      <trkpt lat="43.26439" lon="5.971">
        <ele>272</ele>
        <time>2022-03-21T07:54:00Z</time>
      </trkpt>
      <trkpt lat="43.26459" lon="5.97139">
        <ele>266</ele>
        <time>2022-03-21T07:54:08Z</time>
      </trkpt>
      <trkpt lat="43.26468" lon="5.97149">
        <ele>266</ele>
        <time>2022-03-21T07:54:11Z</time>
      </trkpt>
      <trkpt lat="43.26474" lon="5.97162">
        <ele>267</ele>
        <time>2022-03-21T07:54:13Z</time>
      </trkpt>
      <trkpt lat="43.26475" lon="5.97178">
        <ele>267</ele>
        <time>2022-03-21T07:54:16Z</time>
      </trkpt>
      <trkpt lat="43.26472" lon="5.97193">
        <ele>266</ele>
        <time>2022-03-21T07:54:19Z</time>
      </trkpt>
      <trkpt lat="43.26457" lon="5.97231">
        <ele>261</ele>
        <time>2022-03-21T07:54:26Z</time>
      </trkpt>
      <trkpt lat="43.26453" lon="5.97248">
        <ele>259</ele>
        <time>2022-03-21T07:54:29Z</time>
      </trkpt>
      <trkpt lat="43.26451" lon="5.97299">
        <ele>255</ele>
        <time>2022-03-21T07:54:38Z</time>
      </trkpt>
      <trkpt lat="43.26455" lon="5.97331">
        <ele>254</ele>
        <time>2022-03-21T07:54:43Z</time>
      </trkpt>
      <trkpt lat="43.26461" lon="5.97345">
        <ele>253</ele>
        <time>2022-03-21T07:54:46Z</time>
      </trkpt>
      <trkpt lat="43.26469" lon="5.97376">
        <ele>249</ele>
        <time>2022-03-21T07:54:52Z</time>
      </trkpt>
      <trkpt lat="43.26474" lon="5.97387">
        <ele>247</ele>
        <time>2022-03-21T07:54:54Z</time>
      </trkpt>
      <trkpt lat="43.26483" lon="5.97397">
        <ele>246</ele>
        <time>2022-03-21T07:54:57Z</time>
      </trkpt>
      <trkpt lat="43.26507" lon="5.97397">
        <ele>248</ele>
        <time>2022-03-21T07:55:02Z</time>
      </trkpt>
      <trkpt lat="43.26541" lon="5.97387">
        <ele>245</ele>
        <time>2022-03-21T07:55:10Z</time>
      </trkpt>
      <trkpt lat="43.26553" lon="5.9738">
        <ele>245</ele>
        <time>2022-03-21T07:55:13Z</time>
      </trkpt>
      <trkpt lat="43.26563" lon="5.97371">
        <ele>245</ele>
        <time>2022-03-21T07:55:16Z</time>
      </trkpt>
      <trkpt lat="43.26569" lon="5.9736">
        <ele>245</ele>
        <time>2022-03-21T07:55:18Z</time>
      </trkpt>
      <trkpt lat="43.26574" lon="5.97347">
        <ele>246</ele>
        <time>2022-03-21T07:55:21Z</time>
      </trkpt>
      <trkpt lat="43.26576" lon="5.9733">
        <ele>248</ele>
        <time>2022-03-21T07:55:24Z</time>
      </trkpt>
      <trkpt lat="43.26574" lon="5.97251">
        <ele>245</ele>
        <time>2022-03-21T07:55:37Z</time>
      </trkpt>
      <trkpt lat="43.26558" lon="5.97172">
        <ele>244</ele>
        <time>2022-03-21T07:55:51Z</time>
      </trkpt>
      <trkpt lat="43.26558" lon="5.97118">
        <ele>241</ele>
        <time>2022-03-21T07:56:00Z</time>
      </trkpt>
      <trkpt lat="43.26544" lon="5.97093">
        <ele>244</ele>
        <time>2022-03-21T07:56:06Z</time>
      </trkpt>
      <trkpt lat="43.2654" lon="5.97079">
        <ele>245</ele>
        <time>2022-03-21T07:56:08Z</time>
      </trkpt>
      <trkpt lat="43.26508" lon="5.97023">
        <ele>250</ele>
        <time>2022-03-21T07:56:20Z</time>
      </trkpt>
      <trkpt lat="43.26502" lon="5.96995">
        <ele>249</ele>
        <time>2022-03-21T07:56:25Z</time>
      </trkpt>
      <trkpt lat="43.26501" lon="5.96981">
        <ele>249</ele>
        <time>2022-03-21T07:56:28Z</time>
      </trkpt>
      <trkpt lat="43.26515" lon="5.9694">
        <ele>245</ele>
        <time>2022-03-21T07:56:36Z</time>
      </trkpt>
      <trkpt lat="43.26522" lon="5.96926">
        <ele>244</ele>
        <time>2022-03-21T07:56:38Z</time>
      </trkpt>
      <trkpt lat="43.26538" lon="5.96905">
        <ele>241</ele>
        <time>2022-03-21T07:56:44Z</time>
      </trkpt>
      <trkpt lat="43.26542" lon="5.96892">
        <ele>240</ele>
        <time>2022-03-21T07:56:46Z</time>
      </trkpt>
      <trkpt lat="43.26543" lon="5.96878">
        <ele>239</ele>
        <time>2022-03-21T07:56:48Z</time>
      </trkpt>
      <trkpt lat="43.2654" lon="5.96863">
        <ele>240</ele>
        <time>2022-03-21T07:56:51Z</time>
      </trkpt>
      <trkpt lat="43.26503" lon="5.96806">
        <ele>242</ele>
        <time>2022-03-21T07:57:04Z</time>
      </trkpt>
      <trkpt lat="43.26492" lon="5.96764">
        <ele>241</ele>
        <time>2022-03-21T07:57:12Z</time>
      </trkpt>
      <trkpt lat="43.26486" lon="5.96754">
        <ele>242</ele>
        <time>2022-03-21T07:57:14Z</time>
      </trkpt>
      <trkpt lat="43.26469" lon="5.96733">
        <ele>246</ele>
        <time>2022-03-21T07:57:19Z</time>
      </trkpt>
      <trkpt lat="43.26443" lon="5.9671">
        <ele>250</ele>
        <time>2022-03-21T07:57:26Z</time>
      </trkpt>
      <trkpt lat="43.26442" lon="5.967">
        <ele>249</ele>
        <time>2022-03-21T07:57:28Z</time>
      </trkpt>
      <trkpt lat="43.26437" lon="5.96698">
        <ele>250</ele>
        <time>2022-03-21T07:57:29Z</time>
      </trkpt>
      <trkpt lat="43.26428" lon="5.96701">
        <ele>252</ele>
        <time>2022-03-21T07:57:31Z</time>
      </trkpt>
      <trkpt lat="43.2642" lon="5.96691">
        <ele>252</ele>
        <time>2022-03-21T07:57:34Z</time>
      </trkpt>
      <trkpt lat="43.26423" lon="5.96671">
        <ele>248</ele>
        <time>2022-03-21T07:57:37Z</time>
      </trkpt>
      <trkpt lat="43.26429" lon="5.96659">
        <ele>247</ele>
        <time>2022-03-21T07:57:40Z</time>
      </trkpt>
      <trkpt lat="43.26433" lon="5.96643">
        <ele>247</ele>
        <time>2022-03-21T07:57:43Z</time>
      </trkpt>
      <trkpt lat="43.26435" lon="5.96614">
        <ele>248</ele>
        <time>2022-03-21T07:57:48Z</time>
      </trkpt>
      <trkpt lat="43.26449" lon="5.96549">
        <ele>246</ele>
        <time>2022-03-21T07:57:59Z</time>
      </trkpt>
      <trkpt lat="43.26452" lon="5.96521">
        <ele>246</ele>
        <time>2022-03-21T07:58:04Z</time>
      </trkpt>
      <trkpt lat="43.26452" lon="5.96503">
        <ele>246</ele>
        <time>2022-03-21T07:58:07Z</time>
      </trkpt>
      <trkpt lat="43.26449" lon="5.96488">
        <ele>246</ele>
        <time>2022-03-21T07:58:10Z</time>
      </trkpt>
      <trkpt lat="43.2644" lon="5.96479">
        <ele>245</ele>
        <time>2022-03-21T07:58:12Z</time>
      </trkpt>
      <trkpt lat="43.26422" lon="5.9647">
        <ele>243</ele>
        <time>2022-03-21T07:58:17Z</time>
      </trkpt>
      <trkpt lat="43.26402" lon="5.96466">
        <ele>245</ele>
        <time>2022-03-21T07:58:22Z</time>
      </trkpt>
      <trkpt lat="43.26374" lon="5.96447">
        <ele>247</ele>
        <time>2022-03-21T07:58:29Z</time>
      </trkpt>
      <trkpt lat="43.26354" lon="5.96424">
        <ele>245</ele>
        <time>2022-03-21T07:58:35Z</time>
      </trkpt>
      <trkpt lat="43.26343" lon="5.964">
        <ele>243</ele>
        <time>2022-03-21T07:58:40Z</time>
      </trkpt>
      <trkpt lat="43.26328" lon="5.9638">
        <ele>241</ele>
        <time>2022-03-21T07:58:45Z</time>
      </trkpt>
      <trkpt lat="43.26325" lon="5.96368">
        <ele>241</ele>
        <time>2022-03-21T07:58:47Z</time>
      </trkpt>
      <trkpt lat="43.26315" lon="5.96353">
        <ele>241</ele>
        <time>2022-03-21T07:58:50Z</time>
      </trkpt>
      <trkpt lat="43.26307" lon="5.96347">
        <ele>242</ele>
        <time>2022-03-21T07:58:52Z</time>
      </trkpt>
      <trkpt lat="43.26279" lon="5.96358">
        <ele>249</ele>
        <time>2022-03-21T07:58:59Z</time>
      </trkpt>
      <trkpt lat="43.2628" lon="5.96362">
        <ele>249</ele>
        <time>2022-03-21T07:59:00Z</time>
      </trkpt>
      <trkpt lat="43.2628" lon="5.9636">
        <ele>249</ele>
        <time>2022-03-21T07:59:00Z</time>
      </trkpt>
      <trkpt lat="43.26284" lon="5.96362">
        <ele>248</ele>
        <time>2022-03-21T07:59:01Z</time>
      </trkpt>
      <trkpt lat="43.26295" lon="5.96356">
        <ele>246</ele>
        <time>2022-03-21T07:59:04Z</time>
      </trkpt>
      <trkpt lat="43.26302" lon="5.96348">
        <ele>244</ele>
        <time>2022-03-21T07:59:06Z</time>
      </trkpt>
      <trkpt lat="43.26306" lon="5.96347">
        <ele>243</ele>
        <time>2022-03-21T07:59:07Z</time>
      </trkpt>
      <trkpt lat="43.26304" lon="5.96352">
        <ele>243</ele>
        <time>2022-03-21T07:59:08Z</time>
      </trkpt>
      <trkpt lat="43.26295" lon="5.96355">
        <ele>245</ele>
        <time>2022-03-21T07:59:10Z</time>
      </trkpt>
      <trkpt lat="43.26295" lon="5.96357">
        <ele>246</ele>
        <time>2022-03-21T07:59:11Z</time>
      </trkpt>
      <trkpt lat="43.26284" lon="5.96358">
        <ele>248</ele>
        <time>2022-03-21T07:59:13Z</time>
      </trkpt>
      <trkpt lat="43.26274" lon="5.96363">
        <ele>250</ele>
        <time>2022-03-21T07:59:16Z</time>
      </trkpt>
      <trkpt lat="43.26265" lon="5.96371">
        <ele>251</ele>
        <time>2022-03-21T07:59:18Z</time>
      </trkpt>
      <trkpt lat="43.26258" lon="5.96382">
        <ele>252</ele>
        <time>2022-03-21T07:59:21Z</time>
      </trkpt>
      <trkpt lat="43.26253" lon="5.96397">
        <ele>252</ele>
        <time>2022-03-21T07:59:23Z</time>
      </trkpt>
      <trkpt lat="43.26231" lon="5.96427">
        <ele>260</ele>
        <time>2022-03-21T07:59:31Z</time>
      </trkpt>
      <trkpt lat="43.26205" lon="5.96473">
        <ele>268</ele>
        <time>2022-03-21T07:59:41Z</time>
      </trkpt>
      <trkpt lat="43.26195" lon="5.96501">
        <ele>268</ele>
        <time>2022-03-21T07:59:46Z</time>
      </trkpt>
      <trkpt lat="43.26195" lon="5.96532">
        <ele>271</ele>
        <time>2022-03-21T07:59:51Z</time>
      </trkpt>
      <trkpt lat="43.26192" lon="5.96546">
        <ele>272</ele>
        <time>2022-03-21T07:59:54Z</time>
      </trkpt>
      <trkpt lat="43.26185" lon="5.96557">
        <ele>273</ele>
        <time>2022-03-21T07:59:56Z</time>
      </trkpt>
      <trkpt lat="43.26175" lon="5.96564">
        <ele>272</ele>
        <time>2022-03-21T07:59:59Z</time>
      </trkpt>
      <trkpt lat="43.26144" lon="5.96571">
        <ele>277</ele>
        <time>2022-03-21T08:00:06Z</time>
      </trkpt>
      <trkpt lat="43.26134" lon="5.96578">
        <ele>279</ele>
        <time>2022-03-21T08:00:09Z</time>
      </trkpt>
      <trkpt lat="43.26127" lon="5.96587">
        <ele>281</ele>
        <time>2022-03-21T08:00:11Z</time>
      </trkpt>
      <trkpt lat="43.26093" lon="5.96669">
        <ele>281</ele>
        <time>2022-03-21T08:00:27Z</time>
      </trkpt>
      <trkpt lat="43.26091" lon="5.96685">
        <ele>281</ele>
        <time>2022-03-21T08:00:30Z</time>
      </trkpt>
      <trkpt lat="43.2607" lon="5.96767">
        <ele>282</ele>
        <time>2022-03-21T08:00:45Z</time>
      </trkpt>
      <trkpt lat="43.26072" lon="5.96849">
        <ele>283</ele>
        <time>2022-03-21T08:00:59Z</time>
      </trkpt>
      <trkpt lat="43.26068" lon="5.9689">
        <ele>288</ele>
        <time>2022-03-21T08:01:06Z</time>
      </trkpt>
      <trkpt lat="43.26068" lon="5.96921">
        <ele>291</ele>
        <time>2022-03-21T08:01:11Z</time>
      </trkpt>
      <trkpt lat="43.26062" lon="5.96933">
        <ele>292</ele>
        <time>2022-03-21T08:01:13Z</time>
      </trkpt>
      <trkpt lat="43.26052" lon="5.96933">
        <ele>293</ele>
        <time>2022-03-21T08:01:16Z</time>
      </trkpt>
      <trkpt lat="43.26004" lon="5.96899">
        <ele>291</ele>
        <time>2022-03-21T08:01:28Z</time>
      </trkpt>
      <trkpt lat="43.2598" lon="5.96874">
        <ele>295</ele>
        <time>2022-03-21T08:01:35Z</time>
      </trkpt>
      <trkpt lat="43.25961" lon="5.96845">
        <ele>298</ele>
        <time>2022-03-21T08:01:42Z</time>
      </trkpt>
      <trkpt lat="43.25939" lon="5.96824">
        <ele>303</ele>
        <time>2022-03-21T08:01:48Z</time>
      </trkpt>
      <trkpt lat="43.25924" lon="5.96804">
        <ele>305</ele>
        <time>2022-03-21T08:01:53Z</time>
      </trkpt>
      <trkpt lat="43.25868" lon="5.96705">
        <ele>304</ele>
        <time>2022-03-21T08:02:14Z</time>
      </trkpt>
      <trkpt lat="43.25818" lon="5.96639">
        <ele>302</ele>
        <time>2022-03-21T08:02:31Z</time>
      </trkpt>
      <trkpt lat="43.25779" lon="5.96578">
        <ele>302</ele>
        <time>2022-03-21T08:02:44Z</time>
      </trkpt>
      <trkpt lat="43.25763" lon="5.96541">
        <ele>303</ele>
        <time>2022-03-21T08:02:52Z</time>
      </trkpt>
      <trkpt lat="43.2575" lon="5.96502">
        <ele>302</ele>
        <time>2022-03-21T08:02:59Z</time>
      </trkpt>
      <trkpt lat="43.25743" lon="5.96491">
        <ele>303</ele>
        <time>2022-03-21T08:03:01Z</time>
      </trkpt>
      <trkpt lat="43.2571" lon="5.96472">
        <ele>305</ele>
        <time>2022-03-21T08:03:10Z</time>
      </trkpt>
      <trkpt lat="43.25668" lon="5.96431">
        <ele>308</ele>
        <time>2022-03-21T08:03:22Z</time>
      </trkpt>
      <trkpt lat="43.25656" lon="5.96428">
        <ele>310</ele>
        <time>2022-03-21T08:03:25Z</time>
      </trkpt>
      <trkpt lat="43.25621" lon="5.96455">
        <ele>315</ele>
        <time>2022-03-21T08:03:34Z</time>
      </trkpt>
      <trkpt lat="43.25591" lon="5.9649">
        <ele>320</ele>
        <time>2022-03-21T08:03:43Z</time>
      </trkpt>
      <trkpt lat="43.25566" lon="5.96511">
        <ele>324</ele>
        <time>2022-03-21T08:03:50Z</time>
      </trkpt>
      <trkpt lat="43.2555" lon="5.96521">
        <ele>326</ele>
        <time>2022-03-21T08:03:54Z</time>
      </trkpt>
      <trkpt lat="43.25516" lon="5.96531">
        <ele>332</ele>
        <time>2022-03-21T08:04:02Z</time>
      </trkpt>
      <trkpt lat="43.25505" lon="5.96528">
        <ele>333</ele>
        <time>2022-03-21T08:04:05Z</time>
      </trkpt>
      <trkpt lat="43.25469" lon="5.96451">
        <ele>346</ele>
        <time>2022-03-21T08:04:21Z</time>
      </trkpt>
      <trkpt lat="43.25479" lon="5.96381">
        <ele>348</ele>
        <time>2022-03-21T08:04:33Z</time>
      </trkpt>
      <trkpt lat="43.25467" lon="5.96206">
        <ele>367</ele>
        <time>2022-03-21T08:05:03Z</time>
      </trkpt>
      <trkpt lat="43.25469" lon="5.96177">
        <ele>369</ele>
        <time>2022-03-21T08:05:08Z</time>
      </trkpt>
      <trkpt lat="43.25476" lon="5.96138">
        <ele>373</ele>
        <time>2022-03-21T08:05:14Z</time>
      </trkpt>
      <trkpt lat="43.2548" lon="5.96123">
        <ele>374</ele>
        <time>2022-03-21T08:05:17Z</time>
      </trkpt>
      <trkpt lat="43.25487" lon="5.96115">
        <ele>374</ele>
        <time>2022-03-21T08:05:19Z</time>
      </trkpt>
      <trkpt lat="43.25564" lon="5.96073">
        <ele>375</ele>
        <time>2022-03-21T08:05:39Z</time>
      </trkpt>
      <trkpt lat="43.25571" lon="5.96064">
        <ele>375</ele>
        <time>2022-03-21T08:05:41Z</time>
      </trkpt>
      <trkpt lat="43.25573" lon="5.9605">
        <ele>377</ele>
        <time>2022-03-21T08:05:43Z</time>
      </trkpt>
      <trkpt lat="43.25556" lon="5.95988">
        <ele>384</ele>
        <time>2022-03-21T08:05:54Z</time>
      </trkpt>
      <trkpt lat="43.25557" lon="5.95959">
        <ele>387</ele>
        <time>2022-03-21T08:05:59Z</time>
      </trkpt>
      <trkpt lat="43.25555" lon="5.95945">
        <ele>389</ele>
        <time>2022-03-21T08:06:02Z</time>
      </trkpt>
      <trkpt lat="43.25549" lon="5.95934">
        <ele>391</ele>
        <time>2022-03-21T08:06:04Z</time>
      </trkpt>
      <trkpt lat="43.25539" lon="5.95935">
        <ele>392</ele>
        <time>2022-03-21T08:06:07Z</time>
      </trkpt>
      <trkpt lat="43.25532" lon="5.95947">
        <ele>392</ele>
        <time>2022-03-21T08:06:09Z</time>
      </trkpt>
      <trkpt lat="43.25529" lon="5.95961">
        <ele>390</ele>
        <time>2022-03-21T08:06:12Z</time>
      </trkpt>
      <trkpt lat="43.25516" lon="5.95986">
        <ele>389</ele>
        <time>2022-03-21T08:06:17Z</time>
      </trkpt>
      <trkpt lat="43.25507" lon="5.95988">
        <ele>390</ele>
        <time>2022-03-21T08:06:19Z</time>
      </trkpt>
      <trkpt lat="43.25499" lon="5.95978">
        <ele>392</ele>
        <time>2022-03-21T08:06:22Z</time>
      </trkpt>
      <trkpt lat="43.25491" lon="5.95935">
        <ele>399</ele>
        <time>2022-03-21T08:06:29Z</time>
      </trkpt>
      <trkpt lat="43.25491" lon="5.95921">
        <ele>401</ele>
        <time>2022-03-21T08:06:31Z</time>
      </trkpt>
      <trkpt lat="43.25497" lon="5.95891">
        <ele>406</ele>
        <time>2022-03-21T08:06:37Z</time>
      </trkpt>
      <trkpt lat="43.2552" lon="5.95846">
        <ele>410</ele>
        <time>2022-03-21T08:06:46Z</time>
      </trkpt>
      <trkpt lat="43.25561" lon="5.95804">
        <ele>409</ele>
        <time>2022-03-21T08:06:58Z</time>
      </trkpt>
      <trkpt lat="43.25593" lon="5.95761">
        <ele>409</ele>
        <time>2022-03-21T08:07:08Z</time>
      </trkpt>
      <trkpt lat="43.25603" lon="5.95735">
        <ele>411</ele>
        <time>2022-03-21T08:07:13Z</time>
      </trkpt>
      <trkpt lat="43.25608" lon="5.95708">
        <ele>413</ele>
        <time>2022-03-21T08:07:18Z</time>
      </trkpt>
      <trkpt lat="43.25635" lon="5.95662">
        <ele>413</ele>
        <time>2022-03-21T08:07:28Z</time>
      </trkpt>
      <trkpt lat="43.25643" lon="5.95633">
        <ele>416</ele>
        <time>2022-03-21T08:07:34Z</time>
      </trkpt>
      <trkpt lat="43.25649" lon="5.95623">
        <ele>416</ele>
        <time>2022-03-21T08:07:36Z</time>
      </trkpt>
      <trkpt lat="43.25657" lon="5.95616">
        <ele>415</ele>
        <time>2022-03-21T08:07:38Z</time>
      </trkpt>
      <trkpt lat="43.25663" lon="5.95605">
        <ele>415</ele>
        <time>2022-03-21T08:07:40Z</time>
      </trkpt>
      <trkpt lat="43.25686" lon="5.95544">
        <ele>417</ele>
        <time>2022-03-21T08:07:52Z</time>
      </trkpt>
      <trkpt lat="43.25691" lon="5.95502">
        <ele>422</ele>
        <time>2022-03-21T08:07:59Z</time>
      </trkpt>
      <trkpt lat="43.25688" lon="5.95463">
        <ele>426</ele>
        <time>2022-03-21T08:08:06Z</time>
      </trkpt>
      <trkpt lat="43.257" lon="5.9544">
        <ele>424</ele>
        <time>2022-03-21T08:08:11Z</time>
      </trkpt>
      <trkpt lat="43.2571" lon="5.9541">
        <ele>423</ele>
        <time>2022-03-21T08:08:16Z</time>
      </trkpt>
      <trkpt lat="43.25724" lon="5.95348">
        <ele>423</ele>
        <time>2022-03-21T08:08:27Z</time>
      </trkpt>
      <trkpt lat="43.25735" lon="5.95318">
        <ele>421</ele>
        <time>2022-03-21T08:08:33Z</time>
      </trkpt>
      <trkpt lat="43.25742" lon="5.95269">
        <ele>421</ele>
        <time>2022-03-21T08:08:42Z</time>
      </trkpt>
      <trkpt lat="43.25744" lon="5.95235">
        <ele>421</ele>
        <time>2022-03-21T08:08:47Z</time>
      </trkpt>
      <trkpt lat="43.2574" lon="5.95195">
        <ele>421</ele>
        <time>2022-03-21T08:08:54Z</time>
      </trkpt>
      <trkpt lat="43.25735" lon="5.95168">
        <ele>422</ele>
        <time>2022-03-21T08:08:59Z</time>
      </trkpt>
      <trkpt lat="43.25724" lon="5.95142">
        <ele>426</ele>
        <time>2022-03-21T08:09:04Z</time>
      </trkpt>
      <trkpt lat="43.2573" lon="5.95095">
        <ele>425</ele>
        <time>2022-03-21T08:09:12Z</time>
      </trkpt>
      <trkpt lat="43.25728" lon="5.95068">
        <ele>428</ele>
        <time>2022-03-21T08:09:17Z</time>
      </trkpt>
      <trkpt lat="43.25722" lon="5.95041">
        <ele>432</ele>
        <time>2022-03-21T08:09:22Z</time>
      </trkpt>
      <trkpt lat="43.25724" lon="5.95025">
        <ele>433</ele>
        <time>2022-03-21T08:09:24Z</time>
      </trkpt>
      <trkpt lat="43.2574" lon="5.94992">
        <ele>429</ele>
        <time>2022-03-21T08:09:31Z</time>
      </trkpt>
      <trkpt lat="43.25753" lon="5.94955">
        <ele>430</ele>
        <time>2022-03-21T08:09:38Z</time>
      </trkpt>
      <trkpt lat="43.25788" lon="5.94886">
        <ele>438</ele>
        <time>2022-03-21T08:09:52Z</time>
      </trkpt>
      <trkpt lat="43.25796" lon="5.94879">
        <ele>438</ele>
        <time>2022-03-21T08:09:55Z</time>
      </trkpt>
      <trkpt lat="43.25806" lon="5.94875">
        <ele>438</ele>
        <time>2022-03-21T08:09:57Z</time>
      </trkpt>
      <trkpt lat="43.25829" lon="5.94872">
        <ele>434</ele>
        <time>2022-03-21T08:10:02Z</time>
      </trkpt>
      <trkpt lat="43.25839" lon="5.94867">
        <ele>434</ele>
        <time>2022-03-21T08:10:05Z</time>
      </trkpt>
      <trkpt lat="43.2586" lon="5.94854">
        <ele>431</ele>
        <time>2022-03-21T08:10:10Z</time>
      </trkpt>
      <trkpt lat="43.25871" lon="5.94844">
        <ele>430</ele>
        <time>2022-03-21T08:10:13Z</time>
      </trkpt>
      <trkpt lat="43.25921" lon="5.94759">
        <ele>439</ele>
        <time>2022-03-21T08:10:32Z</time>
      </trkpt>
      <trkpt lat="43.25945" lon="5.94725">
        <ele>440</ele>
        <time>2022-03-21T08:10:40Z</time>
      </trkpt>
      <trkpt lat="43.25951" lon="5.94712">
        <ele>440</ele>
        <time>2022-03-21T08:10:43Z</time>
      </trkpt>
      <trkpt lat="43.25962" lon="5.94683">
        <ele>442</ele>
        <time>2022-03-21T08:10:48Z</time>
      </trkpt>
      <trkpt lat="43.25974" lon="5.94621">
        <ele>442</ele>
        <time>2022-03-21T08:10:59Z</time>
      </trkpt>
      <trkpt lat="43.25972" lon="5.94605">
        <ele>443</ele>
        <time>2022-03-21T08:11:02Z</time>
      </trkpt>
      <trkpt lat="43.25965" lon="5.94591">
        <ele>445</ele>
        <time>2022-03-21T08:11:05Z</time>
      </trkpt>
      <trkpt lat="43.25946" lon="5.94569">
        <ele>450</ele>
        <time>2022-03-21T08:11:11Z</time>
      </trkpt>
      <trkpt lat="43.25932" lon="5.94543">
        <ele>452</ele>
        <time>2022-03-21T08:11:16Z</time>
      </trkpt>
      <trkpt lat="43.25923" lon="5.94513">
        <ele>452</ele>
        <time>2022-03-21T08:11:22Z</time>
      </trkpt>
      <trkpt lat="43.25924" lon="5.94498">
        <ele>452</ele>
        <time>2022-03-21T08:11:24Z</time>
      </trkpt>
      <trkpt lat="43.25945" lon="5.94478">
        <ele>449</ele>
        <time>2022-03-21T08:11:30Z</time>
      </trkpt>
      <trkpt lat="43.2596" lon="5.94454">
        <ele>449</ele>
        <time>2022-03-21T08:11:35Z</time>
      </trkpt>
      <trkpt lat="43.2599" lon="5.94421">
        <ele>447</ele>
        <time>2022-03-21T08:11:44Z</time>
      </trkpt>
      <trkpt lat="43.26006" lon="5.94386">
        <ele>447</ele>
        <time>2022-03-21T08:11:51Z</time>
      </trkpt>
      <trkpt lat="43.26042" lon="5.94352">
        <ele>445</ele>
        <time>2022-03-21T08:12:02Z</time>
      </trkpt>
      <trkpt lat="43.26106" lon="5.94274">
        <ele>441</ele>
        <time>2022-03-21T08:12:22Z</time>
      </trkpt>
      <trkpt lat="43.26135" lon="5.94223">
        <ele>439</ele>
        <time>2022-03-21T08:12:33Z</time>
      </trkpt>
      <trkpt lat="43.26158" lon="5.94192">
        <ele>437</ele>
        <time>2022-03-21T08:12:40Z</time>
      </trkpt>
      <trkpt lat="43.26173" lon="5.94154">
        <ele>435</ele>
        <time>2022-03-21T08:12:48Z</time>
      </trkpt>
      <trkpt lat="43.2618" lon="5.94127">
        <ele>432</ele>
        <time>2022-03-21T08:12:52Z</time>
      </trkpt>
      <trkpt lat="43.26191" lon="5.94059">
        <ele>430</ele>
        <time>2022-03-21T08:13:04Z</time>
      </trkpt>
      <trkpt lat="43.26191" lon="5.94029">
        <ele>431</ele>
        <time>2022-03-21T08:13:09Z</time>
      </trkpt>
      <trkpt lat="43.26181" lon="5.9399">
        <ele>433</ele>
        <time>2022-03-21T08:13:16Z</time>
      </trkpt>
      <trkpt lat="43.26185" lon="5.93977">
        <ele>433</ele>
        <time>2022-03-21T08:13:19Z</time>
      </trkpt>
      <trkpt lat="43.26209" lon="5.9393">
        <ele>430</ele>
        <time>2022-03-21T08:13:29Z</time>
      </trkpt>
      <trkpt lat="43.26213" lon="5.93916">
        <ele>430</ele>
        <time>2022-03-21T08:13:31Z</time>
      </trkpt>
      <trkpt lat="43.26223" lon="5.93844">
        <ele>428</ele>
        <time>2022-03-21T08:13:44Z</time>
      </trkpt>
      <trkpt lat="43.26218" lon="5.93815">
        <ele>428</ele>
        <time>2022-03-21T08:13:49Z</time>
      </trkpt>
      <trkpt lat="43.26196" lon="5.9375">
        <ele>426</ele>
        <time>2022-03-21T08:14:01Z</time>
      </trkpt>
      <trkpt lat="43.26182" lon="5.93724">
        <ele>423</ele>
        <time>2022-03-21T08:14:06Z</time>
      </trkpt>
      <trkpt lat="43.26161" lon="5.93694">
        <ele>421</ele>
        <time>2022-03-21T08:14:13Z</time>
      </trkpt>
      <trkpt lat="43.26184" lon="5.93731">
        <ele>425</ele>
        <time>2022-03-21T08:14:22Z</time>
      </trkpt>
      <trkpt lat="43.26196" lon="5.93756">
        <ele>427</ele>
        <time>2022-03-21T08:14:27Z</time>
      </trkpt>
      <trkpt lat="43.26215" lon="5.93816">
        <ele>428</ele>
        <time>2022-03-21T08:14:38Z</time>
      </trkpt>
      <trkpt lat="43.26224" lon="5.93821">
        <ele>427</ele>
        <time>2022-03-21T08:14:40Z</time>
      </trkpt>
      <trkpt lat="43.26243" lon="5.93814">
        <ele>423</ele>
        <time>2022-03-21T08:14:45Z</time>
      </trkpt>
      <trkpt lat="43.2629" lon="5.93813">
        <ele>415</ele>
        <time>2022-03-21T08:14:56Z</time>
      </trkpt>
      <trkpt lat="43.26296" lon="5.93801">
        <ele>413</ele>
        <time>2022-03-21T08:14:58Z</time>
      </trkpt>
      <trkpt lat="43.26292" lon="5.93787">
        <ele>414</ele>
        <time>2022-03-21T08:15:01Z</time>
      </trkpt>
      <trkpt lat="43.26278" lon="5.93776">
        <ele>415</ele>
        <time>2022-03-21T08:15:05Z</time>
      </trkpt>
      <trkpt lat="43.26258" lon="5.93766">
        <ele>417</ele>
        <time>2022-03-21T08:15:10Z</time>
      </trkpt>
      <trkpt lat="43.26229" lon="5.9374">
        <ele>418</ele>
        <time>2022-03-21T08:15:18Z</time>
      </trkpt>
      <trkpt lat="43.26221" lon="5.9373">
        <ele>418</ele>
        <time>2022-03-21T08:15:20Z</time>
      </trkpt>
      <trkpt lat="43.26183" lon="5.93656">
        <ele>408</ele>
        <time>2022-03-21T08:15:36Z</time>
      </trkpt>
      <trkpt lat="43.26173" lon="5.93648">
        <ele>408</ele>
        <time>2022-03-21T08:15:38Z</time>
      </trkpt>
      <trkpt lat="43.26153" lon="5.93638">
        <ele>410</ele>
        <time>2022-03-21T08:15:43Z</time>
      </trkpt>
      <trkpt lat="43.26128" lon="5.9361">
        <ele>409</ele>
        <time>2022-03-21T08:15:51Z</time>
      </trkpt>
      <trkpt lat="43.2611" lon="5.93595">
        <ele>408</ele>
        <time>2022-03-21T08:15:56Z</time>
      </trkpt>
      <trkpt lat="43.26103" lon="5.93584">
        <ele>406</ele>
        <time>2022-03-21T08:15:58Z</time>
      </trkpt>
      <trkpt lat="43.26093" lon="5.93576">
        <ele>407</ele>
        <time>2022-03-21T08:16:01Z</time>
      </trkpt>
      <trkpt lat="43.26061" lon="5.93569">
        <ele>410</ele>
        <time>2022-03-21T08:16:08Z</time>
      </trkpt>
      <trkpt lat="43.26042" lon="5.93557">
        <ele>409</ele>
        <time>2022-03-21T08:16:13Z</time>
      </trkpt>
      <trkpt lat="43.2601" lon="5.93543">
        <ele>410</ele>
        <time>2022-03-21T08:16:21Z</time>
      </trkpt>
      <trkpt lat="43.25999" lon="5.93545">
        <ele>411</ele>
        <time>2022-03-21T08:16:24Z</time>
      </trkpt>
      <trkpt lat="43.25989" lon="5.93552">
        <ele>413</ele>
        <time>2022-03-21T08:16:26Z</time>
      </trkpt>
      <trkpt lat="43.25951" lon="5.93592">
        <ele>423</ele>
        <time>2022-03-21T08:16:38Z</time>
      </trkpt>
      <trkpt lat="43.2593" lon="5.93605">
        <ele>426</ele>
        <time>2022-03-21T08:16:43Z</time>
      </trkpt>
      <trkpt lat="43.25911" lon="5.93611">
        <ele>428</ele>
        <time>2022-03-21T08:16:47Z</time>
      </trkpt>
      <trkpt lat="43.25902" lon="5.93607">
        <ele>428</ele>
        <time>2022-03-21T08:16:50Z</time>
      </trkpt>
      <trkpt lat="43.25886" lon="5.93588">
        <ele>426</ele>
        <time>2022-03-21T08:16:55Z</time>
      </trkpt>
      <trkpt lat="43.25861" lon="5.93539">
        <ele>422</ele>
        <time>2022-03-21T08:17:05Z</time>
      </trkpt>
      <trkpt lat="43.25843" lon="5.93522">
        <ele>422</ele>
        <time>2022-03-21T08:17:10Z</time>
      </trkpt>
      <trkpt lat="43.25829" lon="5.93475">
        <ele>419</ele>
        <time>2022-03-21T08:17:19Z</time>
      </trkpt>
      <trkpt lat="43.25813" lon="5.93452">
        <ele>418</ele>
        <time>2022-03-21T08:17:24Z</time>
      </trkpt>
      <trkpt lat="43.25804" lon="5.93443">
        <ele>418</ele>
        <time>2022-03-21T08:17:27Z</time>
      </trkpt>
      <trkpt lat="43.25792" lon="5.93436">
        <ele>418</ele>
        <time>2022-03-21T08:17:30Z</time>
      </trkpt>
      <trkpt lat="43.25735" lon="5.9339">
        <ele>416</ele>
        <time>2022-03-21T08:17:45Z</time>
      </trkpt>
      <trkpt lat="43.25716" lon="5.93379">
        <ele>415</ele>
        <time>2022-03-21T08:17:50Z</time>
      </trkpt>
      <trkpt lat="43.25696" lon="5.93362">
        <ele>413</ele>
        <time>2022-03-21T08:17:55Z</time>
      </trkpt>
      <trkpt lat="43.25689" lon="5.93332">
        <ele>409</ele>
        <time>2022-03-21T08:18:01Z</time>
      </trkpt>
      <trkpt lat="43.25636" lon="5.93303">
        <ele>406</ele>
        <time>2022-03-21T08:18:14Z</time>
      </trkpt>
      <trkpt lat="43.25596" lon="5.93292">
        <ele>404</ele>
        <time>2022-03-21T08:18:24Z</time>
      </trkpt>
      <trkpt lat="43.25585" lon="5.93286">
        <ele>404</ele>
        <time>2022-03-21T08:18:26Z</time>
      </trkpt>
      <trkpt lat="43.25576" lon="5.93275">
        <ele>402</ele>
        <time>2022-03-21T08:18:29Z</time>
      </trkpt>
      <trkpt lat="43.25544" lon="5.93255">
        <ele>399</ele>
        <time>2022-03-21T08:18:37Z</time>
      </trkpt>
      <trkpt lat="43.25528" lon="5.93231">
        <ele>396</ele>
        <time>2022-03-21T08:18:43Z</time>
      </trkpt>
      <trkpt lat="43.2551" lon="5.9321">
        <ele>394</ele>
        <time>2022-03-21T08:18:48Z</time>
      </trkpt>
      <trkpt lat="43.255" lon="5.93206">
        <ele>394</ele>
        <time>2022-03-21T08:18:51Z</time>
      </trkpt>
      <trkpt lat="43.25489" lon="5.93205">
        <ele>394</ele>
        <time>2022-03-21T08:18:53Z</time>
      </trkpt>
      <trkpt lat="43.25452" lon="5.9321">
        <ele>396</ele>
        <time>2022-03-21T08:19:02Z</time>
      </trkpt>
      <trkpt lat="43.2544" lon="5.93209">
        <ele>397</ele>
        <time>2022-03-21T08:19:05Z</time>
      </trkpt>
      <trkpt lat="43.25405" lon="5.93197">
        <ele>398</ele>
        <time>2022-03-21T08:19:13Z</time>
      </trkpt>
      <trkpt lat="43.25383" lon="5.93196">
        <ele>399</ele>
        <time>2022-03-21T08:19:18Z</time>
      </trkpt>
      <trkpt lat="43.25373" lon="5.93198">
        <ele>400</ele>
        <time>2022-03-21T08:19:21Z</time>
      </trkpt>
      <trkpt lat="43.25343" lon="5.93212">
        <ele>403</ele>
        <time>2022-03-21T08:19:28Z</time>
      </trkpt>
      <trkpt lat="43.25311" lon="5.93215">
        <ele>404</ele>
        <time>2022-03-21T08:19:36Z</time>
      </trkpt>
      <trkpt lat="43.25302" lon="5.93219">
        <ele>405</ele>
        <time>2022-03-21T08:19:38Z</time>
      </trkpt>
      <trkpt lat="43.25296" lon="5.93231">
        <ele>406</ele>
        <time>2022-03-21T08:19:40Z</time>
      </trkpt>
      <trkpt lat="43.25287" lon="5.93237">
        <ele>406</ele>
        <time>2022-03-21T08:19:43Z</time>
      </trkpt>
      <trkpt lat="43.25276" lon="5.93239">
        <ele>407</ele>
        <time>2022-03-21T08:19:45Z</time>
      </trkpt>
      <trkpt lat="43.25228" lon="5.9326">
        <ele>410</ele>
        <time>2022-03-21T08:19:57Z</time>
      </trkpt>
      <trkpt lat="43.25219" lon="5.93258">
        <ele>410</ele>
        <time>2022-03-21T08:19:59Z</time>
      </trkpt>
      <trkpt lat="43.2521" lon="5.9326">
        <ele>410</ele>
        <time>2022-03-21T08:20:01Z</time>
      </trkpt>
      <trkpt lat="43.252" lon="5.93267">
        <ele>411</ele>
        <time>2022-03-21T08:20:04Z</time>
      </trkpt>
      <trkpt lat="43.25189" lon="5.93269">
        <ele>412</ele>
        <time>2022-03-21T08:20:07Z</time>
      </trkpt>
      <trkpt lat="43.25178" lon="5.93267">
        <ele>412</ele>
        <time>2022-03-21T08:20:09Z</time>
      </trkpt>
      <trkpt lat="43.25167" lon="5.9327">
        <ele>413</ele>
        <time>2022-03-21T08:20:12Z</time>
      </trkpt>
      <trkpt lat="43.25147" lon="5.93262">
        <ele>414</ele>
        <time>2022-03-21T08:20:17Z</time>
      </trkpt>
      <trkpt lat="43.25125" lon="5.93262">
        <ele>415</ele>
        <time>2022-03-21T08:20:22Z</time>
      </trkpt>
      <trkpt lat="43.25115" lon="5.93268">
        <ele>416</ele>
        <time>2022-03-21T08:20:24Z</time>
      </trkpt>
      <trkpt lat="43.25107" lon="5.93293">
        <ele>419</ele>
        <time>2022-03-21T08:20:29Z</time>
      </trkpt>
      <trkpt lat="43.25098" lon="5.93298">
        <ele>420</ele>
        <time>2022-03-21T08:20:31Z</time>
      </trkpt>
      <trkpt lat="43.25079" lon="5.93303">
        <ele>422</ele>
        <time>2022-03-21T08:20:36Z</time>
      </trkpt>
      <trkpt lat="43.25069" lon="5.93302">
        <ele>422</ele>
        <time>2022-03-21T08:20:38Z</time>
      </trkpt>
      <trkpt lat="43.25049" lon="5.93289">
        <ele>422</ele>
        <time>2022-03-21T08:20:43Z</time>
      </trkpt>
      <trkpt lat="43.25037" lon="5.93287">
        <ele>422</ele>
        <time>2022-03-21T08:20:46Z</time>
      </trkpt>
      <trkpt lat="43.25006" lon="5.93296">
        <ele>424</ele>
        <time>2022-03-21T08:20:53Z</time>
      </trkpt>
      <trkpt lat="43.24967" lon="5.93292">
        <ele>427</ele>
        <time>2022-03-21T08:21:03Z</time>
      </trkpt>
      <trkpt lat="43.24956" lon="5.93294">
        <ele>427</ele>
        <time>2022-03-21T08:21:05Z</time>
      </trkpt>
      <trkpt lat="43.24937" lon="5.93302">
        <ele>429</ele>
        <time>2022-03-21T08:21:10Z</time>
      </trkpt>
      <trkpt lat="43.24927" lon="5.93303">
        <ele>429</ele>
        <time>2022-03-21T08:21:12Z</time>
      </trkpt>
      <trkpt lat="43.24907" lon="5.933">
        <ele>431</ele>
        <time>2022-03-21T08:21:17Z</time>
      </trkpt>
      <trkpt lat="43.24879" lon="5.93313">
        <ele>432</ele>
        <time>2022-03-21T08:21:24Z</time>
      </trkpt>
      <trkpt lat="43.24861" lon="5.93328">
        <ele>433</ele>
        <time>2022-03-21T08:21:29Z</time>
      </trkpt>
      <trkpt lat="43.24839" lon="5.93334">
        <ele>435</ele>
        <time>2022-03-21T08:21:34Z</time>
      </trkpt>
      <trkpt lat="43.24829" lon="5.93341">
        <ele>436</ele>
        <time>2022-03-21T08:21:37Z</time>
      </trkpt>
      <trkpt lat="43.24822" lon="5.93332">
        <ele>437</ele>
        <time>2022-03-21T08:21:39Z</time>
      </trkpt>
      <trkpt lat="43.24803" lon="5.93319">
        <ele>442</ele>
        <time>2022-03-21T08:21:44Z</time>
      </trkpt>
      <trkpt lat="43.24801" lon="5.93293">
        <ele>443</ele>
        <time>2022-03-21T08:21:48Z</time>
      </trkpt>
      <trkpt lat="43.24796" lon="5.93281">
        <ele>444</ele>
        <time>2022-03-21T08:21:51Z</time>
      </trkpt>
      <trkpt lat="43.24802" lon="5.93159">
        <ele>444</ele>
        <time>2022-03-21T08:22:11Z</time>
      </trkpt>
      <trkpt lat="43.24799" lon="5.93147">
        <ele>444</ele>
        <time>2022-03-21T08:22:14Z</time>
      </trkpt>
      <trkpt lat="43.24789" lon="5.93144">
        <ele>446</ele>
        <time>2022-03-21T08:22:16Z</time>
      </trkpt>
      <trkpt lat="43.24785" lon="5.93157">
        <ele>447</ele>
        <time>2022-03-21T08:22:18Z</time>
      </trkpt>
      <trkpt lat="43.24782" lon="5.93185">
        <ele>448</ele>
        <time>2022-03-21T08:22:23Z</time>
      </trkpt>
      <trkpt lat="43.24775" lon="5.93209">
        <ele>449</ele>
        <time>2022-03-21T08:22:28Z</time>
      </trkpt>
      <trkpt lat="43.24765" lon="5.93232">
        <ele>451</ele>
        <time>2022-03-21T08:22:32Z</time>
      </trkpt>
      <trkpt lat="43.2475" lon="5.93253">
        <ele>454</ele>
        <time>2022-03-21T08:22:37Z</time>
      </trkpt>
      <trkpt lat="43.24745" lon="5.93265">
        <ele>455</ele>
        <time>2022-03-21T08:22:39Z</time>
      </trkpt>
      <trkpt lat="43.24743" lon="5.93304">
        <ele>456</ele>
        <time>2022-03-21T08:22:46Z</time>
      </trkpt>
      <trkpt lat="43.2474" lon="5.9332">
        <ele>457</ele>
        <time>2022-03-21T08:22:49Z</time>
      </trkpt>
      <trkpt lat="43.24716" lon="5.93408">
        <ele>464</ele>
        <time>2022-03-21T08:23:05Z</time>
      </trkpt>
      <trkpt lat="43.24666" lon="5.93515">
        <ele>470</ele>
        <time>2022-03-21T08:23:27Z</time>
      </trkpt>
      <trkpt lat="43.24634" lon="5.93603">
        <ele>477</ele>
        <time>2022-03-21T08:23:43Z</time>
      </trkpt>
      <trkpt lat="43.24621" lon="5.93628">
        <ele>481</ele>
        <time>2022-03-21T08:23:48Z</time>
      </trkpt>
      <trkpt lat="43.24609" lon="5.93702">
        <ele>481</ele>
        <time>2022-03-21T08:24:01Z</time>
      </trkpt>
      <trkpt lat="43.24598" lon="5.93728">
        <ele>484</ele>
        <time>2022-03-21T08:24:06Z</time>
      </trkpt>
      <trkpt lat="43.24595" lon="5.93741">
        <ele>484</ele>
        <time>2022-03-21T08:24:09Z</time>
      </trkpt>
      <trkpt lat="43.24591" lon="5.93799">
        <ele>483</ele>
        <time>2022-03-21T08:24:19Z</time>
      </trkpt>
      <trkpt lat="43.246" lon="5.93857">
        <ele>482</ele>
        <time>2022-03-21T08:24:29Z</time>
      </trkpt>
      <trkpt lat="43.24589" lon="5.93942">
        <ele>488</ele>
        <time>2022-03-21T08:24:43Z</time>
      </trkpt>
      <trkpt lat="43.24591" lon="5.9397">
        <ele>491</ele>
        <time>2022-03-21T08:24:48Z</time>
      </trkpt>
      <trkpt lat="43.24608" lon="5.94005">
        <ele>494</ele>
        <time>2022-03-21T08:24:55Z</time>
      </trkpt>
      <trkpt lat="43.24644" lon="5.94037">
        <ele>496</ele>
        <time>2022-03-21T08:25:05Z</time>
      </trkpt>
      <trkpt lat="43.24664" lon="5.94048">
        <ele>496</ele>
        <time>2022-03-21T08:25:10Z</time>
      </trkpt>
      <trkpt lat="43.24673" lon="5.94057">
        <ele>498</ele>
        <time>2022-03-21T08:25:13Z</time>
      </trkpt>
      <trkpt lat="43.24677" lon="5.94069">
        <ele>499</ele>
        <time>2022-03-21T08:25:15Z</time>
      </trkpt>
      <trkpt lat="43.24679" lon="5.94111">
        <ele>504</ele>
        <time>2022-03-21T08:25:22Z</time>
      </trkpt>
      <trkpt lat="43.24683" lon="5.94125">
        <ele>507</ele>
        <time>2022-03-21T08:25:25Z</time>
      </trkpt>
      <trkpt lat="43.24693" lon="5.94124">
        <ele>508</ele>
        <time>2022-03-21T08:25:27Z</time>
      </trkpt>
      <trkpt lat="43.24697" lon="5.94111">
        <ele>507</ele>
        <time>2022-03-21T08:25:30Z</time>
      </trkpt>
      <trkpt lat="43.24719" lon="5.94081">
        <ele>508</ele>
        <time>2022-03-21T08:25:37Z</time>
      </trkpt>
      <trkpt lat="43.2472" lon="5.94065">
        <ele>509</ele>
        <time>2022-03-21T08:25:40Z</time>
      </trkpt>
      <trkpt lat="43.24717" lon="5.9405">
        <ele>508</ele>
        <time>2022-03-21T08:25:42Z</time>
      </trkpt>
      <trkpt lat="43.2471" lon="5.94024">
        <ele>507</ele>
        <time>2022-03-21T08:25:47Z</time>
      </trkpt>
      <trkpt lat="43.24699" lon="5.93998">
        <ele>503</ele>
        <time>2022-03-21T08:25:52Z</time>
      </trkpt>
      <trkpt lat="43.24698" lon="5.93984">
        <ele>502</ele>
        <time>2022-03-21T08:25:55Z</time>
      </trkpt>
      <trkpt lat="43.24691" lon="5.93982">
        <ele>500</ele>
        <time>2022-03-21T08:25:56Z</time>
      </trkpt>
      <trkpt lat="43.2469" lon="5.93989">
        <ele>500</ele>
        <time>2022-03-21T08:25:57Z</time>
      </trkpt>
      <trkpt lat="43.24701" lon="5.93984">
        <ele>504</ele>
        <time>2022-03-21T08:26:00Z</time>
      </trkpt>
      <trkpt lat="43.24699" lon="5.93985">
        <ele>503</ele>
        <time>2022-03-21T08:26:01Z</time>
      </trkpt>
      <trkpt lat="43.2469" lon="5.93979">
        <ele>499</ele>
        <time>2022-03-21T08:26:03Z</time>
      </trkpt>
      <trkpt lat="43.2469" lon="5.93983">
        <ele>499</ele>
        <time>2022-03-21T08:26:04Z</time>
      </trkpt>
      <trkpt lat="43.24699" lon="5.93987">
        <ele>503</ele>
        <time>2022-03-21T08:26:06Z</time>
      </trkpt>
      <trkpt lat="43.24707" lon="5.93994">
        <ele>506</ele>
        <time>2022-03-21T08:26:08Z</time>
      </trkpt>
      <trkpt lat="43.24721" lon="5.94032">
        <ele>510</ele>
        <time>2022-03-21T08:26:15Z</time>
      </trkpt>
      <trkpt lat="43.24745" lon="5.94076">
        <ele>514</ele>
        <time>2022-03-21T08:26:25Z</time>
      </trkpt>
      <trkpt lat="43.2475" lon="5.9409">
        <ele>514</ele>
        <time>2022-03-21T08:26:27Z</time>
      </trkpt>
      <trkpt lat="43.24752" lon="5.94154">
        <ele>516</ele>
        <time>2022-03-21T08:26:38Z</time>
      </trkpt>
      <trkpt lat="43.24748" lon="5.94169">
        <ele>516</ele>
        <time>2022-03-21T08:26:41Z</time>
      </trkpt>
      <trkpt lat="43.24748" lon="5.94182">
        <ele>517</ele>
        <time>2022-03-21T08:26:43Z</time>
      </trkpt>
      <trkpt lat="43.24753" lon="5.94193">
        <ele>519</ele>
        <time>2022-03-21T08:26:45Z</time>
      </trkpt>
      <trkpt lat="43.24762" lon="5.94202">
        <ele>520</ele>
        <time>2022-03-21T08:26:48Z</time>
      </trkpt>
      <trkpt lat="43.24791" lon="5.94213">
        <ele>524</ele>
        <time>2022-03-21T08:26:55Z</time>
      </trkpt>
      <trkpt lat="43.24811" lon="5.94224">
        <ele>527</ele>
        <time>2022-03-21T08:27:00Z</time>
      </trkpt>
      <trkpt lat="43.24821" lon="5.94225">
        <ele>529</ele>
        <time>2022-03-21T08:27:02Z</time>
      </trkpt>
      <trkpt lat="43.24843" lon="5.94217">
        <ele>531</ele>
        <time>2022-03-21T08:27:08Z</time>
      </trkpt>
      <trkpt lat="43.24853" lon="5.94217">
        <ele>532</ele>
        <time>2022-03-21T08:27:10Z</time>
      </trkpt>
      <trkpt lat="43.24861" lon="5.94226">
        <ele>534</ele>
        <time>2022-03-21T08:27:12Z</time>
      </trkpt>
      <trkpt lat="43.24864" lon="5.9424">
        <ele>536</ele>
        <time>2022-03-21T08:27:15Z</time>
      </trkpt>
      <trkpt lat="43.24862" lon="5.94254">
        <ele>537</ele>
        <time>2022-03-21T08:27:17Z</time>
      </trkpt>
      <trkpt lat="43.24855" lon="5.94266">
        <ele>537</ele>
        <time>2022-03-21T08:27:20Z</time>
      </trkpt>
      <trkpt lat="43.24833" lon="5.94292">
        <ele>538</ele>
        <time>2022-03-21T08:27:27Z</time>
      </trkpt>
      <trkpt lat="43.24824" lon="5.94298">
        <ele>537</ele>
        <time>2022-03-21T08:27:29Z</time>
      </trkpt>
      <trkpt lat="43.24814" lon="5.94301">
        <ele>537</ele>
        <time>2022-03-21T08:27:32Z</time>
      </trkpt>
      <trkpt lat="43.24785" lon="5.94306">
        <ele>535</ele>
        <time>2022-03-21T08:27:38Z</time>
      </trkpt>
      <trkpt lat="43.24769" lon="5.94318">
        <ele>535</ele>
        <time>2022-03-21T08:27:43Z</time>
      </trkpt>
      <trkpt lat="43.24756" lon="5.9434">
        <ele>537</ele>
        <time>2022-03-21T08:27:47Z</time>
      </trkpt>
      <trkpt lat="43.24744" lon="5.94403">
        <ele>546</ele>
        <time>2022-03-21T08:27:58Z</time>
      </trkpt>
      <trkpt lat="43.24737" lon="5.94412">
        <ele>547</ele>
        <time>2022-03-21T08:28:01Z</time>
      </trkpt>
      <trkpt lat="43.24727" lon="5.94411">
        <ele>546</ele>
        <time>2022-03-21T08:28:03Z</time>
      </trkpt>
      <trkpt lat="43.24718" lon="5.94405">
        <ele>545</ele>
        <time>2022-03-21T08:28:05Z</time>
      </trkpt>
      <trkpt lat="43.24708" lon="5.94403">
        <ele>545</ele>
        <time>2022-03-21T08:28:08Z</time>
      </trkpt>
      <trkpt lat="43.24679" lon="5.94412">
        <ele>545</ele>
        <time>2022-03-21T08:28:15Z</time>
      </trkpt>
      <trkpt lat="43.24648" lon="5.94413">
        <ele>548</ele>
        <time>2022-03-21T08:28:22Z</time>
      </trkpt>
      <trkpt lat="43.24638" lon="5.94419">
        <ele>551</ele>
        <time>2022-03-21T08:28:25Z</time>
      </trkpt>
      <trkpt lat="43.24633" lon="5.94429">
        <ele>553</ele>
        <time>2022-03-21T08:28:27Z</time>
      </trkpt>
      <trkpt lat="43.24631" lon="5.94441">
        <ele>554</ele>
        <time>2022-03-21T08:28:29Z</time>
      </trkpt>
      <trkpt lat="43.24628" lon="5.94528">
        <ele>558</ele>
        <time>2022-03-21T08:28:43Z</time>
      </trkpt>
      <trkpt lat="43.24625" lon="5.9454">
        <ele>558</ele>
        <time>2022-03-21T08:28:46Z</time>
      </trkpt>
      <trkpt lat="43.2461" lon="5.94561">
        <ele>558</ele>
        <time>2022-03-21T08:28:51Z</time>
      </trkpt>
      <trkpt lat="43.24592" lon="5.94599">
        <ele>557</ele>
        <time>2022-03-21T08:28:58Z</time>
      </trkpt>
      <trkpt lat="43.24583" lon="5.94613">
        <ele>556</ele>
        <time>2022-03-21T08:29:02Z</time>
      </trkpt>
      <trkpt lat="43.24573" lon="5.94619">
        <ele>557</ele>
        <time>2022-03-21T08:29:04Z</time>
      </trkpt>
      <trkpt lat="43.24559" lon="5.94622">
        <ele>558</ele>
        <time>2022-03-21T08:29:07Z</time>
      </trkpt>
      <trkpt lat="43.24558" lon="5.94628">
        <ele>557</ele>
        <time>2022-03-21T08:29:08Z</time>
      </trkpt>
      <trkpt lat="43.2456" lon="5.94626">
        <ele>557</ele>
        <time>2022-03-21T08:29:09Z</time>
      </trkpt>
      <trkpt lat="43.24549" lon="5.94628">
        <ele>558</ele>
        <time>2022-03-21T08:29:12Z</time>
      </trkpt>
      <trkpt lat="43.24542" lon="5.94636">
        <ele>558</ele>
        <time>2022-03-21T08:29:14Z</time>
      </trkpt>
      <trkpt lat="43.24525" lon="5.94648">
        <ele>558</ele>
        <time>2022-03-21T08:29:18Z</time>
      </trkpt>
      <trkpt lat="43.24488" lon="5.94703">
        <ele>557</ele>
        <time>2022-03-21T08:29:31Z</time>
      </trkpt>
      <trkpt lat="43.24477" lon="5.94709">
        <ele>558</ele>
        <time>2022-03-21T08:29:34Z</time>
      </trkpt>
      <trkpt lat="43.24465" lon="5.94706">
        <ele>560</ele>
        <time>2022-03-21T08:29:37Z</time>
      </trkpt>
      <trkpt lat="43.24425" lon="5.94681">
        <ele>564</ele>
        <time>2022-03-21T08:29:47Z</time>
      </trkpt>
      <trkpt lat="43.24413" lon="5.94678">
        <ele>566</ele>
        <time>2022-03-21T08:29:50Z</time>
      </trkpt>
      <trkpt lat="43.24401" lon="5.94676">
        <ele>568</ele>
        <time>2022-03-21T08:29:52Z</time>
      </trkpt>
      <trkpt lat="43.24368" lon="5.94679">
        <ele>574</ele>
        <time>2022-03-21T08:30:00Z</time>
      </trkpt>
      <trkpt lat="43.2436" lon="5.94673">
        <ele>576</ele>
        <time>2022-03-21T08:30:02Z</time>
      </trkpt>
      <trkpt lat="43.24354" lon="5.94661">
        <ele>578</ele>
        <time>2022-03-21T08:30:05Z</time>
      </trkpt>
      <trkpt lat="43.24352" lon="5.94647">
        <ele>580</ele>
        <time>2022-03-21T08:30:07Z</time>
      </trkpt>
      <trkpt lat="43.24353" lon="5.94619">
        <ele>582</ele>
        <time>2022-03-21T08:30:12Z</time>
      </trkpt>
      <trkpt lat="43.2438" lon="5.94412">
        <ele>602</ele>
        <time>2022-03-21T08:30:48Z</time>
      </trkpt>
      <trkpt lat="43.24383" lon="5.94359">
        <ele>602</ele>
        <time>2022-03-21T08:30:57Z</time>
      </trkpt>
      <trkpt lat="43.24375" lon="5.94319">
        <ele>604</ele>
        <time>2022-03-21T08:31:04Z</time>
      </trkpt>
      <trkpt lat="43.24374" lon="5.94245">
        <ele>602</ele>
        <time>2022-03-21T08:31:16Z</time>
      </trkpt>
      <trkpt lat="43.24366" lon="5.9422">
        <ele>602</ele>
        <time>2022-03-21T08:31:21Z</time>
      </trkpt>
      <trkpt lat="43.24336" lon="5.94175">
        <ele>605</ele>
        <time>2022-03-21T08:31:31Z</time>
      </trkpt>
      <trkpt lat="43.24312" lon="5.94124">
        <ele>609</ele>
        <time>2022-03-21T08:31:42Z</time>
      </trkpt>
      <trkpt lat="43.24263" lon="5.94037">
        <ele>611</ele>
        <time>2022-03-21T08:32:01Z</time>
      </trkpt>
      <trkpt lat="43.24235" lon="5.93978">
        <ele>609</ele>
        <time>2022-03-21T08:32:12Z</time>
      </trkpt>
      <trkpt lat="43.24204" lon="5.93932">
        <ele>610</ele>
        <time>2022-03-21T08:32:23Z</time>
      </trkpt>
      <trkpt lat="43.24183" lon="5.9389">
        <ele>611</ele>
        <time>2022-03-21T08:32:32Z</time>
      </trkpt>
      <trkpt lat="43.24167" lon="5.93864">
        <ele>613</ele>
        <time>2022-03-21T08:32:38Z</time>
      </trkpt>
      <trkpt lat="43.24149" lon="5.93841">
        <ele>614</ele>
        <time>2022-03-21T08:32:43Z</time>
      </trkpt>
      <trkpt lat="43.24139" lon="5.93833">
        <ele>615</ele>
        <time>2022-03-21T08:32:46Z</time>
      </trkpt>
      <trkpt lat="43.241" lon="5.93826">
        <ele>622</ele>
        <time>2022-03-21T08:32:55Z</time>
      </trkpt>
      <trkpt lat="43.2409" lon="5.93823">
        <ele>623</ele>
        <time>2022-03-21T08:32:58Z</time>
      </trkpt>
      <trkpt lat="43.24082" lon="5.93817">
        <ele>625</ele>
        <time>2022-03-21T08:33:00Z</time>
      </trkpt>
      <trkpt lat="43.24079" lon="5.93802">
        <ele>625</ele>
        <time>2022-03-21T08:33:02Z</time>
      </trkpt>
      <trkpt lat="43.24098" lon="5.93764">
        <ele>624</ele>
        <time>2022-03-21T08:33:10Z</time>
      </trkpt>
      <trkpt lat="43.2409" lon="5.93755">
        <ele>626</ele>
        <time>2022-03-21T08:33:13Z</time>
      </trkpt>
      <trkpt lat="43.24073" lon="5.93776">
        <ele>627</ele>
        <time>2022-03-21T08:33:18Z</time>
      </trkpt>
      <trkpt lat="43.24043" lon="5.93798">
        <ele>629</ele>
        <time>2022-03-21T08:33:26Z</time>
      </trkpt>
      <trkpt lat="43.24021" lon="5.93809">
        <ele>631</ele>
        <time>2022-03-21T08:33:31Z</time>
      </trkpt>
      <trkpt lat="43.2401" lon="5.93813">
        <ele>632</ele>
        <time>2022-03-21T08:33:34Z</time>
      </trkpt>
      <trkpt lat="43.23988" lon="5.93812">
        <ele>633</ele>
        <time>2022-03-21T08:33:39Z</time>
      </trkpt>
      <trkpt lat="43.23966" lon="5.93816">
        <ele>633</ele>
        <time>2022-03-21T08:33:44Z</time>
      </trkpt>
      <trkpt lat="43.23924" lon="5.93819">
        <ele>633</ele>
        <time>2022-03-21T08:33:54Z</time>
      </trkpt>
      <trkpt lat="43.23886" lon="5.93806">
        <ele>632</ele>
        <time>2022-03-21T08:34:03Z</time>
      </trkpt>
      <trkpt lat="43.23863" lon="5.93809">
        <ele>632</ele>
        <time>2022-03-21T08:34:09Z</time>
      </trkpt>
      <trkpt lat="43.23853" lon="5.938">
        <ele>631</ele>
        <time>2022-03-21T08:34:12Z</time>
      </trkpt>
      <trkpt lat="43.23849" lon="5.93791">
        <ele>631</ele>
        <time>2022-03-21T08:34:13Z</time>
      </trkpt>
      <trkpt lat="43.2384" lon="5.93781">
        <ele>631</ele>
        <time>2022-03-21T08:34:16Z</time>
      </trkpt>
      <trkpt lat="43.2383" lon="5.93777">
        <ele>631</ele>
        <time>2022-03-21T08:34:18Z</time>
      </trkpt>
      <trkpt lat="43.23819" lon="5.93777">
        <ele>631</ele>
        <time>2022-03-21T08:34:21Z</time>
      </trkpt>
      <trkpt lat="43.23796" lon="5.93782">
        <ele>630</ele>
        <time>2022-03-21T08:34:26Z</time>
      </trkpt>
      <trkpt lat="43.23762" lon="5.93775">
        <ele>630</ele>
        <time>2022-03-21T08:34:35Z</time>
      </trkpt>
      <trkpt lat="43.23753" lon="5.93769">
        <ele>630</ele>
        <time>2022-03-21T08:34:37Z</time>
      </trkpt>
      <trkpt lat="43.23755" lon="5.93755">
        <ele>629</ele>
        <time>2022-03-21T08:34:39Z</time>
      </trkpt>
      <trkpt lat="43.23753" lon="5.93747">
        <ele>629</ele>
        <time>2022-03-21T08:34:41Z</time>
      </trkpt>
      <trkpt lat="43.23747" lon="5.93759">
        <ele>629</ele>
        <time>2022-03-21T08:34:43Z</time>
      </trkpt>
      <trkpt lat="43.23737" lon="5.93754">
        <ele>629</ele>
        <time>2022-03-21T08:34:46Z</time>
      </trkpt>
      <trkpt lat="43.23714" lon="5.93723">
        <ele>627</ele>
        <time>2022-03-21T08:34:53Z</time>
      </trkpt>
      <trkpt lat="43.23702" lon="5.937">
        <ele>626</ele>
        <time>2022-03-21T08:34:58Z</time>
      </trkpt>
      <trkpt lat="43.23699" lon="5.93672">
        <ele>625</ele>
        <time>2022-03-21T08:35:03Z</time>
      </trkpt>
      <trkpt lat="43.23693" lon="5.9366">
        <ele>625</ele>
        <time>2022-03-21T08:35:05Z</time>
      </trkpt>
      <trkpt lat="43.23673" lon="5.93643">
        <ele>624</ele>
        <time>2022-03-21T08:35:11Z</time>
      </trkpt>
      <trkpt lat="43.23663" lon="5.93601">
        <ele>623</ele>
        <time>2022-03-21T08:35:18Z</time>
      </trkpt>
      <trkpt lat="43.23663" lon="5.93588">
        <ele>623</ele>
        <time>2022-03-21T08:35:21Z</time>
      </trkpt>
      <trkpt lat="43.23669" lon="5.93563">
        <ele>623</ele>
        <time>2022-03-21T08:35:25Z</time>
      </trkpt>
      <trkpt lat="43.23672" lon="5.93531">
        <ele>623</ele>
        <time>2022-03-21T08:35:31Z</time>
      </trkpt>
      <trkpt lat="43.23694" lon="5.9349">
        <ele>623</ele>
        <time>2022-03-21T08:35:39Z</time>
      </trkpt>
      <trkpt lat="43.23704" lon="5.9346">
        <ele>622</ele>
        <time>2022-03-21T08:35:45Z</time>
      </trkpt>
      <trkpt lat="43.23724" lon="5.93432">
        <ele>621</ele>
        <time>2022-03-21T08:35:51Z</time>
      </trkpt>
      <trkpt lat="43.23737" lon="5.93403">
        <ele>620</ele>
        <time>2022-03-21T08:35:57Z</time>
      </trkpt>
      <trkpt lat="43.23738" lon="5.93374">
        <ele>620</ele>
        <time>2022-03-21T08:36:02Z</time>
      </trkpt>
      <trkpt lat="43.2373" lon="5.93316">
        <ele>620</ele>
        <time>2022-03-21T08:36:12Z</time>
      </trkpt>
      <trkpt lat="43.23735" lon="5.93271">
        <ele>621</ele>
        <time>2022-03-21T08:36:20Z</time>
      </trkpt>
      <trkpt lat="43.23732" lon="5.93257">
        <ele>622</ele>
        <time>2022-03-21T08:36:22Z</time>
      </trkpt>
      <trkpt lat="43.23719" lon="5.9323">
        <ele>623</ele>
        <time>2022-03-21T08:36:28Z</time>
      </trkpt>
      <trkpt lat="43.23709" lon="5.93201">
        <ele>624</ele>
        <time>2022-03-21T08:36:33Z</time>
      </trkpt>
      <trkpt lat="43.23698" lon="5.93154">
        <ele>625</ele>
        <time>2022-03-21T08:36:42Z</time>
      </trkpt>
      <trkpt lat="43.23685" lon="5.93128">
        <ele>624</ele>
        <time>2022-03-21T08:36:47Z</time>
      </trkpt>
      <trkpt lat="43.23676" lon="5.93116">
        <ele>622</ele>
        <time>2022-03-21T08:36:50Z</time>
      </trkpt>
      <trkpt lat="43.23648" lon="5.93096">
        <ele>620</ele>
        <time>2022-03-21T08:36:57Z</time>
      </trkpt>
      <trkpt lat="43.23641" lon="5.93088">
        <ele>620</ele>
        <time>2022-03-21T08:37:00Z</time>
      </trkpt>
      <trkpt lat="43.23628" lon="5.9307">
        <ele>619</ele>
        <time>2022-03-21T08:37:04Z</time>
      </trkpt>
      <trkpt lat="43.23613" lon="5.9304">
        <ele>615</ele>
        <time>2022-03-21T08:37:10Z</time>
      </trkpt>
      <trkpt lat="43.23599" lon="5.93026">
        <ele>613</ele>
        <time>2022-03-21T08:37:14Z</time>
      </trkpt>
      <trkpt lat="43.23585" lon="5.93016">
        <ele>611</ele>
        <time>2022-03-21T08:37:18Z</time>
      </trkpt>
      <trkpt lat="43.2356" lon="5.92983">
        <ele>608</ele>
        <time>2022-03-21T08:37:26Z</time>
      </trkpt>
      <trkpt lat="43.23547" lon="5.92971">
        <ele>608</ele>
        <time>2022-03-21T08:37:30Z</time>
      </trkpt>
      <trkpt lat="43.23532" lon="5.92963">
        <ele>608</ele>
        <time>2022-03-21T08:37:33Z</time>
      </trkpt>
      <trkpt lat="43.23502" lon="5.92954">
        <ele>609</ele>
        <time>2022-03-21T08:37:41Z</time>
      </trkpt>
      <trkpt lat="43.2349" lon="5.92944">
        <ele>607</ele>
        <time>2022-03-21T08:37:44Z</time>
      </trkpt>
      <trkpt lat="43.23458" lon="5.92887">
        <ele>602</ele>
        <time>2022-03-21T08:37:56Z</time>
      </trkpt>
      <trkpt lat="43.23463" lon="5.92872">
        <ele>602</ele>
        <time>2022-03-21T08:37:59Z</time>
      </trkpt>
      <trkpt lat="43.23481" lon="5.92857">
        <ele>600</ele>
        <time>2022-03-21T08:38:04Z</time>
      </trkpt>
      <trkpt lat="43.23496" lon="5.92838">
        <ele>599</ele>
        <time>2022-03-21T08:38:09Z</time>
      </trkpt>
      <trkpt lat="43.23533" lon="5.92765">
        <ele>601</ele>
        <time>2022-03-21T08:38:24Z</time>
      </trkpt>
      <trkpt lat="43.23564" lon="5.92719">
        <ele>604</ele>
        <time>2022-03-21T08:38:34Z</time>
      </trkpt>
      <trkpt lat="43.2357" lon="5.92706">
        <ele>604</ele>
        <time>2022-03-21T08:38:37Z</time>
      </trkpt>
      <trkpt lat="43.23562" lon="5.92694">
        <ele>605</ele>
        <time>2022-03-21T08:38:40Z</time>
      </trkpt>
      <trkpt lat="43.23566" lon="5.92681">
        <ele>606</ele>
        <time>2022-03-21T08:38:42Z</time>
      </trkpt>
      <trkpt lat="43.23574" lon="5.92674">
        <ele>606</ele>
        <time>2022-03-21T08:38:44Z</time>
      </trkpt>
      <trkpt lat="43.23625" lon="5.9259">
        <ele>612</ele>
        <time>2022-03-21T08:39:03Z</time>
      </trkpt>
      <trkpt lat="43.23685" lon="5.92515">
        <ele>615</ele>
        <time>2022-03-21T08:39:22Z</time>
      </trkpt>
      <trkpt lat="43.23737" lon="5.92469">
        <ele>621</ele>
        <time>2022-03-21T08:39:36Z</time>
      </trkpt>
      <trkpt lat="43.23761" lon="5.92438">
        <ele>623</ele>
        <time>2022-03-21T08:39:44Z</time>
      </trkpt>
      <trkpt lat="43.23778" lon="5.924">
        <ele>625</ele>
        <time>2022-03-21T08:39:52Z</time>
      </trkpt>
      <trkpt lat="43.23797" lon="5.9238">
        <ele>628</ele>
        <time>2022-03-21T08:39:57Z</time>
      </trkpt>
      <trkpt lat="43.23845" lon="5.92364">
        <ele>629</ele>
        <time>2022-03-21T08:40:09Z</time>
      </trkpt>
      <trkpt lat="43.2388" lon="5.92333">
        <ele>625</ele>
        <time>2022-03-21T08:40:18Z</time>
      </trkpt>
      <trkpt lat="43.2389" lon="5.92321">
        <ele>625</ele>
        <time>2022-03-21T08:40:22Z</time>
      </trkpt>
      <trkpt lat="43.23901" lon="5.92316">
        <ele>624</ele>
        <time>2022-03-21T08:40:24Z</time>
      </trkpt>
      <trkpt lat="43.23897" lon="5.92332">
        <ele>623</ele>
        <time>2022-03-21T08:40:27Z</time>
      </trkpt>
      <trkpt lat="43.23891" lon="5.92341">
        <ele>623</ele>
        <time>2022-03-21T08:40:29Z</time>
      </trkpt>
      <trkpt lat="43.23889" lon="5.92368">
        <ele>624</ele>
        <time>2022-03-21T08:40:34Z</time>
      </trkpt>
      <trkpt lat="43.23891" lon="5.92381">
        <ele>624</ele>
        <time>2022-03-21T08:40:36Z</time>
      </trkpt>
      <trkpt lat="43.23899" lon="5.9239">
        <ele>623</ele>
        <time>2022-03-21T08:40:39Z</time>
      </trkpt>
      <trkpt lat="43.23912" lon="5.92394">
        <ele>621</ele>
        <time>2022-03-21T08:40:42Z</time>
      </trkpt>
      <trkpt lat="43.23942" lon="5.92387">
        <ele>619</ele>
        <time>2022-03-21T08:40:49Z</time>
      </trkpt>
      <trkpt lat="43.23986" lon="5.92387">
        <ele>617</ele>
        <time>2022-03-21T08:40:59Z</time>
      </trkpt>
      <trkpt lat="43.24082" lon="5.92395">
        <ele>612</ele>
        <time>2022-03-21T08:41:21Z</time>
      </trkpt>
      <trkpt lat="43.24142" lon="5.92385">
        <ele>612</ele>
        <time>2022-03-21T08:41:36Z</time>
      </trkpt>
      <trkpt lat="43.24209" lon="5.9238">
        <ele>612</ele>
        <time>2022-03-21T08:41:51Z</time>
      </trkpt>
      <trkpt lat="43.24254" lon="5.92362">
        <ele>611</ele>
        <time>2022-03-21T08:42:02Z</time>
      </trkpt>
      <trkpt lat="43.24263" lon="5.92353">
        <ele>610</ele>
        <time>2022-03-21T08:42:05Z</time>
      </trkpt>
      <trkpt lat="43.24282" lon="5.92322">
        <ele>611</ele>
        <time>2022-03-21T08:42:12Z</time>
      </trkpt>
      <trkpt lat="43.24297" lon="5.92303">
        <ele>615</ele>
        <time>2022-03-21T08:42:16Z</time>
      </trkpt>
      <trkpt lat="43.24369" lon="5.92254">
        <ele>625</ele>
        <time>2022-03-21T08:42:35Z</time>
      </trkpt>
      <trkpt lat="43.24397" lon="5.92244">
        <ele>626</ele>
        <time>2022-03-21T08:42:42Z</time>
      </trkpt>
      <trkpt lat="43.24439" lon="5.92224">
        <ele>631</ele>
        <time>2022-03-21T08:42:52Z</time>
      </trkpt>
      <trkpt lat="43.24509" lon="5.9218">
        <ele>639</ele>
        <time>2022-03-21T08:43:10Z</time>
      </trkpt>
      <trkpt lat="43.24568" lon="5.92159">
        <ele>643</ele>
        <time>2022-03-21T08:43:25Z</time>
      </trkpt>
      <trkpt lat="43.24591" lon="5.92154">
        <ele>643</ele>
        <time>2022-03-21T08:43:30Z</time>
      </trkpt>
      <trkpt lat="43.24622" lon="5.92141">
        <ele>641</ele>
        <time>2022-03-21T08:43:38Z</time>
      </trkpt>
      <trkpt lat="43.2464" lon="5.92127">
        <ele>641</ele>
        <time>2022-03-21T08:43:42Z</time>
      </trkpt>
      <trkpt lat="43.2467" lon="5.92088">
        <ele>641</ele>
        <time>2022-03-21T08:43:52Z</time>
      </trkpt>
      <trkpt lat="43.24694" lon="5.92047">
        <ele>645</ele>
        <time>2022-03-21T08:44:01Z</time>
      </trkpt>
      <trkpt lat="43.2473" lon="5.91997">
        <ele>649</ele>
        <time>2022-03-21T08:44:13Z</time>
      </trkpt>
      <trkpt lat="43.24811" lon="5.91917">
        <ele>650</ele>
        <time>2022-03-21T08:44:36Z</time>
      </trkpt>
      <trkpt lat="43.24861" lon="5.9186">
        <ele>654</ele>
        <time>2022-03-21T08:44:51Z</time>
      </trkpt>
      <trkpt lat="43.24896" lon="5.91806">
        <ele>659</ele>
        <time>2022-03-21T08:45:04Z</time>
      </trkpt>
      <trkpt lat="43.24951" lon="5.91739">
        <ele>662</ele>
        <time>2022-03-21T08:45:21Z</time>
      </trkpt>
      <trkpt lat="43.24966" lon="5.91706">
        <ele>665</ele>
        <time>2022-03-21T08:45:28Z</time>
      </trkpt>
      <trkpt lat="43.24979" lon="5.91666">
        <ele>669</ele>
        <time>2022-03-21T08:45:35Z</time>
      </trkpt>
      <trkpt lat="43.24985" lon="5.91653">
        <ele>670</ele>
        <time>2022-03-21T08:45:38Z</time>
      </trkpt>
      <trkpt lat="43.24994" lon="5.91643">
        <ele>670</ele>
        <time>2022-03-21T08:45:40Z</time>
      </trkpt>
      <trkpt lat="43.25007" lon="5.91639">
        <ele>668</ele>
        <time>2022-03-21T08:45:43Z</time>
      </trkpt>
      <trkpt lat="43.25016" lon="5.9164">
        <ele>668</ele>
        <time>2022-03-21T08:45:46Z</time>
      </trkpt>
      <trkpt lat="43.25051" lon="5.91666">
        <ele>662</ele>
        <time>2022-03-21T08:45:55Z</time>
      </trkpt>
      <trkpt lat="43.25074" lon="5.91668">
        <ele>662</ele>
        <time>2022-03-21T08:46:00Z</time>
      </trkpt>
      <trkpt lat="43.25086" lon="5.91673">
        <ele>662</ele>
        <time>2022-03-21T08:46:03Z</time>
      </trkpt>
      <trkpt lat="43.25102" lon="5.91699">
        <ele>657</ele>
        <time>2022-03-21T08:46:09Z</time>
      </trkpt>
      <trkpt lat="43.25114" lon="5.91695">
        <ele>659</ele>
        <time>2022-03-21T08:46:12Z</time>
      </trkpt>
      <trkpt lat="43.25124" lon="5.91665">
        <ele>664</ele>
        <time>2022-03-21T08:46:17Z</time>
      </trkpt>
      <trkpt lat="43.25135" lon="5.91662">
        <ele>665</ele>
        <time>2022-03-21T08:46:20Z</time>
      </trkpt>
      <trkpt lat="43.25146" lon="5.91671">
        <ele>664</ele>
        <time>2022-03-21T08:46:23Z</time>
      </trkpt>
      <trkpt lat="43.25176" lon="5.91714">
        <ele>660</ele>
        <time>2022-03-21T08:46:33Z</time>
      </trkpt>
      <trkpt lat="43.25172" lon="5.91703">
        <ele>661</ele>
        <time>2022-03-21T08:46:35Z</time>
      </trkpt>
      <trkpt lat="43.25174" lon="5.91689">
        <ele>663</ele>
        <time>2022-03-21T08:46:38Z</time>
      </trkpt>
      <trkpt lat="43.25173" lon="5.91579">
        <ele>676</ele>
        <time>2022-03-21T08:46:56Z</time>
      </trkpt>
      <trkpt lat="43.25167" lon="5.91521">
        <ele>682</ele>
        <time>2022-03-21T08:47:06Z</time>
      </trkpt>
      <trkpt lat="43.25158" lon="5.91483">
        <ele>687</ele>
        <time>2022-03-21T08:47:13Z</time>
      </trkpt>
      <trkpt lat="43.25131" lon="5.91395">
        <ele>700</ele>
        <time>2022-03-21T08:47:29Z</time>
      </trkpt>
      <trkpt lat="43.2513" lon="5.91367">
        <ele>704</ele>
        <time>2022-03-21T08:47:34Z</time>
      </trkpt>
      <trkpt lat="43.25135" lon="5.91324">
        <ele>709</ele>
        <time>2022-03-21T08:47:42Z</time>
      </trkpt>
      <trkpt lat="43.25133" lon="5.9131">
        <ele>711</ele>
        <time>2022-03-21T08:47:44Z</time>
      </trkpt>
      <trkpt lat="43.25134" lon="5.91255">
        <ele>718</ele>
        <time>2022-03-21T08:47:53Z</time>
      </trkpt>
      <trkpt lat="43.25151" lon="5.91191">
        <ele>723</ele>
        <time>2022-03-21T08:48:05Z</time>
      </trkpt>
      <trkpt lat="43.25153" lon="5.91176">
        <ele>724</ele>
        <time>2022-03-21T08:48:08Z</time>
      </trkpt>
      <trkpt lat="43.25147" lon="5.91124">
        <ele>732</ele>
        <time>2022-03-21T08:48:17Z</time>
      </trkpt>
      <trkpt lat="43.2516" lon="5.91088">
        <ele>732</ele>
        <time>2022-03-21T08:48:23Z</time>
      </trkpt>
      <trkpt lat="43.25201" lon="5.91016">
        <ele>732</ele>
        <time>2022-03-21T08:48:39Z</time>
      </trkpt>
      <trkpt lat="43.25223" lon="5.9096">
        <ele>731</ele>
        <time>2022-03-21T08:48:50Z</time>
      </trkpt>
      <trkpt lat="43.25252" lon="5.90897">
        <ele>726</ele>
        <time>2022-03-21T08:49:02Z</time>
      </trkpt>
      <trkpt lat="43.25261" lon="5.90883">
        <ele>726</ele>
        <time>2022-03-21T08:49:06Z</time>
      </trkpt>
      <trkpt lat="43.25264" lon="5.90867">
        <ele>726</ele>
        <time>2022-03-21T08:49:08Z</time>
      </trkpt>
      <trkpt lat="43.25263" lon="5.90817">
        <ele>726</ele>
        <time>2022-03-21T08:49:17Z</time>
      </trkpt>
      <trkpt lat="43.25278" lon="5.90772">
        <ele>725</ele>
        <time>2022-03-21T08:49:25Z</time>
      </trkpt>
      <trkpt lat="43.25283" lon="5.90742">
        <ele>724</ele>
        <time>2022-03-21T08:49:31Z</time>
      </trkpt>
      <trkpt lat="43.25286" lon="5.90688">
        <ele>724</ele>
        <time>2022-03-21T08:49:40Z</time>
      </trkpt>
      <trkpt lat="43.25284" lon="5.90655">
        <ele>724</ele>
        <time>2022-03-21T08:49:45Z</time>
      </trkpt>
      <trkpt lat="43.25286" lon="5.90638">
        <ele>724</ele>
        <time>2022-03-21T08:49:48Z</time>
      </trkpt>
      <trkpt lat="43.25294" lon="5.90603">
        <ele>724</ele>
        <time>2022-03-21T08:49:55Z</time>
      </trkpt>
      <trkpt lat="43.25317" lon="5.90536">
        <ele>723</ele>
        <time>2022-03-21T08:50:07Z</time>
      </trkpt>
      <trkpt lat="43.25317" lon="5.90503">
        <ele>724</ele>
        <time>2022-03-21T08:50:13Z</time>
      </trkpt>
      <trkpt lat="43.25325" lon="5.90457">
        <ele>724</ele>
        <time>2022-03-21T08:50:21Z</time>
      </trkpt>
      <trkpt lat="43.25322" lon="5.90412">
        <ele>726</ele>
        <time>2022-03-21T08:50:28Z</time>
      </trkpt>
      <trkpt lat="43.25336" lon="5.90373">
        <ele>725</ele>
        <time>2022-03-21T08:50:36Z</time>
      </trkpt>
      <trkpt lat="43.25358" lon="5.90271">
        <ele>725</ele>
        <time>2022-03-21T08:50:54Z</time>
      </trkpt>
      <trkpt lat="43.25371" lon="5.90182">
        <ele>724</ele>
        <time>2022-03-21T08:51:09Z</time>
      </trkpt>
      <trkpt lat="43.254" lon="5.90118">
        <ele>720</ele>
        <time>2022-03-21T08:51:22Z</time>
      </trkpt>
      <trkpt lat="43.25411" lon="5.90071">
        <ele>721</ele>
        <time>2022-03-21T08:51:31Z</time>
      </trkpt>
      <trkpt lat="43.25421" lon="5.90042">
        <ele>722</ele>
        <time>2022-03-21T08:51:36Z</time>
      </trkpt>
      <trkpt lat="43.2544" lon="5.90006">
        <ele>722</ele>
        <time>2022-03-21T08:51:44Z</time>
      </trkpt>
      <trkpt lat="43.2546" lon="5.89958">
        <ele>720</ele>
        <time>2022-03-21T08:51:53Z</time>
      </trkpt>
      <trkpt lat="43.25475" lon="5.89915">
        <ele>719</ele>
        <time>2022-03-21T08:52:01Z</time>
      </trkpt>
      <trkpt lat="43.25481" lon="5.89883">
        <ele>718</ele>
        <time>2022-03-21T08:52:07Z</time>
      </trkpt>
      <trkpt lat="43.25465" lon="5.89832">
        <ele>723</ele>
        <time>2022-03-21T08:52:16Z</time>
      </trkpt>
      <trkpt lat="43.2546" lon="5.89806">
        <ele>725</ele>
        <time>2022-03-21T08:52:21Z</time>
      </trkpt>
      <trkpt lat="43.25458" lon="5.89763">
        <ele>726</ele>
        <time>2022-03-21T08:52:28Z</time>
      </trkpt>
      <trkpt lat="43.2546" lon="5.89719">
        <ele>727</ele>
        <time>2022-03-21T08:52:36Z</time>
      </trkpt>
      <trkpt lat="43.25471" lon="5.8962">
        <ele>727</ele>
        <time>2022-03-21T08:52:53Z</time>
      </trkpt>
      <trkpt lat="43.25476" lon="5.89549">
        <ele>727</ele>
        <time>2022-03-21T08:53:05Z</time>
      </trkpt>
      <trkpt lat="43.25475" lon="5.89524">
        <ele>727</ele>
        <time>2022-03-21T08:53:09Z</time>
      </trkpt>
      <trkpt lat="43.2547" lon="5.89495">
        <ele>728</ele>
        <time>2022-03-21T08:53:14Z</time>
      </trkpt>
      <trkpt lat="43.25456" lon="5.89459">
        <ele>732</ele>
        <time>2022-03-21T08:53:21Z</time>
      </trkpt>
      <trkpt lat="43.25439" lon="5.89378">
        <ele>737</ele>
        <time>2022-03-21T08:53:35Z</time>
      </trkpt>
      <trkpt lat="43.25434" lon="5.89304">
        <ele>739</ele>
        <time>2022-03-21T08:53:48Z</time>
      </trkpt>
      <trkpt lat="43.25424" lon="5.89317">
        <ele>742</ele>
        <time>2022-03-21T08:53:51Z</time>
      </trkpt>
      <trkpt lat="43.25421" lon="5.8933">
        <ele>743</ele>
        <time>2022-03-21T08:53:54Z</time>
      </trkpt>
      <trkpt lat="43.25405" lon="5.89365">
        <ele>747</ele>
        <time>2022-03-21T08:54:01Z</time>
      </trkpt>
      <trkpt lat="43.25403" lon="5.89378">
        <ele>748</ele>
        <time>2022-03-21T08:54:03Z</time>
      </trkpt>
      <trkpt lat="43.25384" lon="5.8943">
        <ele>754</ele>
        <time>2022-03-21T08:54:13Z</time>
      </trkpt>
      <trkpt lat="43.25378" lon="5.8944">
        <ele>757</ele>
        <time>2022-03-21T08:54:15Z</time>
      </trkpt>
      <trkpt lat="43.25376" lon="5.89452">
        <ele>757</ele>
        <time>2022-03-21T08:54:17Z</time>
      </trkpt>
      <trkpt lat="43.25364" lon="5.89473">
        <ele>762</ele>
        <time>2022-03-21T08:54:22Z</time>
      </trkpt>
      <trkpt lat="43.25344" lon="5.89553">
        <ele>767</ele>
        <time>2022-03-21T08:54:36Z</time>
      </trkpt>
      <trkpt lat="43.2533" lon="5.89592">
        <ele>771</ele>
        <time>2022-03-21T08:54:43Z</time>
      </trkpt>
      <trkpt lat="43.25323" lon="5.89619">
        <ele>773</ele>
        <time>2022-03-21T08:54:48Z</time>
      </trkpt>
      <trkpt lat="43.25319" lon="5.89631">
        <ele>775</ele>
        <time>2022-03-21T08:54:50Z</time>
      </trkpt>
      <trkpt lat="43.25306" lon="5.89655">
        <ele>779</ele>
        <time>2022-03-21T08:54:56Z</time>
      </trkpt>
      <trkpt lat="43.25303" lon="5.89668">
        <ele>779</ele>
        <time>2022-03-21T08:54:58Z</time>
      </trkpt>
      <trkpt lat="43.25288" lon="5.89705">
        <ele>782</ele>
        <time>2022-03-21T08:55:05Z</time>
      </trkpt>
      <trkpt lat="43.25285" lon="5.89732">
        <ele>782</ele>
        <time>2022-03-21T08:55:10Z</time>
      </trkpt>
      <trkpt lat="43.25274" lon="5.89756">
        <ele>783</ele>
        <time>2022-03-21T08:55:15Z</time>
      </trkpt>
      <trkpt lat="43.25246" lon="5.89795">
        <ele>785</ele>
        <time>2022-03-21T08:55:24Z</time>
      </trkpt>
      <trkpt lat="43.25237" lon="5.89818">
        <ele>784</ele>
        <time>2022-03-21T08:55:28Z</time>
      </trkpt>
      <trkpt lat="43.25236" lon="5.89831">
        <ele>783</ele>
        <time>2022-03-21T08:55:31Z</time>
      </trkpt>
      <trkpt lat="43.2524" lon="5.89844">
        <ele>782</ele>
        <time>2022-03-21T08:55:33Z</time>
      </trkpt>
      <trkpt lat="43.25242" lon="5.89873">
        <ele>779</ele>
        <time>2022-03-21T08:55:38Z</time>
      </trkpt>
      <trkpt lat="43.25235" lon="5.89899">
        <ele>777</ele>
        <time>2022-03-21T08:55:43Z</time>
      </trkpt>
      <trkpt lat="43.25222" lon="5.89922">
        <ele>776</ele>
        <time>2022-03-21T08:55:48Z</time>
      </trkpt>
      <trkpt lat="43.2522" lon="5.89963">
        <ele>774</ele>
        <time>2022-03-21T08:55:55Z</time>
      </trkpt>
      <trkpt lat="43.25198" lon="5.89992">
        <ele>773</ele>
        <time>2022-03-21T08:56:02Z</time>
      </trkpt>
      <trkpt lat="43.25182" lon="5.90004">
        <ele>773</ele>
        <time>2022-03-21T08:56:06Z</time>
      </trkpt>
      <trkpt lat="43.2518" lon="5.90002">
        <ele>773</ele>
        <time>2022-03-21T08:56:07Z</time>
      </trkpt>
      <trkpt lat="43.25173" lon="5.90013">
        <ele>773</ele>
        <time>2022-03-21T08:56:09Z</time>
      </trkpt>
      <trkpt lat="43.25169" lon="5.90025">
        <ele>773</ele>
        <time>2022-03-21T08:56:11Z</time>
      </trkpt>
      <trkpt lat="43.25169" lon="5.90039">
        <ele>772</ele>
        <time>2022-03-21T08:56:14Z</time>
      </trkpt>
      <trkpt lat="43.25159" lon="5.90062">
        <ele>773</ele>
        <time>2022-03-21T08:56:18Z</time>
      </trkpt>
      <trkpt lat="43.25143" lon="5.90115">
        <ele>775</ele>
        <time>2022-03-21T08:56:28Z</time>
      </trkpt>
      <trkpt lat="43.25131" lon="5.90112">
        <ele>776</ele>
        <time>2022-03-21T08:56:31Z</time>
      </trkpt>
      <trkpt lat="43.25116" lon="5.90095">
        <ele>778</ele>
        <time>2022-03-21T08:56:35Z</time>
      </trkpt>
      <trkpt lat="43.25107" lon="5.90089">
        <ele>779</ele>
        <time>2022-03-21T08:56:38Z</time>
      </trkpt>
      <trkpt lat="43.251" lon="5.90078">
        <ele>780</ele>
        <time>2022-03-21T08:56:40Z</time>
      </trkpt>
      <trkpt lat="43.2509" lon="5.90052">
        <ele>780</ele>
        <time>2022-03-21T08:56:45Z</time>
      </trkpt>
      <trkpt lat="43.2507" lon="5.90018">
        <ele>779</ele>
        <time>2022-03-21T08:56:53Z</time>
      </trkpt>
      <trkpt lat="43.25051" lon="5.90016">
        <ele>778</ele>
        <time>2022-03-21T08:56:57Z</time>
      </trkpt>
      <trkpt lat="43.2503" lon="5.9001">
        <ele>777</ele>
        <time>2022-03-21T08:57:02Z</time>
      </trkpt>
      <trkpt lat="43.25021" lon="5.90004">
        <ele>776</ele>
        <time>2022-03-21T08:57:04Z</time>
      </trkpt>
      <trkpt lat="43.25013" lon="5.89989">
        <ele>775</ele>
        <time>2022-03-21T08:57:08Z</time>
      </trkpt>
      <trkpt lat="43.24991" lon="5.89961">
        <ele>773</ele>
        <time>2022-03-21T08:57:15Z</time>
      </trkpt>
      <trkpt lat="43.24955" lon="5.89929">
        <ele>769</ele>
        <time>2022-03-21T08:57:25Z</time>
      </trkpt>
      <trkpt lat="43.24946" lon="5.89923">
        <ele>768</ele>
        <time>2022-03-21T08:57:27Z</time>
      </trkpt>
      <trkpt lat="43.24937" lon="5.89922">
        <ele>767</ele>
        <time>2022-03-21T08:57:29Z</time>
      </trkpt>
      <trkpt lat="43.24928" lon="5.89916">
        <ele>766</ele>
        <time>2022-03-21T08:57:31Z</time>
      </trkpt>
      <trkpt lat="43.24907" lon="5.89908">
        <ele>764</ele>
        <time>2022-03-21T08:57:36Z</time>
      </trkpt>
      <trkpt lat="43.24886" lon="5.89896">
        <ele>762</ele>
        <time>2022-03-21T08:57:42Z</time>
      </trkpt>
      <trkpt lat="43.24874" lon="5.89893">
        <ele>761</ele>
        <time>2022-03-21T08:57:45Z</time>
      </trkpt>
      <trkpt lat="43.24842" lon="5.89893">
        <ele>759</ele>
        <time>2022-03-21T08:57:52Z</time>
      </trkpt>
      <trkpt lat="43.24834" lon="5.89886">
        <ele>758</ele>
        <time>2022-03-21T08:57:54Z</time>
      </trkpt>
      <trkpt lat="43.24825" lon="5.89882">
        <ele>757</ele>
        <time>2022-03-21T08:57:57Z</time>
      </trkpt>
      <trkpt lat="43.24794" lon="5.89873">
        <ele>753</ele>
        <time>2022-03-21T08:58:04Z</time>
      </trkpt>
      <trkpt lat="43.2479" lon="5.89841">
        <ele>752</ele>
        <time>2022-03-21T08:58:09Z</time>
      </trkpt>
      <trkpt lat="43.24781" lon="5.89818">
        <ele>750</ele>
        <time>2022-03-21T08:58:14Z</time>
      </trkpt>
      <trkpt lat="43.24743" lon="5.89813">
        <ele>746</ele>
        <time>2022-03-21T08:58:23Z</time>
      </trkpt>
      <trkpt lat="43.24719" lon="5.89826">
        <ele>744</ele>
        <time>2022-03-21T08:58:29Z</time>
      </trkpt>
      <trkpt lat="43.2471" lon="5.89819">
        <ele>742</ele>
        <time>2022-03-21T08:58:31Z</time>
      </trkpt>
      <trkpt lat="43.24696" lon="5.89779">
        <ele>739</ele>
        <time>2022-03-21T08:58:39Z</time>
      </trkpt>
      <trkpt lat="43.24675" lon="5.89757">
        <ele>735</ele>
        <time>2022-03-21T08:58:45Z</time>
      </trkpt>
      <trkpt lat="43.24669" lon="5.89744">
        <ele>734</ele>
        <time>2022-03-21T08:58:48Z</time>
      </trkpt>
      <trkpt lat="43.2466" lon="5.89733">
        <ele>732</ele>
        <time>2022-03-21T08:58:50Z</time>
      </trkpt>
      <trkpt lat="43.24651" lon="5.89729">
        <ele>731</ele>
        <time>2022-03-21T08:58:53Z</time>
      </trkpt>
      <trkpt lat="43.24635" lon="5.89694">
        <ele>727</ele>
        <time>2022-03-21T08:59:00Z</time>
      </trkpt>
      <trkpt lat="43.24623" lon="5.89693">
        <ele>726</ele>
        <time>2022-03-21T08:59:02Z</time>
      </trkpt>
      <trkpt lat="43.24614" lon="5.89702">
        <ele>725</ele>
        <time>2022-03-21T08:59:05Z</time>
      </trkpt>
      <trkpt lat="43.24603" lon="5.89708">
        <ele>723</ele>
        <time>2022-03-21T08:59:08Z</time>
      </trkpt>
      <trkpt lat="43.24578" lon="5.89713">
        <ele>720</ele>
        <time>2022-03-21T08:59:14Z</time>
      </trkpt>
      <trkpt lat="43.24567" lon="5.89712">
        <ele>718</ele>
        <time>2022-03-21T08:59:16Z</time>
      </trkpt>
      <trkpt lat="43.24556" lon="5.89707">
        <ele>716</ele>
        <time>2022-03-21T08:59:19Z</time>
      </trkpt>
      <trkpt lat="43.24528" lon="5.89686">
        <ele>710</ele>
        <time>2022-03-21T08:59:26Z</time>
      </trkpt>
      <trkpt lat="43.24515" lon="5.89684">
        <ele>708</ele>
        <time>2022-03-21T08:59:29Z</time>
      </trkpt>
      <trkpt lat="43.24475" lon="5.89682">
        <ele>701</ele>
        <time>2022-03-21T08:59:39Z</time>
      </trkpt>
      <trkpt lat="43.24464" lon="5.89685">
        <ele>699</ele>
        <time>2022-03-21T08:59:41Z</time>
      </trkpt>
      <trkpt lat="43.24445" lon="5.89698">
        <ele>696</ele>
        <time>2022-03-21T08:59:46Z</time>
      </trkpt>
      <trkpt lat="43.24433" lon="5.89696">
        <ele>694</ele>
        <time>2022-03-21T08:59:49Z</time>
      </trkpt>
      <trkpt lat="43.24408" lon="5.89658">
        <ele>689</ele>
        <time>2022-03-21T08:59:58Z</time>
      </trkpt>
      <trkpt lat="43.24389" lon="5.89665">
        <ele>687</ele>
        <time>2022-03-21T09:00:03Z</time>
      </trkpt>
      <trkpt lat="43.24347" lon="5.89661">
        <ele>681</ele>
        <time>2022-03-21T09:00:12Z</time>
      </trkpt>
      <trkpt lat="43.24337" lon="5.89666">
        <ele>680</ele>
        <time>2022-03-21T09:00:15Z</time>
      </trkpt>
      <trkpt lat="43.24332" lon="5.89695">
        <ele>682</ele>
        <time>2022-03-21T09:00:20Z</time>
      </trkpt>
      <trkpt lat="43.24322" lon="5.89706">
        <ele>683</ele>
        <time>2022-03-21T09:00:23Z</time>
      </trkpt>
      <trkpt lat="43.24301" lon="5.89711">
        <ele>684</ele>
        <time>2022-03-21T09:00:28Z</time>
      </trkpt>
      <trkpt lat="43.24294" lon="5.89702">
        <ele>684</ele>
        <time>2022-03-21T09:00:30Z</time>
      </trkpt>
      <trkpt lat="43.24291" lon="5.89689">
        <ele>683</ele>
        <time>2022-03-21T09:00:32Z</time>
      </trkpt>
      <trkpt lat="43.24292" lon="5.89642">
        <ele>680</ele>
        <time>2022-03-21T09:00:40Z</time>
      </trkpt>
      <trkpt lat="43.2428" lon="5.89585">
        <ele>674</ele>
        <time>2022-03-21T09:00:51Z</time>
      </trkpt>
      <trkpt lat="43.24283" lon="5.89572">
        <ele>673</ele>
        <time>2022-03-21T09:00:53Z</time>
      </trkpt>
      <trkpt lat="43.24278" lon="5.89499">
        <ele>669</ele>
        <time>2022-03-21T09:01:05Z</time>
      </trkpt>
      <trkpt lat="43.24257" lon="5.89447">
        <ele>664</ele>
        <time>2022-03-21T09:01:15Z</time>
      </trkpt>
      <trkpt lat="43.24243" lon="5.89425">
        <ele>662</ele>
        <time>2022-03-21T09:01:20Z</time>
      </trkpt>
      <trkpt lat="43.2424" lon="5.89412">
        <ele>661</ele>
        <time>2022-03-21T09:01:23Z</time>
      </trkpt>
      <trkpt lat="43.24234" lon="5.89401">
        <ele>660</ele>
        <time>2022-03-21T09:01:25Z</time>
      </trkpt>
      <trkpt lat="43.24231" lon="5.89372">
        <ele>658</ele>
        <time>2022-03-21T09:01:30Z</time>
      </trkpt>
      <trkpt lat="43.24222" lon="5.89349">
        <ele>656</ele>
        <time>2022-03-21T09:01:34Z</time>
      </trkpt>
      <trkpt lat="43.24215" lon="5.89306">
        <ele>653</ele>
        <time>2022-03-21T09:01:42Z</time>
      </trkpt>
      <trkpt lat="43.24215" lon="5.89274">
        <ele>651</ele>
        <time>2022-03-21T09:01:47Z</time>
      </trkpt>
      <trkpt lat="43.24204" lon="5.89246">
        <ele>648</ele>
        <time>2022-03-21T09:01:53Z</time>
      </trkpt>
      <trkpt lat="43.24195" lon="5.8917">
        <ele>644</ele>
        <time>2022-03-21T09:02:06Z</time>
      </trkpt>
      <trkpt lat="43.24188" lon="5.89156">
        <ele>643</ele>
        <time>2022-03-21T09:02:09Z</time>
      </trkpt>
      <trkpt lat="43.24158" lon="5.89117">
        <ele>638</ele>
        <time>2022-03-21T09:02:18Z</time>
      </trkpt>
      <trkpt lat="43.24149" lon="5.89082">
        <ele>636</ele>
        <time>2022-03-21T09:02:25Z</time>
      </trkpt>
      <trkpt lat="43.24142" lon="5.89069">
        <ele>636</ele>
        <time>2022-03-21T09:02:28Z</time>
      </trkpt>
      <trkpt lat="43.24098" lon="5.89033">
        <ele>631</ele>
        <time>2022-03-21T09:02:40Z</time>
      </trkpt>
      <trkpt lat="43.24058" lon="5.89024">
        <ele>626</ele>
        <time>2022-03-21T09:02:49Z</time>
      </trkpt>
      <trkpt lat="43.24035" lon="5.89053">
        <ele>624</ele>
        <time>2022-03-21T09:02:56Z</time>
      </trkpt>
      <trkpt lat="43.24012" lon="5.89057">
        <ele>622</ele>
        <time>2022-03-21T09:03:02Z</time>
      </trkpt>
      <trkpt lat="43.24" lon="5.89053">
        <ele>621</ele>
        <time>2022-03-21T09:03:05Z</time>
      </trkpt>
      <trkpt lat="43.23988" lon="5.89046">
        <ele>621</ele>
        <time>2022-03-21T09:03:08Z</time>
      </trkpt>
      <trkpt lat="43.23968" lon="5.89024">
        <ele>620</ele>
        <time>2022-03-21T09:03:14Z</time>
      </trkpt>
      <trkpt lat="43.23957" lon="5.89017">
        <ele>619</ele>
        <time>2022-03-21T09:03:16Z</time>
      </trkpt>
      <trkpt lat="43.23932" lon="5.89009">
        <ele>618</ele>
        <time>2022-03-21T09:03:22Z</time>
      </trkpt>
      <trkpt lat="43.23879" lon="5.88941">
        <ele>615</ele>
        <time>2022-03-21T09:03:39Z</time>
      </trkpt>
      <trkpt lat="43.23869" lon="5.88912">
        <ele>614</ele>
        <time>2022-03-21T09:03:45Z</time>
      </trkpt>
      <trkpt lat="43.23864" lon="5.88865">
        <ele>613</ele>
        <time>2022-03-21T09:03:53Z</time>
      </trkpt>
      <trkpt lat="43.23866" lon="5.88852">
        <ele>612</ele>
        <time>2022-03-21T09:03:55Z</time>
      </trkpt>
      <trkpt lat="43.23863" lon="5.88826">
        <ele>612</ele>
        <time>2022-03-21T09:04:00Z</time>
      </trkpt>
      <trkpt lat="43.23864" lon="5.88813">
        <ele>612</ele>
        <time>2022-03-21T09:04:02Z</time>
      </trkpt>
      <trkpt lat="43.23859" lon="5.888">
        <ele>612</ele>
        <time>2022-03-21T09:04:04Z</time>
      </trkpt>
      <trkpt lat="43.23851" lon="5.8879">
        <ele>613</ele>
        <time>2022-03-21T09:04:07Z</time>
      </trkpt>
      <trkpt lat="43.23844" lon="5.88772">
        <ele>613</ele>
        <time>2022-03-21T09:04:10Z</time>
      </trkpt>
      <trkpt lat="43.23844" lon="5.88756">
        <ele>613</ele>
        <time>2022-03-21T09:04:13Z</time>
      </trkpt>
      <trkpt lat="43.23857" lon="5.88736">
        <ele>613</ele>
        <time>2022-03-21T09:04:18Z</time>
      </trkpt>
      <trkpt lat="43.23882" lon="5.88671">
        <ele>611</ele>
        <time>2022-03-21T09:04:30Z</time>
      </trkpt>
      <trkpt lat="43.23902" lon="5.88534">
        <ele>611</ele>
        <time>2022-03-21T09:04:54Z</time>
      </trkpt>
      <trkpt lat="43.23909" lon="5.88442">
        <ele>607</ele>
        <time>2022-03-21T09:05:10Z</time>
      </trkpt>
      <trkpt lat="43.23899" lon="5.88372">
        <ele>604</ele>
        <time>2022-03-21T09:05:22Z</time>
      </trkpt>
      <trkpt lat="43.23894" lon="5.88354">
        <ele>603</ele>
        <time>2022-03-21T09:05:25Z</time>
      </trkpt>
      <trkpt lat="43.23876" lon="5.88319">
        <ele>602</ele>
        <time>2022-03-21T09:05:32Z</time>
      </trkpt>
      <trkpt lat="43.23857" lon="5.88293">
        <ele>601</ele>
        <time>2022-03-21T09:05:39Z</time>
      </trkpt>
      <trkpt lat="43.23847" lon="5.88273">
        <ele>600</ele>
        <time>2022-03-21T09:05:43Z</time>
      </trkpt>
      <trkpt lat="43.23842" lon="5.88261">
        <ele>599</ele>
        <time>2022-03-21T09:05:45Z</time>
      </trkpt>
      <trkpt lat="43.23837" lon="5.88237">
        <ele>599</ele>
        <time>2022-03-21T09:05:49Z</time>
      </trkpt>
      <trkpt lat="43.23836" lon="5.8821">
        <ele>598</ele>
        <time>2022-03-21T09:05:54Z</time>
      </trkpt>
      <trkpt lat="43.23838" lon="5.88197">
        <ele>598</ele>
        <time>2022-03-21T09:05:56Z</time>
      </trkpt>
      <trkpt lat="43.23854" lon="5.88141">
        <ele>595</ele>
        <time>2022-03-21T09:06:06Z</time>
      </trkpt>
      <trkpt lat="43.23866" lon="5.88082">
        <ele>592</ele>
        <time>2022-03-21T09:06:17Z</time>
      </trkpt>
      <trkpt lat="43.23867" lon="5.88039">
        <ele>591</ele>
        <time>2022-03-21T09:06:24Z</time>
      </trkpt>
      <trkpt lat="43.23862" lon="5.87999">
        <ele>589</ele>
        <time>2022-03-21T09:06:31Z</time>
      </trkpt>
      <trkpt lat="43.23857" lon="5.87973">
        <ele>588</ele>
        <time>2022-03-21T09:06:36Z</time>
      </trkpt>
      <trkpt lat="43.2385" lon="5.87952">
        <ele>587</ele>
        <time>2022-03-21T09:06:40Z</time>
      </trkpt>
      <trkpt lat="43.23838" lon="5.87943">
        <ele>586</ele>
        <time>2022-03-21T09:06:43Z</time>
      </trkpt>
      <trkpt lat="43.23803" lon="5.87948">
        <ele>588</ele>
        <time>2022-03-21T09:06:51Z</time>
      </trkpt>
      <trkpt lat="43.23771" lon="5.87956">
        <ele>591</ele>
        <time>2022-03-21T09:06:59Z</time>
      </trkpt>
      <trkpt lat="43.23761" lon="5.87953">
        <ele>592</ele>
        <time>2022-03-21T09:07:01Z</time>
      </trkpt>
      <trkpt lat="43.23754" lon="5.87944">
        <ele>592</ele>
        <time>2022-03-21T09:07:03Z</time>
      </trkpt>
      <trkpt lat="43.23748" lon="5.8793">
        <ele>592</ele>
        <time>2022-03-21T09:07:06Z</time>
      </trkpt>
      <trkpt lat="43.23745" lon="5.87851">
        <ele>594</ele>
        <time>2022-03-21T09:07:19Z</time>
      </trkpt>
      <trkpt lat="43.23736" lon="5.87792">
        <ele>597</ele>
        <time>2022-03-21T09:07:30Z</time>
      </trkpt>
      <trkpt lat="43.2371" lon="5.8768">
        <ele>600</ele>
        <time>2022-03-21T09:07:50Z</time>
      </trkpt>
      <trkpt lat="43.2371" lon="5.87603">
        <ele>602</ele>
        <time>2022-03-21T09:08:03Z</time>
      </trkpt>
      <trkpt lat="43.23701" lon="5.87516">
        <ele>605</ele>
        <time>2022-03-21T09:08:18Z</time>
      </trkpt>
      <trkpt lat="43.2369" lon="5.87458">
        <ele>606</ele>
        <time>2022-03-21T09:08:28Z</time>
      </trkpt>
      <trkpt lat="43.23674" lon="5.87405">
        <ele>607</ele>
        <time>2022-03-21T09:08:38Z</time>
      </trkpt>
      <trkpt lat="43.23658" lon="5.8732">
        <ele>605</ele>
        <time>2022-03-21T09:08:53Z</time>
      </trkpt>
      <trkpt lat="43.23598" lon="5.87206">
        <ele>601</ele>
        <time>2022-03-21T09:09:17Z</time>
      </trkpt>
      <trkpt lat="43.23579" lon="5.8716">
        <ele>600</ele>
        <time>2022-03-21T09:09:26Z</time>
      </trkpt>
      <trkpt lat="43.23553" lon="5.87121">
        <ele>599</ele>
        <time>2022-03-21T09:09:35Z</time>
      </trkpt>
      <trkpt lat="43.23508" lon="5.86998">
        <ele>595</ele>
        <time>2022-03-21T09:09:58Z</time>
      </trkpt>
      <trkpt lat="43.23495" lon="5.86932">
        <ele>591</ele>
        <time>2022-03-21T09:10:10Z</time>
      </trkpt>
      <trkpt lat="43.23466" lon="5.86831">
        <ele>584</ele>
        <time>2022-03-21T09:10:28Z</time>
      </trkpt>
      <trkpt lat="43.23455" lon="5.86803">
        <ele>583</ele>
        <time>2022-03-21T09:10:33Z</time>
      </trkpt>
      <trkpt lat="43.23447" lon="5.86789">
        <ele>582</ele>
        <time>2022-03-21T09:10:37Z</time>
      </trkpt>
      <trkpt lat="43.23421" lon="5.86758">
        <ele>577</ele>
        <time>2022-03-21T09:10:45Z</time>
      </trkpt>
      <trkpt lat="43.23399" lon="5.86725">
        <ele>573</ele>
        <time>2022-03-21T09:10:52Z</time>
      </trkpt>
      <trkpt lat="43.23358" lon="5.86624">
        <ele>561</ele>
        <time>2022-03-21T09:11:12Z</time>
      </trkpt>
      <trkpt lat="43.23348" lon="5.86591">
        <ele>558</ele>
        <time>2022-03-21T09:11:18Z</time>
      </trkpt>
      <trkpt lat="43.23338" lon="5.86545">
        <ele>554</ele>
        <time>2022-03-21T09:11:26Z</time>
      </trkpt>
      <trkpt lat="43.23332" lon="5.86531">
        <ele>553</ele>
        <time>2022-03-21T09:11:29Z</time>
      </trkpt>
      <trkpt lat="43.2331" lon="5.86497">
        <ele>549</ele>
        <time>2022-03-21T09:11:37Z</time>
      </trkpt>
      <trkpt lat="43.23292" lon="5.86461">
        <ele>544</ele>
        <time>2022-03-21T09:11:44Z</time>
      </trkpt>
      <trkpt lat="43.23279" lon="5.86406">
        <ele>539</ele>
        <time>2022-03-21T09:11:54Z</time>
      </trkpt>
      <trkpt lat="43.23251" lon="5.86344">
        <ele>535</ele>
        <time>2022-03-21T09:12:06Z</time>
      </trkpt>
      <trkpt lat="43.23244" lon="5.86334">
        <ele>534</ele>
        <time>2022-03-21T09:12:09Z</time>
      </trkpt>
      <trkpt lat="43.23235" lon="5.86327">
        <ele>534</ele>
        <time>2022-03-21T09:12:11Z</time>
      </trkpt>
      <trkpt lat="43.23215" lon="5.86318">
        <ele>531</ele>
        <time>2022-03-21T09:12:16Z</time>
      </trkpt>
      <trkpt lat="43.23192" lon="5.86297">
        <ele>528</ele>
        <time>2022-03-21T09:12:22Z</time>
      </trkpt>
      <trkpt lat="43.23171" lon="5.86267">
        <ele>524</ele>
        <time>2022-03-21T09:12:29Z</time>
      </trkpt>
      <trkpt lat="43.23147" lon="5.86225">
        <ele>519</ele>
        <time>2022-03-21T09:12:39Z</time>
      </trkpt>
      <trkpt lat="43.23126" lon="5.86201">
        <ele>516</ele>
        <time>2022-03-21T09:12:45Z</time>
      </trkpt>
      <trkpt lat="43.23103" lon="5.86185">
        <ele>512</ele>
        <time>2022-03-21T09:12:51Z</time>
      </trkpt>
      <trkpt lat="43.23033" lon="5.86159">
        <ele>505</ele>
        <time>2022-03-21T09:13:08Z</time>
      </trkpt>
      <trkpt lat="43.22954" lon="5.86108">
        <ele>499</ele>
        <time>2022-03-21T09:13:28Z</time>
      </trkpt>
      <trkpt lat="43.22957" lon="5.86091">
        <ele>497</ele>
        <time>2022-03-21T09:13:31Z</time>
      </trkpt>
      <trkpt lat="43.22951" lon="5.86081">
        <ele>496</ele>
        <time>2022-03-21T09:13:33Z</time>
      </trkpt>
      <trkpt lat="43.22946" lon="5.86054">
        <ele>494</ele>
        <time>2022-03-21T09:13:38Z</time>
      </trkpt>
      <trkpt lat="43.22949" lon="5.86024">
        <ele>493</ele>
        <time>2022-03-21T09:13:43Z</time>
      </trkpt>
      <trkpt lat="43.22983" lon="5.85951">
        <ele>492</ele>
        <time>2022-03-21T09:13:58Z</time>
      </trkpt>
      <trkpt lat="43.23003" lon="5.85923">
        <ele>492</ele>
        <time>2022-03-21T09:14:05Z</time>
      </trkpt>
      <trkpt lat="43.23035" lon="5.85893">
        <ele>490</ele>
        <time>2022-03-21T09:14:14Z</time>
      </trkpt>
      <trkpt lat="43.23052" lon="5.8588">
        <ele>490</ele>
        <time>2022-03-21T09:14:18Z</time>
      </trkpt>
      <trkpt lat="43.23082" lon="5.85865">
        <ele>489</ele>
        <time>2022-03-21T09:14:26Z</time>
      </trkpt>
      <trkpt lat="43.23127" lon="5.85828">
        <ele>489</ele>
        <time>2022-03-21T09:14:38Z</time>
      </trkpt>
      <trkpt lat="43.23153" lon="5.85803">
        <ele>487</ele>
        <time>2022-03-21T09:14:46Z</time>
      </trkpt>
      <trkpt lat="43.23226" lon="5.85748">
        <ele>485</ele>
        <time>2022-03-21T09:15:05Z</time>
      </trkpt>
      <trkpt lat="43.23247" lon="5.85741">
        <ele>487</ele>
        <time>2022-03-21T09:15:10Z</time>
      </trkpt>
      <trkpt lat="43.23328" lon="5.8573">
        <ele>491</ele>
        <time>2022-03-21T09:15:29Z</time>
      </trkpt>
      <trkpt lat="43.23349" lon="5.85719">
        <ele>491</ele>
        <time>2022-03-21T09:15:34Z</time>
      </trkpt>
      <trkpt lat="43.23374" lon="5.85713">
        <ele>492</ele>
        <time>2022-03-21T09:15:40Z</time>
      </trkpt>
      <trkpt lat="43.23385" lon="5.85704">
        <ele>492</ele>
        <time>2022-03-21T09:15:43Z</time>
      </trkpt>
      <trkpt lat="43.23389" lon="5.85691">
        <ele>492</ele>
        <time>2022-03-21T09:15:46Z</time>
      </trkpt>
      <trkpt lat="43.2339" lon="5.85675">
        <ele>491</ele>
        <time>2022-03-21T09:15:48Z</time>
      </trkpt>
      <trkpt lat="43.23404" lon="5.85636">
        <ele>497</ele>
        <time>2022-03-21T09:15:56Z</time>
      </trkpt>
      <trkpt lat="43.23433" lon="5.85618">
        <ele>502</ele>
        <time>2022-03-21T09:16:03Z</time>
      </trkpt>
      <trkpt lat="43.23452" lon="5.85613">
        <ele>504</ele>
        <time>2022-03-21T09:16:08Z</time>
      </trkpt>
      <trkpt lat="43.23474" lon="5.85612">
        <ele>505</ele>
        <time>2022-03-21T09:16:13Z</time>
      </trkpt>
      <trkpt lat="43.23484" lon="5.85609">
        <ele>506</ele>
        <time>2022-03-21T09:16:15Z</time>
      </trkpt>
      <trkpt lat="43.23509" lon="5.85593">
        <ele>507</ele>
        <time>2022-03-21T09:16:22Z</time>
      </trkpt>
      <trkpt lat="43.2352" lon="5.85592">
        <ele>508</ele>
        <time>2022-03-21T09:16:24Z</time>
      </trkpt>
      <trkpt lat="43.23538" lon="5.85584">
        <ele>508</ele>
        <time>2022-03-21T09:16:29Z</time>
      </trkpt>
      <trkpt lat="43.23548" lon="5.85584">
        <ele>509</ele>
        <time>2022-03-21T09:16:31Z</time>
      </trkpt>
      <trkpt lat="43.23568" lon="5.85596">
        <ele>510</ele>
        <time>2022-03-21T09:16:36Z</time>
      </trkpt>
      <trkpt lat="43.23599" lon="5.85633">
        <ele>514</ele>
        <time>2022-03-21T09:16:46Z</time>
      </trkpt>
      <trkpt lat="43.23647" lon="5.85672">
        <ele>516</ele>
        <time>2022-03-21T09:16:59Z</time>
      </trkpt>
      <trkpt lat="43.23657" lon="5.85684">
        <ele>517</ele>
        <time>2022-03-21T09:17:02Z</time>
      </trkpt>
      <trkpt lat="43.23669" lon="5.85688">
        <ele>518</ele>
        <time>2022-03-21T09:17:05Z</time>
      </trkpt>
      <trkpt lat="43.23681" lon="5.85682">
        <ele>519</ele>
        <time>2022-03-21T09:17:08Z</time>
      </trkpt>
      <trkpt lat="43.23688" lon="5.85669">
        <ele>519</ele>
        <time>2022-03-21T09:17:10Z</time>
      </trkpt>
      <trkpt lat="43.23684" lon="5.85653">
        <ele>520</ele>
        <time>2022-03-21T09:17:13Z</time>
      </trkpt>
      <trkpt lat="43.23667" lon="5.85629">
        <ele>520</ele>
        <time>2022-03-21T09:17:19Z</time>
      </trkpt>
      <trkpt lat="43.23649" lon="5.85615">
        <ele>520</ele>
        <time>2022-03-21T09:17:24Z</time>
      </trkpt>
      <trkpt lat="43.2361" lon="5.85594">
        <ele>515</ele>
        <time>2022-03-21T09:17:34Z</time>
      </trkpt>
      <trkpt lat="43.23593" lon="5.85568">
        <ele>514</ele>
        <time>2022-03-21T09:17:40Z</time>
      </trkpt>
      <trkpt lat="43.23565" lon="5.85549">
        <ele>516</ele>
        <time>2022-03-21T09:17:47Z</time>
      </trkpt>
      <trkpt lat="43.23544" lon="5.85543">
        <ele>516</ele>
        <time>2022-03-21T09:17:52Z</time>
      </trkpt>
      <trkpt lat="43.23491" lon="5.85551">
        <ele>513</ele>
        <time>2022-03-21T09:18:04Z</time>
      </trkpt>
      <trkpt lat="43.23469" lon="5.8555">
        <ele>513</ele>
        <time>2022-03-21T09:18:09Z</time>
      </trkpt>
      <trkpt lat="43.23448" lon="5.85545">
        <ele>514</ele>
        <time>2022-03-21T09:18:14Z</time>
      </trkpt>
      <trkpt lat="43.23372" lon="5.85547">
        <ele>511</ele>
        <time>2022-03-21T09:18:32Z</time>
      </trkpt>
      <trkpt lat="43.2336" lon="5.85541">
        <ele>511</ele>
        <time>2022-03-21T09:18:35Z</time>
      </trkpt>
      <trkpt lat="43.23361" lon="5.85513">
        <ele>514</ele>
        <time>2022-03-21T09:18:40Z</time>
      </trkpt>
      <trkpt lat="43.23371" lon="5.85487">
        <ele>516</ele>
        <time>2022-03-21T09:18:45Z</time>
      </trkpt>
      <trkpt lat="43.23402" lon="5.85427">
        <ele>518</ele>
        <time>2022-03-21T09:18:57Z</time>
      </trkpt>
      <trkpt lat="43.2342" lon="5.85411">
        <ele>520</ele>
        <time>2022-03-21T09:19:02Z</time>
      </trkpt>
      <trkpt lat="43.23458" lon="5.85385">
        <ele>522</ele>
        <time>2022-03-21T09:19:12Z</time>
      </trkpt>
      <trkpt lat="43.23527" lon="5.85322">
        <ele>525</ele>
        <time>2022-03-21T09:19:32Z</time>
      </trkpt>
      <trkpt lat="43.23543" lon="5.853">
        <ele>525</ele>
        <time>2022-03-21T09:19:37Z</time>
      </trkpt>
      <trkpt lat="43.23571" lon="5.85252">
        <ele>524</ele>
        <time>2022-03-21T09:19:47Z</time>
      </trkpt>
      <trkpt lat="43.23578" lon="5.85261">
        <ele>524</ele>
        <time>2022-03-21T09:19:50Z</time>
      </trkpt>
      <trkpt lat="43.23581" lon="5.85284">
        <ele>526</ele>
        <time>2022-03-21T09:19:54Z</time>
      </trkpt>
      <trkpt lat="43.23584" lon="5.85284">
        <ele>526</ele>
        <time>2022-03-21T09:19:54Z</time>
      </trkpt>
      <trkpt lat="43.2358" lon="5.85297">
        <ele>526</ele>
        <time>2022-03-21T09:19:57Z</time>
      </trkpt>
      <trkpt lat="43.2358" lon="5.85311">
        <ele>527</ele>
        <time>2022-03-21T09:19:59Z</time>
      </trkpt>
      <trkpt lat="43.23593" lon="5.85379">
        <ele>530</ele>
        <time>2022-03-21T09:20:11Z</time>
      </trkpt>
      <trkpt lat="43.23602" lon="5.85407">
        <ele>531</ele>
        <time>2022-03-21T09:20:16Z</time>
      </trkpt>
      <trkpt lat="43.23602" lon="5.85422">
        <ele>531</ele>
        <time>2022-03-21T09:20:19Z</time>
      </trkpt>
      <trkpt lat="43.2361" lon="5.85448">
        <ele>530</ele>
        <time>2022-03-21T09:20:24Z</time>
      </trkpt>
      <trkpt lat="43.23611" lon="5.85462">
        <ele>529</ele>
        <time>2022-03-21T09:20:26Z</time>
      </trkpt>
      <trkpt lat="43.2362" lon="5.85473">
        <ele>530</ele>
        <time>2022-03-21T09:20:29Z</time>
      </trkpt>
      <trkpt lat="43.2363" lon="5.85479">
        <ele>530</ele>
        <time>2022-03-21T09:20:31Z</time>
      </trkpt>
      <trkpt lat="43.23658" lon="5.85504">
        <ele>532</ele>
        <time>2022-03-21T09:20:39Z</time>
      </trkpt>
      <trkpt lat="43.23681" lon="5.8554">
        <ele>531</ele>
        <time>2022-03-21T09:20:47Z</time>
      </trkpt>
      <trkpt lat="43.23711" lon="5.85574">
        <ele>532</ele>
        <time>2022-03-21T09:20:56Z</time>
      </trkpt>
      <trkpt lat="43.23722" lon="5.85582">
        <ele>532</ele>
        <time>2022-03-21T09:20:59Z</time>
      </trkpt>
      <trkpt lat="43.23744" lon="5.85577">
        <ele>536</ele>
        <time>2022-03-21T09:21:05Z</time>
      </trkpt>
      <trkpt lat="43.23754" lon="5.85587">
        <ele>536</ele>
        <time>2022-03-21T09:21:07Z</time>
      </trkpt>
      <trkpt lat="43.23771" lon="5.85622">
        <ele>537</ele>
        <time>2022-03-21T09:21:15Z</time>
      </trkpt>
      <trkpt lat="43.2378" lon="5.85632">
        <ele>538</ele>
        <time>2022-03-21T09:21:17Z</time>
      </trkpt>
      <trkpt lat="43.2379" lon="5.85632">
        <ele>540</ele>
        <time>2022-03-21T09:21:20Z</time>
      </trkpt>
      <trkpt lat="43.238" lon="5.85638">
        <ele>542</ele>
        <time>2022-03-21T09:21:22Z</time>
      </trkpt>
      <trkpt lat="43.23831" lon="5.85645">
        <ele>549</ele>
        <time>2022-03-21T09:21:30Z</time>
      </trkpt>
      <trkpt lat="43.23852" lon="5.85645">
        <ele>553</ele>
        <time>2022-03-21T09:21:34Z</time>
      </trkpt>
      <trkpt lat="43.2386" lon="5.85652">
        <ele>554</ele>
        <time>2022-03-21T09:21:37Z</time>
      </trkpt>
      <trkpt lat="43.23867" lon="5.85661">
        <ele>556</ele>
        <time>2022-03-21T09:21:39Z</time>
      </trkpt>
      <trkpt lat="43.23866" lon="5.8569">
        <ele>555</ele>
        <time>2022-03-21T09:21:44Z</time>
      </trkpt>
      <trkpt lat="43.23868" lon="5.85703">
        <ele>556</ele>
        <time>2022-03-21T09:21:46Z</time>
      </trkpt>
      <trkpt lat="43.23862" lon="5.85729">
        <ele>554</ele>
        <time>2022-03-21T09:21:51Z</time>
      </trkpt>
      <trkpt lat="43.23862" lon="5.85743">
        <ele>554</ele>
        <time>2022-03-21T09:21:53Z</time>
      </trkpt>
      <trkpt lat="43.23867" lon="5.85756">
        <ele>554</ele>
        <time>2022-03-21T09:21:56Z</time>
      </trkpt>
      <trkpt lat="43.23875" lon="5.85764">
        <ele>555</ele>
        <time>2022-03-21T09:21:58Z</time>
      </trkpt>
      <trkpt lat="43.23897" lon="5.85769">
        <ele>559</ele>
        <time>2022-03-21T09:22:03Z</time>
      </trkpt>
      <trkpt lat="43.23939" lon="5.85757">
        <ele>566</ele>
        <time>2022-03-21T09:22:13Z</time>
      </trkpt>
      <trkpt lat="43.23948" lon="5.85752">
        <ele>567</ele>
        <time>2022-03-21T09:22:15Z</time>
      </trkpt>
      <trkpt lat="43.24034" lon="5.85766">
        <ele>574</ele>
        <time>2022-03-21T09:22:36Z</time>
      </trkpt>
      <trkpt lat="43.24056" lon="5.85767">
        <ele>577</ele>
        <time>2022-03-21T09:22:41Z</time>
      </trkpt>
      <trkpt lat="43.2409" lon="5.85763">
        <ele>580</ele>
        <time>2022-03-21T09:22:49Z</time>
      </trkpt>
      <trkpt lat="43.2414" lon="5.85766">
        <ele>583</ele>
        <time>2022-03-21T09:23:00Z</time>
      </trkpt>
      <trkpt lat="43.24159" lon="5.85765">
        <ele>584</ele>
        <time>2022-03-21T09:23:05Z</time>
      </trkpt>
      <trkpt lat="43.24168" lon="5.85761">
        <ele>585</ele>
        <time>2022-03-21T09:23:07Z</time>
      </trkpt>
      <trkpt lat="43.24188" lon="5.85748">
        <ele>586</ele>
        <time>2022-03-21T09:23:12Z</time>
      </trkpt>
      <trkpt lat="43.24212" lon="5.85739">
        <ele>586</ele>
        <time>2022-03-21T09:23:18Z</time>
      </trkpt>
      <trkpt lat="43.24223" lon="5.85731">
        <ele>587</ele>
        <time>2022-03-21T09:23:21Z</time>
      </trkpt>
      <trkpt lat="43.24254" lon="5.857">
        <ele>587</ele>
        <time>2022-03-21T09:23:30Z</time>
      </trkpt>
      <trkpt lat="43.24333" lon="5.85593">
        <ele>590</ele>
        <time>2022-03-21T09:23:56Z</time>
      </trkpt>
      <trkpt lat="43.24412" lon="5.85471">
        <ele>593</ele>
        <time>2022-03-21T09:24:24Z</time>
      </trkpt>
      <trkpt lat="43.2443" lon="5.85449">
        <ele>594</ele>
        <time>2022-03-21T09:24:29Z</time>
      </trkpt>
      <trkpt lat="43.24441" lon="5.85444">
        <ele>595</ele>
        <time>2022-03-21T09:24:32Z</time>
      </trkpt>
      <trkpt lat="43.24478" lon="5.8544">
        <ele>598</ele>
        <time>2022-03-21T09:24:41Z</time>
      </trkpt>
      <trkpt lat="43.24489" lon="5.85441">
        <ele>599</ele>
        <time>2022-03-21T09:24:43Z</time>
      </trkpt>
      <trkpt lat="43.2451" lon="5.85446">
        <ele>602</ele>
        <time>2022-03-21T09:24:48Z</time>
      </trkpt>
      <trkpt lat="43.24528" lon="5.85458">
        <ele>604</ele>
        <time>2022-03-21T09:24:53Z</time>
      </trkpt>
      <trkpt lat="43.24587" lon="5.85417">
        <ele>608</ele>
        <time>2022-03-21T09:25:08Z</time>
      </trkpt>
      <trkpt lat="43.24627" lon="5.8541">
        <ele>610</ele>
        <time>2022-03-21T09:25:18Z</time>
      </trkpt>
      <trkpt lat="43.24637" lon="5.85417">
        <ele>611</ele>
        <time>2022-03-21T09:25:20Z</time>
      </trkpt>
      <trkpt lat="43.24633" lon="5.85432">
        <ele>610</ele>
        <time>2022-03-21T09:25:23Z</time>
      </trkpt>
      <trkpt lat="43.24635" lon="5.85441">
        <ele>610</ele>
        <time>2022-03-21T09:25:25Z</time>
      </trkpt>
      <trkpt lat="43.24645" lon="5.85447">
        <ele>611</ele>
        <time>2022-03-21T09:25:27Z</time>
      </trkpt>
      <trkpt lat="43.24645" lon="5.85453">
        <ele>611</ele>
        <time>2022-03-21T09:25:28Z</time>
      </trkpt>
      <trkpt lat="43.24635" lon="5.85476">
        <ele>610</ele>
        <time>2022-03-21T09:25:33Z</time>
      </trkpt>
      <trkpt lat="43.24633" lon="5.8549">
        <ele>610</ele>
        <time>2022-03-21T09:25:35Z</time>
      </trkpt>
      <trkpt lat="43.24636" lon="5.8552">
        <ele>609</ele>
        <time>2022-03-21T09:25:40Z</time>
      </trkpt>
      <trkpt lat="43.2464" lon="5.85536">
        <ele>608</ele>
        <time>2022-03-21T09:25:43Z</time>
      </trkpt>
      <trkpt lat="43.24639" lon="5.85549">
        <ele>607</ele>
        <time>2022-03-21T09:25:45Z</time>
      </trkpt>
      <trkpt lat="43.24645" lon="5.8561">
        <ele>602</ele>
        <time>2022-03-21T09:25:56Z</time>
      </trkpt>
      <trkpt lat="43.24646" lon="5.85651">
        <ele>600</ele>
        <time>2022-03-21T09:26:03Z</time>
      </trkpt>
      <trkpt lat="43.24641" lon="5.85709">
        <ele>596</ele>
        <time>2022-03-21T09:26:13Z</time>
      </trkpt>
      <trkpt lat="43.24645" lon="5.85725">
        <ele>595</ele>
        <time>2022-03-21T09:26:16Z</time>
      </trkpt>
      <trkpt lat="43.24657" lon="5.85731">
        <ele>594</ele>
        <time>2022-03-21T09:26:19Z</time>
      </trkpt>
      <trkpt lat="43.24669" lon="5.85728">
        <ele>595</ele>
        <time>2022-03-21T09:26:22Z</time>
      </trkpt>
      <trkpt lat="43.2468" lon="5.85724">
        <ele>595</ele>
        <time>2022-03-21T09:26:24Z</time>
      </trkpt>
      <trkpt lat="43.24703" lon="5.85709">
        <ele>596</ele>
        <time>2022-03-21T09:26:30Z</time>
      </trkpt>
      <trkpt lat="43.24712" lon="5.85714">
        <ele>596</ele>
        <time>2022-03-21T09:26:32Z</time>
      </trkpt>
      <trkpt lat="43.24738" lon="5.85741">
        <ele>595</ele>
        <time>2022-03-21T09:26:40Z</time>
      </trkpt>
      <trkpt lat="43.24747" lon="5.85732">
        <ele>595</ele>
        <time>2022-03-21T09:26:43Z</time>
      </trkpt>
      <trkpt lat="43.2477" lon="5.85697">
        <ele>598</ele>
        <time>2022-03-21T09:26:51Z</time>
      </trkpt>
      <trkpt lat="43.24799" lon="5.85672">
        <ele>601</ele>
        <time>2022-03-21T09:26:59Z</time>
      </trkpt>
      <trkpt lat="43.24824" lon="5.85641">
        <ele>605</ele>
        <time>2022-03-21T09:27:07Z</time>
      </trkpt>
      <trkpt lat="43.24838" lon="5.85618">
        <ele>607</ele>
        <time>2022-03-21T09:27:12Z</time>
      </trkpt>
      <trkpt lat="43.24855" lon="5.85601">
        <ele>609</ele>
        <time>2022-03-21T09:27:17Z</time>
      </trkpt>
      <trkpt lat="43.2487" lon="5.8558">
        <ele>611</ele>
        <time>2022-03-21T09:27:22Z</time>
      </trkpt>
      <trkpt lat="43.249" lon="5.85546">
        <ele>614</ele>
        <time>2022-03-21T09:27:31Z</time>
      </trkpt>
      <trkpt lat="43.2494" lon="5.85489">
        <ele>617</ele>
        <time>2022-03-21T09:27:44Z</time>
      </trkpt>
      <trkpt lat="43.24952" lon="5.85465">
        <ele>619</ele>
        <time>2022-03-21T09:27:49Z</time>
      </trkpt>
      <trkpt lat="43.25013" lon="5.8539">
        <ele>624</ele>
        <time>2022-03-21T09:28:08Z</time>
      </trkpt>
      <trkpt lat="43.2503" lon="5.85365">
        <ele>627</ele>
        <time>2022-03-21T09:28:14Z</time>
      </trkpt>
      <trkpt lat="43.25042" lon="5.85336">
        <ele>629</ele>
        <time>2022-03-21T09:28:20Z</time>
      </trkpt>
      <trkpt lat="43.25055" lon="5.85312">
        <ele>632</ele>
        <time>2022-03-21T09:28:25Z</time>
      </trkpt>
      <trkpt lat="43.25077" lon="5.85287">
        <ele>636</ele>
        <time>2022-03-21T09:28:31Z</time>
      </trkpt>
      <trkpt lat="43.25083" lon="5.85275">
        <ele>637</ele>
        <time>2022-03-21T09:28:34Z</time>
      </trkpt>
      <trkpt lat="43.2509" lon="5.85267">
        <ele>638</ele>
        <time>2022-03-21T09:28:36Z</time>
      </trkpt>
      <trkpt lat="43.25101" lon="5.85261">
        <ele>639</ele>
        <time>2022-03-21T09:28:39Z</time>
      </trkpt>
      <trkpt lat="43.25133" lon="5.85254">
        <ele>642</ele>
        <time>2022-03-21T09:28:46Z</time>
      </trkpt>
      <trkpt lat="43.2517" lon="5.85228">
        <ele>647</ele>
        <time>2022-03-21T09:28:56Z</time>
      </trkpt>
      <trkpt lat="43.25175" lon="5.85218">
        <ele>648</ele>
        <time>2022-03-21T09:28:58Z</time>
      </trkpt>
      <trkpt lat="43.25184" lon="5.85211">
        <ele>649</ele>
        <time>2022-03-21T09:29:01Z</time>
      </trkpt>
      <trkpt lat="43.25195" lon="5.85207">
        <ele>650</ele>
        <time>2022-03-21T09:29:03Z</time>
      </trkpt>
      <trkpt lat="43.25204" lon="5.85199">
        <ele>651</ele>
        <time>2022-03-21T09:29:06Z</time>
      </trkpt>
      <trkpt lat="43.25216" lon="5.85172">
        <ele>653</ele>
        <time>2022-03-21T09:29:11Z</time>
      </trkpt>
      <trkpt lat="43.25228" lon="5.85168">
        <ele>653</ele>
        <time>2022-03-21T09:29:14Z</time>
      </trkpt>
      <trkpt lat="43.25254" lon="5.85169">
        <ele>654</ele>
        <time>2022-03-21T09:29:20Z</time>
      </trkpt>
      <trkpt lat="43.25278" lon="5.85175">
        <ele>653</ele>
        <time>2022-03-21T09:29:26Z</time>
      </trkpt>
      <trkpt lat="43.25304" lon="5.8517">
        <ele>653</ele>
        <time>2022-03-21T09:29:32Z</time>
      </trkpt>
      <trkpt lat="43.2533" lon="5.8516">
        <ele>653</ele>
        <time>2022-03-21T09:29:38Z</time>
      </trkpt>
      <trkpt lat="43.25365" lon="5.85153">
        <ele>650</ele>
        <time>2022-03-21T09:29:46Z</time>
      </trkpt>
      <trkpt lat="43.25403" lon="5.85138">
        <ele>648</ele>
        <time>2022-03-21T09:29:56Z</time>
      </trkpt>
      <trkpt lat="43.25442" lon="5.85116">
        <ele>645</ele>
        <time>2022-03-21T09:30:05Z</time>
      </trkpt>
      <trkpt lat="43.25483" lon="5.851">
        <ele>641</ele>
        <time>2022-03-21T09:30:15Z</time>
      </trkpt>
      <trkpt lat="43.25512" lon="5.85095">
        <ele>639</ele>
        <time>2022-03-21T09:30:22Z</time>
      </trkpt>
      <trkpt lat="43.2554" lon="5.851">
        <ele>637</ele>
        <time>2022-03-21T09:30:29Z</time>
      </trkpt>
      <trkpt lat="43.25567" lon="5.85115">
        <ele>635</ele>
        <time>2022-03-21T09:30:36Z</time>
      </trkpt>
      <trkpt lat="43.25581" lon="5.85119">
        <ele>635</ele>
        <time>2022-03-21T09:30:39Z</time>
      </trkpt>
      <trkpt lat="43.25593" lon="5.85121">
        <ele>634</ele>
        <time>2022-03-21T09:30:42Z</time>
      </trkpt>
      <trkpt lat="43.25616" lon="5.85117">
        <ele>633</ele>
        <time>2022-03-21T09:30:47Z</time>
      </trkpt>
      <trkpt lat="43.25624" lon="5.85122">
        <ele>633</ele>
        <time>2022-03-21T09:30:49Z</time>
      </trkpt>
      <trkpt lat="43.25629" lon="5.85136">
        <ele>633</ele>
        <time>2022-03-21T09:30:52Z</time>
      </trkpt>
      <trkpt lat="43.25633" lon="5.8516">
        <ele>632</ele>
        <time>2022-03-21T09:30:56Z</time>
      </trkpt>
      <trkpt lat="43.25633" lon="5.85176">
        <ele>631</ele>
        <time>2022-03-21T09:30:59Z</time>
      </trkpt>
      <trkpt lat="43.2564" lon="5.85207">
        <ele>630</ele>
        <time>2022-03-21T09:31:04Z</time>
      </trkpt>
      <trkpt lat="43.2564" lon="5.85222">
        <ele>630</ele>
        <time>2022-03-21T09:31:07Z</time>
      </trkpt>
      <trkpt lat="43.2562" lon="5.85277">
        <ele>629</ele>
        <time>2022-03-21T09:31:17Z</time>
      </trkpt>
      <trkpt lat="43.25607" lon="5.85295">
        <ele>629</ele>
        <time>2022-03-21T09:31:22Z</time>
      </trkpt>
      <trkpt lat="43.25602" lon="5.85312">
        <ele>628</ele>
        <time>2022-03-21T09:31:25Z</time>
      </trkpt>
      <trkpt lat="43.25606" lon="5.85376">
        <ele>626</ele>
        <time>2022-03-21T09:31:36Z</time>
      </trkpt>
      <trkpt lat="43.25618" lon="5.85396">
        <ele>626</ele>
        <time>2022-03-21T09:31:40Z</time>
      </trkpt>
      <trkpt lat="43.25637" lon="5.85404">
        <ele>627</ele>
        <time>2022-03-21T09:31:45Z</time>
      </trkpt>
      <trkpt lat="43.25655" lon="5.85438">
        <ele>627</ele>
        <time>2022-03-21T09:31:52Z</time>
      </trkpt>
      <trkpt lat="43.25692" lon="5.85545">
        <ele>633</ele>
        <time>2022-03-21T09:32:12Z</time>
      </trkpt>
      <trkpt lat="43.25836" lon="5.85863">
        <ele>657</ele>
        <time>2022-03-21T09:33:16Z</time>
      </trkpt>
      <trkpt lat="43.25858" lon="5.85931">
        <ele>666</ele>
        <time>2022-03-21T09:33:28Z</time>
      </trkpt>
      <trkpt lat="43.25876" lon="5.85977">
        <ele>669</ele>
        <time>2022-03-21T09:33:37Z</time>
      </trkpt>
      <trkpt lat="43.2592" lon="5.86118">
        <ele>671</ele>
        <time>2022-03-21T09:34:03Z</time>
      </trkpt>
      <trkpt lat="43.25957" lon="5.86194">
        <ele>683</ele>
        <time>2022-03-21T09:34:19Z</time>
      </trkpt>
      <trkpt lat="43.25974" lon="5.86241">
        <ele>685</ele>
        <time>2022-03-21T09:34:28Z</time>
      </trkpt>
      <trkpt lat="43.25987" lon="5.8629">
        <ele>684</ele>
        <time>2022-03-21T09:34:37Z</time>
      </trkpt>
      <trkpt lat="43.25993" lon="5.8633">
        <ele>683</ele>
        <time>2022-03-21T09:34:44Z</time>
      </trkpt>
      <trkpt lat="43.25992" lon="5.86399">
        <ele>685</ele>
        <time>2022-03-21T09:34:55Z</time>
      </trkpt>
      <trkpt lat="43.25996" lon="5.86426">
        <ele>685</ele>
        <time>2022-03-21T09:35:00Z</time>
      </trkpt>
      <trkpt lat="43.26021" lon="5.86525">
        <ele>687</ele>
        <time>2022-03-21T09:35:18Z</time>
      </trkpt>
      <trkpt lat="43.26031" lon="5.86548">
        <ele>687</ele>
        <time>2022-03-21T09:35:22Z</time>
      </trkpt>
      <trkpt lat="43.26053" lon="5.86576">
        <ele>686</ele>
        <time>2022-03-21T09:35:29Z</time>
      </trkpt>
      <trkpt lat="43.26062" lon="5.86578">
        <ele>685</ele>
        <time>2022-03-21T09:35:32Z</time>
      </trkpt>
      <trkpt lat="43.26071" lon="5.86573">
        <ele>684</ele>
        <time>2022-03-21T09:35:34Z</time>
      </trkpt>
      <trkpt lat="43.26096" lon="5.86539">
        <ele>684</ele>
        <time>2022-03-21T09:35:42Z</time>
      </trkpt>
      <trkpt lat="43.26112" lon="5.86522">
        <ele>684</ele>
        <time>2022-03-21T09:35:47Z</time>
      </trkpt>
      <trkpt lat="43.26125" lon="5.86501">
        <ele>683</ele>
        <time>2022-03-21T09:35:52Z</time>
      </trkpt>
      <trkpt lat="43.26147" lon="5.86482">
        <ele>684</ele>
        <time>2022-03-21T09:35:58Z</time>
      </trkpt>
      <trkpt lat="43.26164" lon="5.86463">
        <ele>686</ele>
        <time>2022-03-21T09:36:03Z</time>
      </trkpt>
      <trkpt lat="43.26175" lon="5.8646">
        <ele>687</ele>
        <time>2022-03-21T09:36:05Z</time>
      </trkpt>
      <trkpt lat="43.26206" lon="5.86462">
        <ele>688</ele>
        <time>2022-03-21T09:36:13Z</time>
      </trkpt>
      <trkpt lat="43.26244" lon="5.86449">
        <ele>692</ele>
        <time>2022-03-21T09:36:22Z</time>
      </trkpt>
      <trkpt lat="43.26255" lon="5.86454">
        <ele>692</ele>
        <time>2022-03-21T09:36:24Z</time>
      </trkpt>
      <trkpt lat="43.26263" lon="5.86461">
        <ele>692</ele>
        <time>2022-03-21T09:36:27Z</time>
      </trkpt>
      <trkpt lat="43.26295" lon="5.86502">
        <ele>691</ele>
        <time>2022-03-21T09:36:37Z</time>
      </trkpt>
      <trkpt lat="43.26311" lon="5.8654">
        <ele>691</ele>
        <time>2022-03-21T09:36:44Z</time>
      </trkpt>
      <trkpt lat="43.26322" lon="5.86594">
        <ele>690</ele>
        <time>2022-03-21T09:36:54Z</time>
      </trkpt>
      <trkpt lat="43.26328" lon="5.86606">
        <ele>691</ele>
        <time>2022-03-21T09:36:56Z</time>
      </trkpt>
      <trkpt lat="43.26332" lon="5.86622">
        <ele>691</ele>
        <time>2022-03-21T09:36:59Z</time>
      </trkpt>
      <trkpt lat="43.26338" lon="5.86632">
        <ele>692</ele>
        <time>2022-03-21T09:37:01Z</time>
      </trkpt>
      <trkpt lat="43.2634" lon="5.86646">
        <ele>692</ele>
        <time>2022-03-21T09:37:04Z</time>
      </trkpt>
      <trkpt lat="43.26337" lon="5.86662">
        <ele>691</ele>
        <time>2022-03-21T09:37:07Z</time>
      </trkpt>
      <trkpt lat="43.26353" lon="5.86699">
        <ele>694</ele>
        <time>2022-03-21T09:37:14Z</time>
      </trkpt>
      <trkpt lat="43.26348" lon="5.86712">
        <ele>693</ele>
        <time>2022-03-21T09:37:16Z</time>
      </trkpt>
      <trkpt lat="43.2634" lon="5.86719">
        <ele>691</ele>
        <time>2022-03-21T09:37:19Z</time>
      </trkpt>
      <trkpt lat="43.26326" lon="5.86759">
        <ele>688</ele>
        <time>2022-03-21T09:37:26Z</time>
      </trkpt>
      <trkpt lat="43.26339" lon="5.86811">
        <ele>688</ele>
        <time>2022-03-21T09:37:36Z</time>
      </trkpt>
      <trkpt lat="43.26343" lon="5.86851">
        <ele>689</ele>
        <time>2022-03-21T09:37:42Z</time>
      </trkpt>
      <trkpt lat="43.2635" lon="5.86864">
        <ele>691</ele>
        <time>2022-03-21T09:37:45Z</time>
      </trkpt>
      <trkpt lat="43.2635" lon="5.86879">
        <ele>691</ele>
        <time>2022-03-21T09:37:48Z</time>
      </trkpt>
      <trkpt lat="43.26344" lon="5.86889">
        <ele>691</ele>
        <time>2022-03-21T09:37:50Z</time>
      </trkpt>
      <trkpt lat="43.26335" lon="5.86895">
        <ele>689</ele>
        <time>2022-03-21T09:37:52Z</time>
      </trkpt>
      <trkpt lat="43.26337" lon="5.86909">
        <ele>690</ele>
        <time>2022-03-21T09:37:55Z</time>
      </trkpt>
      <trkpt lat="43.26305" lon="5.86924">
        <ele>688</ele>
        <time>2022-03-21T09:38:03Z</time>
      </trkpt>
      <trkpt lat="43.26297" lon="5.8693">
        <ele>687</ele>
        <time>2022-03-21T09:38:05Z</time>
      </trkpt>
      <trkpt lat="43.26272" lon="5.86953">
        <ele>686</ele>
        <time>2022-03-21T09:38:12Z</time>
      </trkpt>
      <trkpt lat="43.26258" lon="5.86972">
        <ele>686</ele>
        <time>2022-03-21T09:38:16Z</time>
      </trkpt>
      <trkpt lat="43.26195" lon="5.87109">
        <ele>695</ele>
        <time>2022-03-21T09:38:44Z</time>
      </trkpt>
      <trkpt lat="43.26184" lon="5.87146">
        <ele>694</ele>
        <time>2022-03-21T09:38:51Z</time>
      </trkpt>
      <trkpt lat="43.26182" lon="5.87172">
        <ele>694</ele>
        <time>2022-03-21T09:38:55Z</time>
      </trkpt>
      <trkpt lat="43.26187" lon="5.87199">
        <ele>695</ele>
        <time>2022-03-21T09:39:00Z</time>
      </trkpt>
      <trkpt lat="43.2621" lon="5.87259">
        <ele>698</ele>
        <time>2022-03-21T09:39:11Z</time>
      </trkpt>
      <trkpt lat="43.26227" lon="5.87292">
        <ele>699</ele>
        <time>2022-03-21T09:39:18Z</time>
      </trkpt>
      <trkpt lat="43.26256" lon="5.87376">
        <ele>697</ele>
        <time>2022-03-21T09:39:34Z</time>
      </trkpt>
      <trkpt lat="43.26261" lon="5.87402">
        <ele>696</ele>
        <time>2022-03-21T09:39:39Z</time>
      </trkpt>
      <trkpt lat="43.26266" lon="5.87469">
        <ele>696</ele>
        <time>2022-03-21T09:39:50Z</time>
      </trkpt>
      <trkpt lat="43.26267" lon="5.87567">
        <ele>699</ele>
        <time>2022-03-21T09:40:07Z</time>
      </trkpt>
      <trkpt lat="43.26274" lon="5.87608">
        <ele>701</ele>
        <time>2022-03-21T09:40:14Z</time>
      </trkpt>
      <trkpt lat="43.26294" lon="5.87674">
        <ele>704</ele>
        <time>2022-03-21T09:40:26Z</time>
      </trkpt>
      <trkpt lat="43.26305" lon="5.8774">
        <ele>708</ele>
        <time>2022-03-21T09:40:38Z</time>
      </trkpt>
      <trkpt lat="43.26309" lon="5.87753">
        <ele>708</ele>
        <time>2022-03-21T09:40:40Z</time>
      </trkpt>
      <trkpt lat="43.26327" lon="5.87802">
        <ele>711</ele>
        <time>2022-03-21T09:40:49Z</time>
      </trkpt>
      <trkpt lat="43.26338" lon="5.87826">
        <ele>711</ele>
        <time>2022-03-21T09:40:54Z</time>
      </trkpt>
      <trkpt lat="43.26357" lon="5.87858">
        <ele>713</ele>
        <time>2022-03-21T09:41:01Z</time>
      </trkpt>
      <trkpt lat="43.2641" lon="5.87922">
        <ele>712</ele>
        <time>2022-03-21T09:41:18Z</time>
      </trkpt>
      <trkpt lat="43.26423" lon="5.87942">
        <ele>713</ele>
        <time>2022-03-21T09:41:22Z</time>
      </trkpt>
      <trkpt lat="43.26453" lon="5.87978">
        <ele>714</ele>
        <time>2022-03-21T09:41:32Z</time>
      </trkpt>
      <trkpt lat="43.26471" lon="5.88004">
        <ele>714</ele>
        <time>2022-03-21T09:41:38Z</time>
      </trkpt>
      <trkpt lat="43.26487" lon="5.88052">
        <ele>714</ele>
        <time>2022-03-21T09:41:47Z</time>
      </trkpt>
      <trkpt lat="43.26492" lon="5.88091">
        <ele>715</ele>
        <time>2022-03-21T09:41:53Z</time>
      </trkpt>
      <trkpt lat="43.26493" lon="5.88144">
        <ele>714</ele>
        <time>2022-03-21T09:42:02Z</time>
      </trkpt>
      <trkpt lat="43.2649" lon="5.88186">
        <ele>713</ele>
        <time>2022-03-21T09:42:10Z</time>
      </trkpt>
      <trkpt lat="43.26483" lon="5.88211">
        <ele>713</ele>
        <time>2022-03-21T09:42:14Z</time>
      </trkpt>
      <trkpt lat="43.26459" lon="5.88271">
        <ele>712</ele>
        <time>2022-03-21T09:42:26Z</time>
      </trkpt>
      <trkpt lat="43.26446" lon="5.88294">
        <ele>711</ele>
        <time>2022-03-21T09:42:31Z</time>
      </trkpt>
      <trkpt lat="43.26438" lon="5.88303">
        <ele>710</ele>
        <time>2022-03-21T09:42:33Z</time>
      </trkpt>
      <trkpt lat="43.26428" lon="5.88313">
        <ele>708</ele>
        <time>2022-03-21T09:42:36Z</time>
      </trkpt>
      <trkpt lat="43.26418" lon="5.88318">
        <ele>707</ele>
        <time>2022-03-21T09:42:39Z</time>
      </trkpt>
      <trkpt lat="43.26399" lon="5.88323">
        <ele>706</ele>
        <time>2022-03-21T09:42:43Z</time>
      </trkpt>
      <trkpt lat="43.26391" lon="5.88328">
        <ele>704</ele>
        <time>2022-03-21T09:42:45Z</time>
      </trkpt>
      <trkpt lat="43.26381" lon="5.88329">
        <ele>704</ele>
        <time>2022-03-21T09:42:47Z</time>
      </trkpt>
      <trkpt lat="43.26361" lon="5.8834">
        <ele>701</ele>
        <time>2022-03-21T09:42:52Z</time>
      </trkpt>
      <trkpt lat="43.26333" lon="5.88349">
        <ele>698</ele>
        <time>2022-03-21T09:42:59Z</time>
      </trkpt>
      <trkpt lat="43.26295" lon="5.88356">
        <ele>694</ele>
        <time>2022-03-21T09:43:08Z</time>
      </trkpt>
      <trkpt lat="43.26282" lon="5.88361">
        <ele>692</ele>
        <time>2022-03-21T09:43:11Z</time>
      </trkpt>
      <trkpt lat="43.26271" lon="5.8837">
        <ele>690</ele>
        <time>2022-03-21T09:43:14Z</time>
      </trkpt>
      <trkpt lat="43.26265" lon="5.88385">
        <ele>688</ele>
        <time>2022-03-21T09:43:17Z</time>
      </trkpt>
      <trkpt lat="43.26262" lon="5.88402">
        <ele>687</ele>
        <time>2022-03-21T09:43:20Z</time>
      </trkpt>
      <trkpt lat="43.26269" lon="5.88418">
        <ele>687</ele>
        <time>2022-03-21T09:43:23Z</time>
      </trkpt>
      <trkpt lat="43.26304" lon="5.88454">
        <ele>688</ele>
        <time>2022-03-21T09:43:34Z</time>
      </trkpt>
      <trkpt lat="43.26334" lon="5.8849">
        <ele>688</ele>
        <time>2022-03-21T09:43:43Z</time>
      </trkpt>
      <trkpt lat="43.26362" lon="5.8853">
        <ele>688</ele>
        <time>2022-03-21T09:43:52Z</time>
      </trkpt>
      <trkpt lat="43.26366" lon="5.88541">
        <ele>688</ele>
        <time>2022-03-21T09:43:54Z</time>
      </trkpt>
      <trkpt lat="43.26368" lon="5.88612">
        <ele>686</ele>
        <time>2022-03-21T09:44:06Z</time>
      </trkpt>
      <trkpt lat="43.26413" lon="5.88726">
        <ele>690</ele>
        <time>2022-03-21T09:44:28Z</time>
      </trkpt>
      <trkpt lat="43.26418" lon="5.88778">
        <ele>691</ele>
        <time>2022-03-21T09:44:37Z</time>
      </trkpt>
      <trkpt lat="43.26433" lon="5.88868">
        <ele>694</ele>
        <time>2022-03-21T09:44:53Z</time>
      </trkpt>
      <trkpt lat="43.26458" lon="5.88989">
        <ele>696</ele>
        <time>2022-03-21T09:45:15Z</time>
      </trkpt>
      <trkpt lat="43.26479" lon="5.89028">
        <ele>698</ele>
        <time>2022-03-21T09:45:23Z</time>
      </trkpt>
      <trkpt lat="43.26528" lon="5.89096">
        <ele>702</ele>
        <time>2022-03-21T09:45:39Z</time>
      </trkpt>
      <trkpt lat="43.26557" lon="5.89126">
        <ele>702</ele>
        <time>2022-03-21T09:45:48Z</time>
      </trkpt>
      <trkpt lat="43.26559" lon="5.89143">
        <ele>701</ele>
        <time>2022-03-21T09:45:50Z</time>
      </trkpt>
      <trkpt lat="43.26554" lon="5.89157">
        <ele>700</ele>
        <time>2022-03-21T09:45:53Z</time>
      </trkpt>
      <trkpt lat="43.26547" lon="5.89165">
        <ele>700</ele>
        <time>2022-03-21T09:45:55Z</time>
      </trkpt>
      <trkpt lat="43.26523" lon="5.89173">
        <ele>700</ele>
        <time>2022-03-21T09:46:01Z</time>
      </trkpt>
      <trkpt lat="43.26505" lon="5.89182">
        <ele>700</ele>
        <time>2022-03-21T09:46:05Z</time>
      </trkpt>
      <trkpt lat="43.26462" lon="5.89178">
        <ele>698</ele>
        <time>2022-03-21T09:46:16Z</time>
      </trkpt>
      <trkpt lat="43.26427" lon="5.89185">
        <ele>696</ele>
        <time>2022-03-21T09:46:24Z</time>
      </trkpt>
      <trkpt lat="43.26386" lon="5.89185">
        <ele>694</ele>
        <time>2022-03-21T09:46:33Z</time>
      </trkpt>
      <trkpt lat="43.26293" lon="5.89175">
        <ele>687</ele>
        <time>2022-03-21T09:46:55Z</time>
      </trkpt>
      <trkpt lat="43.26252" lon="5.89167">
        <ele>684</ele>
        <time>2022-03-21T09:47:05Z</time>
      </trkpt>
      <trkpt lat="43.26225" lon="5.89157">
        <ele>682</ele>
        <time>2022-03-21T09:47:11Z</time>
      </trkpt>
      <trkpt lat="43.26209" lon="5.89157">
        <ele>680</ele>
        <time>2022-03-21T09:47:15Z</time>
      </trkpt>
      <trkpt lat="43.26193" lon="5.89163">
        <ele>679</ele>
        <time>2022-03-21T09:47:19Z</time>
      </trkpt>
      <trkpt lat="43.26183" lon="5.89176">
        <ele>679</ele>
        <time>2022-03-21T09:47:22Z</time>
      </trkpt>
      <trkpt lat="43.26146" lon="5.89309">
        <ele>684</ele>
        <time>2022-03-21T09:47:46Z</time>
      </trkpt>
      <trkpt lat="43.26112" lon="5.8941">
        <ele>688</ele>
        <time>2022-03-21T09:48:05Z</time>
      </trkpt>
      <trkpt lat="43.2607" lon="5.89553">
        <ele>691</ele>
        <time>2022-03-21T09:48:32Z</time>
      </trkpt>
      <trkpt lat="43.2605" lon="5.89613">
        <ele>691</ele>
        <time>2022-03-21T09:48:43Z</time>
      </trkpt>
      <trkpt lat="43.26055" lon="5.89643">
        <ele>693</ele>
        <time>2022-03-21T09:48:48Z</time>
      </trkpt>
      <trkpt lat="43.26055" lon="5.89656">
        <ele>693</ele>
        <time>2022-03-21T09:48:50Z</time>
      </trkpt>
      <trkpt lat="43.26073" lon="5.89755">
        <ele>700</ele>
        <time>2022-03-21T09:49:08Z</time>
      </trkpt>
      <trkpt lat="43.26108" lon="5.89858">
        <ele>709</ele>
        <time>2022-03-21T09:49:27Z</time>
      </trkpt>
      <trkpt lat="43.26124" lon="5.89896">
        <ele>715</ele>
        <time>2022-03-21T09:49:34Z</time>
      </trkpt>
      <trkpt lat="43.26163" lon="5.90026">
        <ele>725</ele>
        <time>2022-03-21T09:49:58Z</time>
      </trkpt>
      <trkpt lat="43.26185" lon="5.90079">
        <ele>732</ele>
        <time>2022-03-21T09:50:09Z</time>
      </trkpt>
      <trkpt lat="43.26228" lon="5.90169">
        <ele>742</ele>
        <time>2022-03-21T09:50:27Z</time>
      </trkpt>
      <trkpt lat="43.26224" lon="5.90182">
        <ele>742</ele>
        <time>2022-03-21T09:50:29Z</time>
      </trkpt>
      <trkpt lat="43.26199" lon="5.90209">
        <ele>739</ele>
        <time>2022-03-21T09:50:37Z</time>
      </trkpt>
      <trkpt lat="43.26189" lon="5.90216">
        <ele>739</ele>
        <time>2022-03-21T09:50:39Z</time>
      </trkpt>
      <trkpt lat="43.26146" lon="5.90233">
        <ele>740</ele>
        <time>2022-03-21T09:50:50Z</time>
      </trkpt>
      <trkpt lat="43.26113" lon="5.90259">
        <ele>743</ele>
        <time>2022-03-21T09:50:59Z</time>
      </trkpt>
      <trkpt lat="43.26105" lon="5.90268">
        <ele>744</ele>
        <time>2022-03-21T09:51:01Z</time>
      </trkpt>
      <trkpt lat="43.26073" lon="5.90323">
        <ele>750</ele>
        <time>2022-03-21T09:51:13Z</time>
      </trkpt>
      <trkpt lat="43.26041" lon="5.904">
        <ele>756</ele>
        <time>2022-03-21T09:51:28Z</time>
      </trkpt>
      <trkpt lat="43.26023" lon="5.90454">
        <ele>758</ele>
        <time>2022-03-21T09:51:38Z</time>
      </trkpt>
      <trkpt lat="43.26012" lon="5.90476">
        <ele>759</ele>
        <time>2022-03-21T09:51:43Z</time>
      </trkpt>
      <trkpt lat="43.26003" lon="5.90488">
        <ele>759</ele>
        <time>2022-03-21T09:51:46Z</time>
      </trkpt>
      <trkpt lat="43.25991" lon="5.90496">
        <ele>759</ele>
        <time>2022-03-21T09:51:49Z</time>
      </trkpt>
      <trkpt lat="43.25966" lon="5.90507">
        <ele>757</ele>
        <time>2022-03-21T09:51:55Z</time>
      </trkpt>
      <trkpt lat="43.25921" lon="5.90519">
        <ele>755</ele>
        <time>2022-03-21T09:52:06Z</time>
      </trkpt>
      <trkpt lat="43.25887" lon="5.90519">
        <ele>752</ele>
        <time>2022-03-21T09:52:14Z</time>
      </trkpt>
      <trkpt lat="43.25859" lon="5.9051">
        <ele>750</ele>
        <time>2022-03-21T09:52:20Z</time>
      </trkpt>
      <trkpt lat="43.25844" lon="5.90508">
        <ele>748</ele>
        <time>2022-03-21T09:52:24Z</time>
      </trkpt>
      <trkpt lat="43.25831" lon="5.90509">
        <ele>747</ele>
        <time>2022-03-21T09:52:27Z</time>
      </trkpt>
      <trkpt lat="43.25821" lon="5.9052">
        <ele>745</ele>
        <time>2022-03-21T09:52:30Z</time>
      </trkpt>
      <trkpt lat="43.25808" lon="5.9056">
        <ele>741</ele>
        <time>2022-03-21T09:52:37Z</time>
      </trkpt>
      <trkpt lat="43.2579" lon="5.90597">
        <ele>737</ele>
        <time>2022-03-21T09:52:45Z</time>
      </trkpt>
      <trkpt lat="43.25785" lon="5.90617">
        <ele>735</ele>
        <time>2022-03-21T09:52:49Z</time>
      </trkpt>
      <trkpt lat="43.25785" lon="5.90693">
        <ele>731</ele>
        <time>2022-03-21T09:53:01Z</time>
      </trkpt>
      <trkpt lat="43.2578" lon="5.90738">
        <ele>727</ele>
        <time>2022-03-21T09:53:09Z</time>
      </trkpt>
      <trkpt lat="43.25769" lon="5.90787">
        <ele>722</ele>
        <time>2022-03-21T09:53:18Z</time>
      </trkpt>
      <trkpt lat="43.25745" lon="5.90843">
        <ele>713</ele>
        <time>2022-03-21T09:53:29Z</time>
      </trkpt>
      <trkpt lat="43.25737" lon="5.90883">
        <ele>709</ele>
        <time>2022-03-21T09:53:36Z</time>
      </trkpt>
      <trkpt lat="43.25737" lon="5.90909">
        <ele>706</ele>
        <time>2022-03-21T09:53:40Z</time>
      </trkpt>
      <trkpt lat="43.25728" lon="5.90946">
        <ele>702</ele>
        <time>2022-03-21T09:53:47Z</time>
      </trkpt>
      <trkpt lat="43.25716" lon="5.90969">
        <ele>700</ele>
        <time>2022-03-21T09:53:52Z</time>
      </trkpt>
      <trkpt lat="43.25683" lon="5.9101">
        <ele>696</ele>
        <time>2022-03-21T09:54:02Z</time>
      </trkpt>
      <trkpt lat="43.2566" lon="5.91044">
        <ele>694</ele>
        <time>2022-03-21T09:54:10Z</time>
      </trkpt>
      <trkpt lat="43.25648" lon="5.91068">
        <ele>693</ele>
        <time>2022-03-21T09:54:15Z</time>
      </trkpt>
      <trkpt lat="43.25639" lon="5.91095">
        <ele>691</ele>
        <time>2022-03-21T09:54:20Z</time>
      </trkpt>
      <trkpt lat="43.25634" lon="5.91142">
        <ele>686</ele>
        <time>2022-03-21T09:54:28Z</time>
      </trkpt>
      <trkpt lat="43.25618" lon="5.91233">
        <ele>678</ele>
        <time>2022-03-21T09:54:44Z</time>
      </trkpt>
      <trkpt lat="43.25607" lon="5.91364">
        <ele>669</ele>
        <time>2022-03-21T09:55:07Z</time>
      </trkpt>
      <trkpt lat="43.25604" lon="5.91433">
        <ele>665</ele>
        <time>2022-03-21T09:55:18Z</time>
      </trkpt>
      <trkpt lat="43.25598" lon="5.91464">
        <ele>664</ele>
        <time>2022-03-21T09:55:24Z</time>
      </trkpt>
      <trkpt lat="43.25563" lon="5.91539">
        <ele>663</ele>
        <time>2022-03-21T09:55:39Z</time>
      </trkpt>
      <trkpt lat="43.25488" lon="5.91686">
        <ele>661</ele>
        <time>2022-03-21T09:56:09Z</time>
      </trkpt>
      <trkpt lat="43.25465" lon="5.91745">
        <ele>657</ele>
        <time>2022-03-21T09:56:21Z</time>
      </trkpt>
      <trkpt lat="43.25454" lon="5.91787">
        <ele>653</ele>
        <time>2022-03-21T09:56:28Z</time>
      </trkpt>
      <trkpt lat="43.25455" lon="5.91806">
        <ele>650</ele>
        <time>2022-03-21T09:56:32Z</time>
      </trkpt>
      <trkpt lat="43.25464" lon="5.91818">
        <ele>648</ele>
        <time>2022-03-21T09:56:35Z</time>
      </trkpt>
      <trkpt lat="43.2552" lon="5.91818">
        <ele>644</ele>
        <time>2022-03-21T09:56:48Z</time>
      </trkpt>
      <trkpt lat="43.25553" lon="5.91827">
        <ele>640</ele>
        <time>2022-03-21T09:56:56Z</time>
      </trkpt>
      <trkpt lat="43.25574" lon="5.91828">
        <ele>639</ele>
        <time>2022-03-21T09:57:00Z</time>
      </trkpt>
      <trkpt lat="43.25608" lon="5.91817">
        <ele>634</ele>
        <time>2022-03-21T09:57:09Z</time>
      </trkpt>
      <trkpt lat="43.25618" lon="5.91818">
        <ele>631</ele>
        <time>2022-03-21T09:57:11Z</time>
      </trkpt>
      <trkpt lat="43.25626" lon="5.91809">
        <ele>631</ele>
        <time>2022-03-21T09:57:13Z</time>
      </trkpt>
      <trkpt lat="43.25635" lon="5.91815">
        <ele>628</ele>
        <time>2022-03-21T09:57:16Z</time>
      </trkpt>
      <trkpt lat="43.25641" lon="5.91805">
        <ele>628</ele>
        <time>2022-03-21T09:57:18Z</time>
      </trkpt>
      <trkpt lat="43.2565" lon="5.91799">
        <ele>627</ele>
        <time>2022-03-21T09:57:20Z</time>
      </trkpt>
      <trkpt lat="43.25659" lon="5.91802">
        <ele>624</ele>
        <time>2022-03-21T09:57:22Z</time>
      </trkpt>
      <trkpt lat="43.25681" lon="5.91791">
        <ele>622</ele>
        <time>2022-03-21T09:57:28Z</time>
      </trkpt>
      <trkpt lat="43.25703" lon="5.91786">
        <ele>619</ele>
        <time>2022-03-21T09:57:33Z</time>
      </trkpt>
      <trkpt lat="43.25712" lon="5.9178">
        <ele>618</ele>
        <time>2022-03-21T09:57:35Z</time>
      </trkpt>
      <trkpt lat="43.25746" lon="5.9177">
        <ele>614</ele>
        <time>2022-03-21T09:57:44Z</time>
      </trkpt>
      <trkpt lat="43.25777" lon="5.91766">
        <ele>611</ele>
        <time>2022-03-21T09:57:51Z</time>
      </trkpt>
      <trkpt lat="43.25818" lon="5.91777">
        <ele>604</ele>
        <time>2022-03-21T09:58:01Z</time>
      </trkpt>
      <trkpt lat="43.25828" lon="5.91768">
        <ele>604</ele>
        <time>2022-03-21T09:58:03Z</time>
      </trkpt>
      <trkpt lat="43.25854" lon="5.91722">
        <ele>600</ele>
        <time>2022-03-21T09:58:13Z</time>
      </trkpt>
      <trkpt lat="43.25861" lon="5.917">
        <ele>598</ele>
        <time>2022-03-21T09:58:17Z</time>
      </trkpt>
      <trkpt lat="43.25868" lon="5.91675">
        <ele>596</ele>
        <time>2022-03-21T09:58:22Z</time>
      </trkpt>
      <trkpt lat="43.25876" lon="5.91628">
        <ele>592</ele>
        <time>2022-03-21T09:58:30Z</time>
      </trkpt>
      <trkpt lat="43.25881" lon="5.91614">
        <ele>590</ele>
        <time>2022-03-21T09:58:33Z</time>
      </trkpt>
      <trkpt lat="43.25892" lon="5.91541">
        <ele>583</ele>
        <time>2022-03-21T09:58:45Z</time>
      </trkpt>
      <trkpt lat="43.25892" lon="5.91518">
        <ele>582</ele>
        <time>2022-03-21T09:58:49Z</time>
      </trkpt>
      <trkpt lat="43.25888" lon="5.91496">
        <ele>582</ele>
        <time>2022-03-21T09:58:53Z</time>
      </trkpt>
      <trkpt lat="43.2588" lon="5.91476">
        <ele>584</ele>
        <time>2022-03-21T09:58:57Z</time>
      </trkpt>
      <trkpt lat="43.25849" lon="5.91421">
        <ele>586</ele>
        <time>2022-03-21T09:59:09Z</time>
      </trkpt>
      <trkpt lat="43.25841" lon="5.91402">
        <ele>588</ele>
        <time>2022-03-21T09:59:13Z</time>
      </trkpt>
      <trkpt lat="43.25839" lon="5.9138">
        <ele>590</ele>
        <time>2022-03-21T09:59:16Z</time>
      </trkpt>
      <trkpt lat="43.25845" lon="5.91363">
        <ele>590</ele>
        <time>2022-03-21T09:59:20Z</time>
      </trkpt>
      <trkpt lat="43.25858" lon="5.91357">
        <ele>590</ele>
        <time>2022-03-21T09:59:23Z</time>
      </trkpt>
      <trkpt lat="43.25924" lon="5.91372">
        <ele>585</ele>
        <time>2022-03-21T09:59:38Z</time>
      </trkpt>
      <trkpt lat="43.2596" lon="5.91389">
        <ele>585</ele>
        <time>2022-03-21T09:59:47Z</time>
      </trkpt>
      <trkpt lat="43.25992" lon="5.91413">
        <ele>582</ele>
        <time>2022-03-21T09:59:56Z</time>
      </trkpt>
      <trkpt lat="43.2604" lon="5.91462">
        <ele>577</ele>
        <time>2022-03-21T10:00:10Z</time>
      </trkpt>
      <trkpt lat="43.26052" lon="5.91467">
        <ele>577</ele>
        <time>2022-03-21T10:00:13Z</time>
      </trkpt>
      <trkpt lat="43.26064" lon="5.91464">
        <ele>580</ele>
        <time>2022-03-21T10:00:16Z</time>
      </trkpt>
      <trkpt lat="43.26075" lon="5.91458">
        <ele>583</ele>
        <time>2022-03-21T10:00:18Z</time>
      </trkpt>
      <trkpt lat="43.26098" lon="5.91458">
        <ele>584</ele>
        <time>2022-03-21T10:00:24Z</time>
      </trkpt>
      <trkpt lat="43.26121" lon="5.91468">
        <ele>581</ele>
        <time>2022-03-21T10:00:29Z</time>
      </trkpt>
      <trkpt lat="43.26146" lon="5.91483">
        <ele>578</ele>
        <time>2022-03-21T10:00:36Z</time>
      </trkpt>
      <trkpt lat="43.2616" lon="5.91484">
        <ele>578</ele>
        <time>2022-03-21T10:00:39Z</time>
      </trkpt>
      <trkpt lat="43.26198" lon="5.91471">
        <ele>575</ele>
        <time>2022-03-21T10:00:48Z</time>
      </trkpt>
      <trkpt lat="43.26223" lon="5.91455">
        <ele>573</ele>
        <time>2022-03-21T10:00:55Z</time>
      </trkpt>
      <trkpt lat="43.26244" lon="5.9143">
        <ele>573</ele>
        <time>2022-03-21T10:01:01Z</time>
      </trkpt>
      <trkpt lat="43.26298" lon="5.91349">
        <ele>577</ele>
        <time>2022-03-21T10:01:20Z</time>
      </trkpt>
      <trkpt lat="43.26394" lon="5.91224">
        <ele>573</ele>
        <time>2022-03-21T10:01:51Z</time>
      </trkpt>
      <trkpt lat="43.26398" lon="5.9121">
        <ele>571</ele>
        <time>2022-03-21T10:01:53Z</time>
      </trkpt>
      <trkpt lat="43.26366" lon="5.91096">
        <ele>577</ele>
        <time>2022-03-21T10:02:14Z</time>
      </trkpt>
      <trkpt lat="43.26366" lon="5.91074">
        <ele>578</ele>
        <time>2022-03-21T10:02:18Z</time>
      </trkpt>
      <trkpt lat="43.26375" lon="5.91056">
        <ele>576</ele>
        <time>2022-03-21T10:02:21Z</time>
      </trkpt>
      <trkpt lat="43.26412" lon="5.91016">
        <ele>565</ele>
        <time>2022-03-21T10:02:32Z</time>
      </trkpt>
      <trkpt lat="43.2643" lon="5.9099">
        <ele>561</ele>
        <time>2022-03-21T10:02:39Z</time>
      </trkpt>
      <trkpt lat="43.26437" lon="5.90969">
        <ele>560</ele>
        <time>2022-03-21T10:02:42Z</time>
      </trkpt>
      <trkpt lat="43.26443" lon="5.90904">
        <ele>567</ele>
        <time>2022-03-21T10:02:54Z</time>
      </trkpt>
      <trkpt lat="43.26454" lon="5.90895">
        <ele>566</ele>
        <time>2022-03-21T10:02:57Z</time>
      </trkpt>
      <trkpt lat="43.26469" lon="5.909">
        <ele>560</ele>
        <time>2022-03-21T10:03:00Z</time>
      </trkpt>
      <trkpt lat="43.26498" lon="5.90915">
        <ele>547</ele>
        <time>2022-03-21T10:03:07Z</time>
      </trkpt>
      <trkpt lat="43.26517" lon="5.90921">
        <ele>545</ele>
        <time>2022-03-21T10:03:12Z</time>
      </trkpt>
      <trkpt lat="43.26561" lon="5.90928">
        <ele>544</ele>
        <time>2022-03-21T10:03:22Z</time>
      </trkpt>
      <trkpt lat="43.26586" lon="5.90948">
        <ele>539</ele>
        <time>2022-03-21T10:03:29Z</time>
      </trkpt>
      <trkpt lat="43.26619" lon="5.90983">
        <ele>530</ele>
        <time>2022-03-21T10:03:39Z</time>
      </trkpt>
      <trkpt lat="43.26645" lon="5.91">
        <ele>525</ele>
        <time>2022-03-21T10:03:46Z</time>
      </trkpt>
      <trkpt lat="43.26664" lon="5.91007">
        <ele>523</ele>
        <time>2022-03-21T10:03:50Z</time>
      </trkpt>
      <trkpt lat="43.26682" lon="5.9101">
        <ele>520</ele>
        <time>2022-03-21T10:03:54Z</time>
      </trkpt>
      <trkpt lat="43.26692" lon="5.91009">
        <ele>519</ele>
        <time>2022-03-21T10:03:57Z</time>
      </trkpt>
      <trkpt lat="43.26744" lon="5.90995">
        <ele>518</ele>
        <time>2022-03-21T10:04:09Z</time>
      </trkpt>
      <trkpt lat="43.26766" lon="5.90993">
        <ele>515</ele>
        <time>2022-03-21T10:04:14Z</time>
      </trkpt>
      <trkpt lat="43.26798" lon="5.90994">
        <ele>509</ele>
        <time>2022-03-21T10:04:22Z</time>
      </trkpt>
      <trkpt lat="43.26818" lon="5.90991">
        <ele>507</ele>
        <time>2022-03-21T10:04:26Z</time>
      </trkpt>
      <trkpt lat="43.26839" lon="5.90982">
        <ele>505</ele>
        <time>2022-03-21T10:04:32Z</time>
      </trkpt>
      <trkpt lat="43.26859" lon="5.90968">
        <ele>502</ele>
        <time>2022-03-21T10:04:37Z</time>
      </trkpt>
      <trkpt lat="43.26887" lon="5.90937">
        <ele>500</ele>
        <time>2022-03-21T10:04:45Z</time>
      </trkpt>
      <trkpt lat="43.26907" lon="5.90903">
        <ele>497</ele>
        <time>2022-03-21T10:04:53Z</time>
      </trkpt>
      <trkpt lat="43.2692" lon="5.90867">
        <ele>495</ele>
        <time>2022-03-21T10:05:00Z</time>
      </trkpt>
      <trkpt lat="43.26932" lon="5.90817">
        <ele>492</ele>
        <time>2022-03-21T10:05:08Z</time>
      </trkpt>
      <trkpt lat="43.26934" lon="5.90803">
        <ele>491</ele>
        <time>2022-03-21T10:05:11Z</time>
      </trkpt>
      <trkpt lat="43.26933" lon="5.90716">
        <ele>487</ele>
        <time>2022-03-21T10:05:26Z</time>
      </trkpt>
      <trkpt lat="43.26919" lon="5.90646">
        <ele>487</ele>
        <time>2022-03-21T10:05:38Z</time>
      </trkpt>
      <trkpt lat="43.26913" lon="5.90593">
        <ele>488</ele>
        <time>2022-03-21T10:05:47Z</time>
      </trkpt>
      <trkpt lat="43.26919" lon="5.90572">
        <ele>486</ele>
        <time>2022-03-21T10:05:51Z</time>
      </trkpt>
      <trkpt lat="43.26948" lon="5.90548">
        <ele>479</ele>
        <time>2022-03-21T10:05:59Z</time>
      </trkpt>
      <trkpt lat="43.26972" lon="5.90506">
        <ele>473</ele>
        <time>2022-03-21T10:06:08Z</time>
      </trkpt>
      <trkpt lat="43.27002" lon="5.90439">
        <ele>469</ele>
        <time>2022-03-21T10:06:21Z</time>
      </trkpt>
      <trkpt lat="43.27026" lon="5.90366">
        <ele>466</ele>
        <time>2022-03-21T10:06:35Z</time>
      </trkpt>
      <trkpt lat="43.27054" lon="5.90303">
        <ele>458</ele>
        <time>2022-03-21T10:06:48Z</time>
      </trkpt>
      <trkpt lat="43.27074" lon="5.90235">
        <ele>454</ele>
        <time>2022-03-21T10:07:00Z</time>
      </trkpt>
      <trkpt lat="43.2709" lon="5.90201">
        <ele>453</ele>
        <time>2022-03-21T10:07:07Z</time>
      </trkpt>
      <trkpt lat="43.27106" lon="5.90186">
        <ele>451</ele>
        <time>2022-03-21T10:07:11Z</time>
      </trkpt>
      <trkpt lat="43.27116" lon="5.90181">
        <ele>450</ele>
        <time>2022-03-21T10:07:14Z</time>
      </trkpt>
      <trkpt lat="43.27159" lon="5.90174">
        <ele>441</ele>
        <time>2022-03-21T10:07:24Z</time>
      </trkpt>
      <trkpt lat="43.27208" lon="5.90153">
        <ele>436</ele>
        <time>2022-03-21T10:07:36Z</time>
      </trkpt>
      <trkpt lat="43.27234" lon="5.90136">
        <ele>434</ele>
        <time>2022-03-21T10:07:43Z</time>
      </trkpt>
      <trkpt lat="43.27243" lon="5.90139">
        <ele>433</ele>
        <time>2022-03-21T10:07:45Z</time>
      </trkpt>
      <trkpt lat="43.27247" lon="5.90151">
        <ele>431</ele>
        <time>2022-03-21T10:07:47Z</time>
      </trkpt>
      <trkpt lat="43.27249" lon="5.90193">
        <ele>426</ele>
        <time>2022-03-21T10:07:54Z</time>
      </trkpt>
      <trkpt lat="43.27259" lon="5.90198">
        <ele>424</ele>
        <time>2022-03-21T10:07:57Z</time>
      </trkpt>
      <trkpt lat="43.27278" lon="5.90222">
        <ele>419</ele>
        <time>2022-03-21T10:08:03Z</time>
      </trkpt>
      <trkpt lat="43.27296" lon="5.90236">
        <ele>415</ele>
        <time>2022-03-21T10:08:08Z</time>
      </trkpt>
      <trkpt lat="43.27317" lon="5.90246">
        <ele>412</ele>
        <time>2022-03-21T10:08:13Z</time>
      </trkpt>
      <trkpt lat="43.27326" lon="5.90235">
        <ele>411</ele>
        <time>2022-03-21T10:08:16Z</time>
      </trkpt>
      <trkpt lat="43.27336" lon="5.9021">
        <ele>410</ele>
        <time>2022-03-21T10:08:20Z</time>
      </trkpt>
      <trkpt lat="43.2734" lon="5.90161">
        <ele>411</ele>
        <time>2022-03-21T10:08:29Z</time>
      </trkpt>
      <trkpt lat="43.27344" lon="5.90149">
        <ele>411</ele>
        <time>2022-03-21T10:08:31Z</time>
      </trkpt>
      <trkpt lat="43.27379" lon="5.90158">
        <ele>404</ele>
        <time>2022-03-21T10:08:39Z</time>
      </trkpt>
      <trkpt lat="43.27391" lon="5.90158">
        <ele>402</ele>
        <time>2022-03-21T10:08:42Z</time>
      </trkpt>
      <trkpt lat="43.27412" lon="5.90143">
        <ele>398</ele>
        <time>2022-03-21T10:08:48Z</time>
      </trkpt>
      <trkpt lat="43.27437" lon="5.90117">
        <ele>394</ele>
        <time>2022-03-21T10:08:55Z</time>
      </trkpt>
      <trkpt lat="43.27448" lon="5.90112">
        <ele>392</ele>
        <time>2022-03-21T10:08:58Z</time>
      </trkpt>
      <trkpt lat="43.27458" lon="5.90111">
        <ele>390</ele>
        <time>2022-03-21T10:09:00Z</time>
      </trkpt>
      <trkpt lat="43.27488" lon="5.90084">
        <ele>384</ele>
        <time>2022-03-21T10:09:08Z</time>
      </trkpt>
      <trkpt lat="43.2751" lon="5.90077">
        <ele>381</ele>
        <time>2022-03-21T10:09:14Z</time>
      </trkpt>
      <trkpt lat="43.27523" lon="5.9007">
        <ele>379</ele>
        <time>2022-03-21T10:09:17Z</time>
      </trkpt>
      <trkpt lat="43.27533" lon="5.90058">
        <ele>377</ele>
        <time>2022-03-21T10:09:20Z</time>
      </trkpt>
      <trkpt lat="43.27541" lon="5.90025">
        <ele>375</ele>
        <time>2022-03-21T10:09:26Z</time>
      </trkpt>
      <trkpt lat="43.27548" lon="5.90009">
        <ele>374</ele>
        <time>2022-03-21T10:09:29Z</time>
      </trkpt>
      <trkpt lat="43.27578" lon="5.8998">
        <ele>370</ele>
        <time>2022-03-21T10:09:38Z</time>
      </trkpt>
      <trkpt lat="43.27582" lon="5.89983">
        <ele>369</ele>
        <time>2022-03-21T10:09:39Z</time>
      </trkpt>
      <trkpt lat="43.27589" lon="5.90029">
        <ele>369</ele>
        <time>2022-03-21T10:09:47Z</time>
      </trkpt>
      <trkpt lat="43.27587" lon="5.90087">
        <ele>371</ele>
        <time>2022-03-21T10:09:57Z</time>
      </trkpt>
      <trkpt lat="43.27588" lon="5.90166">
        <ele>370</ele>
        <time>2022-03-21T10:10:10Z</time>
      </trkpt>
      <trkpt lat="43.27579" lon="5.90243">
        <ele>373</ele>
        <time>2022-03-21T10:10:23Z</time>
      </trkpt>
      <trkpt lat="43.27584" lon="5.90319">
        <ele>373</ele>
        <time>2022-03-21T10:10:36Z</time>
      </trkpt>
      <trkpt lat="43.27578" lon="5.90367">
        <ele>372</ele>
        <time>2022-03-21T10:10:45Z</time>
      </trkpt>
      <trkpt lat="43.27582" lon="5.9038">
        <ele>370</ele>
        <time>2022-03-21T10:10:47Z</time>
      </trkpt>
      <trkpt lat="43.27605" lon="5.90407">
        <ele>366</ele>
        <time>2022-03-21T10:10:54Z</time>
      </trkpt>
      <trkpt lat="43.27617" lon="5.90436">
        <ele>363</ele>
        <time>2022-03-21T10:11:00Z</time>
      </trkpt>
      <trkpt lat="43.27623" lon="5.90445">
        <ele>362</ele>
        <time>2022-03-21T10:11:02Z</time>
      </trkpt>
      <trkpt lat="43.27634" lon="5.90448">
        <ele>360</ele>
        <time>2022-03-21T10:11:04Z</time>
      </trkpt>
      <trkpt lat="43.27644" lon="5.90447">
        <ele>359</ele>
        <time>2022-03-21T10:11:07Z</time>
      </trkpt>
      <trkpt lat="43.27654" lon="5.90455">
        <ele>357</ele>
        <time>2022-03-21T10:11:10Z</time>
      </trkpt>
      <trkpt lat="43.27665" lon="5.90459">
        <ele>356</ele>
        <time>2022-03-21T10:11:12Z</time>
      </trkpt>
      <trkpt lat="43.2768" lon="5.90477">
        <ele>350</ele>
        <time>2022-03-21T10:11:17Z</time>
      </trkpt>
      <trkpt lat="43.27686" lon="5.90491">
        <ele>347</ele>
        <time>2022-03-21T10:11:20Z</time>
      </trkpt>
      <trkpt lat="43.27689" lon="5.90506">
        <ele>344</ele>
        <time>2022-03-21T10:11:22Z</time>
      </trkpt>
      <trkpt lat="43.27686" lon="5.90538">
        <ele>341</ele>
        <time>2022-03-21T10:11:28Z</time>
      </trkpt>
      <trkpt lat="43.27672" lon="5.90567">
        <ele>341</ele>
        <time>2022-03-21T10:11:34Z</time>
      </trkpt>
      <trkpt lat="43.27649" lon="5.90648">
        <ele>332</ele>
        <time>2022-03-21T10:11:48Z</time>
      </trkpt>
      <trkpt lat="43.27631" lon="5.90689">
        <ele>331</ele>
        <time>2022-03-21T10:11:57Z</time>
      </trkpt>
      <trkpt lat="43.27629" lon="5.90704">
        <ele>329</ele>
        <time>2022-03-21T10:11:59Z</time>
      </trkpt>
      <trkpt lat="43.27649" lon="5.90732">
        <ele>322</ele>
        <time>2022-03-21T10:12:06Z</time>
      </trkpt>
      <trkpt lat="43.27659" lon="5.90734">
        <ele>320</ele>
        <time>2022-03-21T10:12:08Z</time>
      </trkpt>
      <trkpt lat="43.2767" lon="5.90744">
        <ele>317</ele>
        <time>2022-03-21T10:12:11Z</time>
      </trkpt>
      <trkpt lat="43.27671" lon="5.90757">
        <ele>316</ele>
        <time>2022-03-21T10:12:13Z</time>
      </trkpt>
      <trkpt lat="43.27657" lon="5.90778">
        <ele>318</ele>
        <time>2022-03-21T10:12:18Z</time>
      </trkpt>
      <trkpt lat="43.27648" lon="5.90784">
        <ele>319</ele>
        <time>2022-03-21T10:12:21Z</time>
      </trkpt>
      <trkpt lat="43.27636" lon="5.90787">
        <ele>320</ele>
        <time>2022-03-21T10:12:24Z</time>
      </trkpt>
      <trkpt lat="43.27615" lon="5.90787">
        <ele>323</ele>
        <time>2022-03-21T10:12:28Z</time>
      </trkpt>
      <trkpt lat="43.27605" lon="5.90795">
        <ele>324</ele>
        <time>2022-03-21T10:12:31Z</time>
      </trkpt>
      <trkpt lat="43.27586" lon="5.90817">
        <ele>324</ele>
        <time>2022-03-21T10:12:37Z</time>
      </trkpt>
      <trkpt lat="43.27578" lon="5.90828">
        <ele>324</ele>
        <time>2022-03-21T10:12:40Z</time>
      </trkpt>
      <trkpt lat="43.2756" lon="5.90863">
        <ele>325</ele>
        <time>2022-03-21T10:12:47Z</time>
      </trkpt>
      <trkpt lat="43.27547" lon="5.90904">
        <ele>324</ele>
        <time>2022-03-21T10:12:54Z</time>
      </trkpt>
      <trkpt lat="43.27523" lon="5.90965">
        <ele>320</ele>
        <time>2022-03-21T10:13:06Z</time>
      </trkpt>
      <trkpt lat="43.27515" lon="5.90975">
        <ele>319</ele>
        <time>2022-03-21T10:13:09Z</time>
      </trkpt>
      <trkpt lat="43.27497" lon="5.90989">
        <ele>318</ele>
        <time>2022-03-21T10:13:14Z</time>
      </trkpt>
      <trkpt lat="43.27462" lon="5.91024">
        <ele>320</ele>
        <time>2022-03-21T10:13:24Z</time>
      </trkpt>
      <trkpt lat="43.27429" lon="5.91067">
        <ele>318</ele>
        <time>2022-03-21T10:13:34Z</time>
      </trkpt>
      <trkpt lat="43.27383" lon="5.91118">
        <ele>320</ele>
        <time>2022-03-21T10:13:48Z</time>
      </trkpt>
      <trkpt lat="43.27357" lon="5.91137">
        <ele>323</ele>
        <time>2022-03-21T10:13:55Z</time>
      </trkpt>
      <trkpt lat="43.27352" lon="5.91147">
        <ele>323</ele>
        <time>2022-03-21T10:13:57Z</time>
      </trkpt>
      <trkpt lat="43.27322" lon="5.91215">
        <ele>323</ele>
        <time>2022-03-21T10:14:11Z</time>
      </trkpt>
      <trkpt lat="43.27247" lon="5.91365">
        <ele>335</ele>
        <time>2022-03-21T10:14:42Z</time>
      </trkpt>
      <trkpt lat="43.2722" lon="5.91426">
        <ele>337</ele>
        <time>2022-03-21T10:14:54Z</time>
      </trkpt>
      <trkpt lat="43.27209" lon="5.91471">
        <ele>332</ele>
        <time>2022-03-21T10:15:02Z</time>
      </trkpt>
      <trkpt lat="43.27204" lon="5.91518">
        <ele>326</ele>
        <time>2022-03-21T10:15:10Z</time>
      </trkpt>
      <trkpt lat="43.27216" lon="5.91527">
        <ele>325</ele>
        <time>2022-03-21T10:15:13Z</time>
      </trkpt>
      <trkpt lat="43.27223" lon="5.91536">
        <ele>324</ele>
        <time>2022-03-21T10:15:15Z</time>
      </trkpt>
      <trkpt lat="43.27221" lon="5.91548">
        <ele>322</ele>
        <time>2022-03-21T10:15:17Z</time>
      </trkpt>
      <trkpt lat="43.27199" lon="5.91595">
        <ele>316</ele>
        <time>2022-03-21T10:15:27Z</time>
      </trkpt>
      <trkpt lat="43.27182" lon="5.91647">
        <ele>314</ele>
        <time>2022-03-21T10:15:37Z</time>
      </trkpt>
      <trkpt lat="43.2717" lon="5.91695">
        <ele>314</ele>
        <time>2022-03-21T10:15:45Z</time>
      </trkpt>
      <trkpt lat="43.27163" lon="5.9171">
        <ele>315</ele>
        <time>2022-03-21T10:15:48Z</time>
      </trkpt>
      <trkpt lat="43.2716" lon="5.91724">
        <ele>317</ele>
        <time>2022-03-21T10:15:51Z</time>
      </trkpt>
      <trkpt lat="43.2716" lon="5.91752">
        <ele>317</ele>
        <time>2022-03-21T10:15:55Z</time>
      </trkpt>
      <trkpt lat="43.27151" lon="5.91795">
        <ele>324</ele>
        <time>2022-03-21T10:16:03Z</time>
      </trkpt>
      <trkpt lat="43.27152" lon="5.91845">
        <ele>330</ele>
        <time>2022-03-21T10:16:12Z</time>
      </trkpt>
      <trkpt lat="43.27145" lon="5.91874">
        <ele>335</ele>
        <time>2022-03-21T10:16:17Z</time>
      </trkpt>
      <trkpt lat="43.27096" lon="5.91942">
        <ele>338</ele>
        <time>2022-03-21T10:16:33Z</time>
      </trkpt>
      <trkpt lat="43.27093" lon="5.91959">
        <ele>337</ele>
        <time>2022-03-21T10:16:36Z</time>
      </trkpt>
      <trkpt lat="43.27088" lon="5.9197">
        <ele>337</ele>
        <time>2022-03-21T10:16:38Z</time>
      </trkpt>
      <trkpt lat="43.2707" lon="5.91991">
        <ele>337</ele>
        <time>2022-03-21T10:16:44Z</time>
      </trkpt>
      <trkpt lat="43.27066" lon="5.92009">
        <ele>336</ele>
        <time>2022-03-21T10:16:47Z</time>
      </trkpt>
      <trkpt lat="43.27052" lon="5.92036">
        <ele>334</ele>
        <time>2022-03-21T10:16:53Z</time>
      </trkpt>
      <trkpt lat="43.27062" lon="5.92042">
        <ele>332</ele>
        <time>2022-03-21T10:16:55Z</time>
      </trkpt>
      <trkpt lat="43.27074" lon="5.92043">
        <ele>330</ele>
        <time>2022-03-21T10:16:58Z</time>
      </trkpt>
      <trkpt lat="43.27083" lon="5.92049">
        <ele>328</ele>
        <time>2022-03-21T10:17:00Z</time>
      </trkpt>
      <trkpt lat="43.27108" lon="5.92079">
        <ele>325</ele>
        <time>2022-03-21T10:17:08Z</time>
      </trkpt>
      <trkpt lat="43.27127" lon="5.92093">
        <ele>325</ele>
        <time>2022-03-21T10:17:13Z</time>
      </trkpt>
      <trkpt lat="43.27202" lon="5.92113">
        <ele>325</ele>
        <time>2022-03-21T10:17:31Z</time>
      </trkpt>
      <trkpt lat="43.27215" lon="5.92121">
        <ele>324</ele>
        <time>2022-03-21T10:17:34Z</time>
      </trkpt>
      <trkpt lat="43.27227" lon="5.92133">
        <ele>323</ele>
        <time>2022-03-21T10:17:38Z</time>
      </trkpt>
      <trkpt lat="43.27255" lon="5.92189">
        <ele>316</ele>
        <time>2022-03-21T10:17:49Z</time>
      </trkpt>
      <trkpt lat="43.27274" lon="5.92219">
        <ele>313</ele>
        <time>2022-03-21T10:17:56Z</time>
      </trkpt>
      <trkpt lat="43.27291" lon="5.92252">
        <ele>309</ele>
        <time>2022-03-21T10:18:03Z</time>
      </trkpt>
      <trkpt lat="43.27297" lon="5.9227">
        <ele>310</ele>
        <time>2022-03-21T10:18:06Z</time>
      </trkpt>
      <trkpt lat="43.27292" lon="5.92285">
        <ele>311</ele>
        <time>2022-03-21T10:18:09Z</time>
      </trkpt>
      <trkpt lat="43.27285" lon="5.92295">
        <ele>311</ele>
        <time>2022-03-21T10:18:11Z</time>
      </trkpt>
      <trkpt lat="43.27271" lon="5.92333">
        <ele>311</ele>
        <time>2022-03-21T10:18:19Z</time>
      </trkpt>
      <trkpt lat="43.2727" lon="5.92345">
        <ele>312</ele>
        <time>2022-03-21T10:18:21Z</time>
      </trkpt>
      <trkpt lat="43.27274" lon="5.9236">
        <ele>314</ele>
        <time>2022-03-21T10:18:23Z</time>
      </trkpt>
      <trkpt lat="43.27296" lon="5.92348">
        <ele>315</ele>
        <time>2022-03-21T10:18:29Z</time>
      </trkpt>
      <trkpt lat="43.27309" lon="5.92349">
        <ele>316</ele>
        <time>2022-03-21T10:18:32Z</time>
      </trkpt>
      <trkpt lat="43.27328" lon="5.92356">
        <ele>319</ele>
        <time>2022-03-21T10:18:37Z</time>
      </trkpt>
      <trkpt lat="43.27349" lon="5.92349">
        <ele>319</ele>
        <time>2022-03-21T10:18:42Z</time>
      </trkpt>
      <trkpt lat="43.27348" lon="5.92351">
        <ele>319</ele>
        <time>2022-03-21T10:18:42Z</time>
      </trkpt>
      <trkpt lat="43.27346" lon="5.9235">
        <ele>319</ele>
        <time>2022-03-21T10:18:43Z</time>
      </trkpt>
    </trkseg>
  </trk>
</gpx>